<?xml version="1.0" encoding="UTF-8" standalone="no" ?>
<gpx xmlns="http://www.topografix.com/GPX/1/1" xmlns:xsi="http://www.w3.org/2001/XMLSchema-instance" xsi:schemaLocation="http://www.topografix.com/GPX/1/1 http://www.topografix.com/GPX/1/1/gpx.xsd" version="1.1" creator="VisuGPX - https://www.visugpx.com">
  <metadata>
    <name>Salleboeuf 30 km</name>
    <desc><![CDATA[









]]></desc>
  </metadata>
  <trk>
    <name><![CDATA[Salleboeuf boucle 32km]]></name>
    <desc><![CDATA[









]]></desc>
    <trkseg>
      <trkpt lat="44.84269" lon="-0.39381">
        <ele>78.6</ele>
        <time>2021-06-06T15:36:32Z</time>
      </trkpt>
      <trkpt lat="44.84269" lon="-0.39382">
        <ele>77.8</ele>
        <time>2021-06-06T15:36:28Z</time>
      </trkpt>
      <trkpt lat="44.84277" lon="-0.39389">
        <ele>77</ele>
        <time>2021-06-06T15:36:23Z</time>
      </trkpt>
      <trkpt lat="44.84283" lon="-0.39401">
        <ele>76.2</ele>
        <time>2021-06-06T15:36:18Z</time>
      </trkpt>
      <trkpt lat="44.84284" lon="-0.39414">
        <ele>75.3</ele>
        <time>2021-06-06T15:36:14Z</time>
      </trkpt>
      <trkpt lat="44.84285" lon="-0.39431">
        <ele>74.3</ele>
        <time>2021-06-06T15:36:10Z</time>
      </trkpt>
      <trkpt lat="44.84286" lon="-0.39447">
        <ele>73.3</ele>
        <time>2021-06-06T15:36:06Z</time>
      </trkpt>
      <trkpt lat="44.84288" lon="-0.39461">
        <ele>72.6</ele>
        <time>2021-06-06T15:36:03Z</time>
      </trkpt>
      <trkpt lat="44.8429" lon="-0.39477">
        <ele>72</ele>
        <time>2021-06-06T15:36:00Z</time>
      </trkpt>
      <trkpt lat="44.84293" lon="-0.39494">
        <ele>71.5</ele>
        <time>2021-06-06T15:35:57Z</time>
      </trkpt>
      <trkpt lat="44.84296" lon="-0.39511">
        <ele>70.9</ele>
        <time>2021-06-06T15:35:54Z</time>
      </trkpt>
      <trkpt lat="44.84299" lon="-0.39529">
        <ele>70.4</ele>
        <time>2021-06-06T15:35:51Z</time>
      </trkpt>
      <trkpt lat="44.843" lon="-0.39547">
        <ele>69.8</ele>
        <time>2021-06-06T15:35:48Z</time>
      </trkpt>
      <trkpt lat="44.84301" lon="-0.39564">
        <ele>69.2</ele>
        <time>2021-06-06T15:35:45Z</time>
      </trkpt>
      <trkpt lat="44.843" lon="-0.3958">
        <ele>68.9</ele>
        <time>2021-06-06T15:35:42Z</time>
      </trkpt>
      <trkpt lat="44.84302" lon="-0.39596">
        <ele>68.8</ele>
        <time>2021-06-06T15:35:39Z</time>
      </trkpt>
      <trkpt lat="44.84303" lon="-0.39613">
        <ele>68.9</ele>
        <time>2021-06-06T15:35:36Z</time>
      </trkpt>
      <trkpt lat="44.84304" lon="-0.39631">
        <ele>68.9</ele>
        <time>2021-06-06T15:35:33Z</time>
      </trkpt>
      <trkpt lat="44.84305" lon="-0.39649">
        <ele>69</ele>
        <time>2021-06-06T15:35:30Z</time>
      </trkpt>
      <trkpt lat="44.84306" lon="-0.39665">
        <ele>69.1</ele>
        <time>2021-06-06T15:35:27Z</time>
      </trkpt>
      <trkpt lat="44.84306" lon="-0.3968">
        <ele>69.2</ele>
        <time>2021-06-06T15:35:24Z</time>
      </trkpt>
      <trkpt lat="44.84307" lon="-0.39692">
        <ele>69.4</ele>
        <time>2021-06-06T15:35:21Z</time>
      </trkpt>
      <trkpt lat="44.84308" lon="-0.39707">
        <ele>69.8</ele>
        <time>2021-06-06T15:35:18Z</time>
      </trkpt>
      <trkpt lat="44.84313" lon="-0.39719">
        <ele>70.1</ele>
        <time>2021-06-06T15:35:15Z</time>
      </trkpt>
      <trkpt lat="44.84319" lon="-0.39732">
        <ele>70.5</ele>
        <time>2021-06-06T15:35:12Z</time>
      </trkpt>
      <trkpt lat="44.84325" lon="-0.39746">
        <ele>71</ele>
        <time>2021-06-06T15:35:09Z</time>
      </trkpt>
      <trkpt lat="44.8433" lon="-0.39758">
        <ele>71.6</ele>
        <time>2021-06-06T15:35:06Z</time>
      </trkpt>
      <trkpt lat="44.84336" lon="-0.39771">
        <ele>72.5</ele>
        <time>2021-06-06T15:35:02Z</time>
      </trkpt>
      <trkpt lat="44.84344" lon="-0.39778">
        <ele>73.5</ele>
        <time>2021-06-06T15:34:58Z</time>
      </trkpt>
      <trkpt lat="44.84339" lon="-0.39791">
        <ele>74.7</ele>
        <time>2021-06-06T15:34:54Z</time>
      </trkpt>
      <trkpt lat="44.84337" lon="-0.39807">
        <ele>75.5</ele>
        <time>2021-06-06T15:34:51Z</time>
      </trkpt>
      <trkpt lat="44.84337" lon="-0.39824">
        <ele>76.2</ele>
        <time>2021-06-06T15:34:49Z</time>
      </trkpt>
      <trkpt lat="44.84337" lon="-0.3984">
        <ele>76.9</ele>
        <time>2021-06-06T15:34:47Z</time>
      </trkpt>
      <trkpt lat="44.84337" lon="-0.39857">
        <ele>77.6</ele>
        <time>2021-06-06T15:34:45Z</time>
      </trkpt>
      <trkpt lat="44.84337" lon="-0.39873">
        <ele>78.4</ele>
        <time>2021-06-06T15:34:43Z</time>
      </trkpt>
      <trkpt lat="44.84336" lon="-0.39891">
        <ele>79.1</ele>
        <time>2021-06-06T15:34:41Z</time>
      </trkpt>
      <trkpt lat="44.84336" lon="-0.39909">
        <ele>79.7</ele>
        <time>2021-06-06T15:34:39Z</time>
      </trkpt>
      <trkpt lat="44.84336" lon="-0.39926">
        <ele>80.4</ele>
        <time>2021-06-06T15:34:37Z</time>
      </trkpt>
      <trkpt lat="44.84334" lon="-0.39942">
        <ele>80.9</ele>
        <time>2021-06-06T15:34:35Z</time>
      </trkpt>
      <trkpt lat="44.84331" lon="-0.39955">
        <ele>81.3</ele>
        <time>2021-06-06T15:34:33Z</time>
      </trkpt>
      <trkpt lat="44.84327" lon="-0.39968">
        <ele>81.6</ele>
        <time>2021-06-06T15:34:31Z</time>
      </trkpt>
      <trkpt lat="44.84323" lon="-0.39985">
        <ele>81.8</ele>
        <time>2021-06-06T15:34:28Z</time>
      </trkpt>
      <trkpt lat="44.84323" lon="-0.39998">
        <ele>81.7</ele>
        <time>2021-06-06T15:34:25Z</time>
      </trkpt>
      <trkpt lat="44.84324" lon="-0.40014">
        <ele>81.4</ele>
        <time>2021-06-06T15:34:21Z</time>
      </trkpt>
      <trkpt lat="44.84329" lon="-0.40027">
        <ele>81.3</ele>
        <time>2021-06-06T15:34:17Z</time>
      </trkpt>
      <trkpt lat="44.84334" lon="-0.40041">
        <ele>81.3</ele>
        <time>2021-06-06T15:34:14Z</time>
      </trkpt>
      <trkpt lat="44.84338" lon="-0.40057">
        <ele>81.3</ele>
        <time>2021-06-06T15:34:11Z</time>
      </trkpt>
      <trkpt lat="44.84342" lon="-0.40071">
        <ele>81.3</ele>
        <time>2021-06-06T15:34:08Z</time>
      </trkpt>
      <trkpt lat="44.84349" lon="-0.40079">
        <ele>81.2</ele>
        <time>2021-06-06T15:34:05Z</time>
      </trkpt>
      <trkpt lat="44.8436" lon="-0.40079">
        <ele>81.1</ele>
        <time>2021-06-06T15:34:02Z</time>
      </trkpt>
      <trkpt lat="44.84372" lon="-0.4008">
        <ele>81.2</ele>
        <time>2021-06-06T15:33:59Z</time>
      </trkpt>
      <trkpt lat="44.84383" lon="-0.40081">
        <ele>81.2</ele>
        <time>2021-06-06T15:33:56Z</time>
      </trkpt>
      <trkpt lat="44.84396" lon="-0.40082">
        <ele>81</ele>
        <time>2021-06-06T15:33:53Z</time>
      </trkpt>
      <trkpt lat="44.84406" lon="-0.40082">
        <ele>80.9</ele>
        <time>2021-06-06T15:33:51Z</time>
      </trkpt>
      <trkpt lat="44.84415" lon="-0.40083">
        <ele>80.8</ele>
        <time>2021-06-06T15:33:49Z</time>
      </trkpt>
      <trkpt lat="44.84427" lon="-0.40083">
        <ele>80.6</ele>
        <time>2021-06-06T15:33:46Z</time>
      </trkpt>
      <trkpt lat="44.84438" lon="-0.40083">
        <ele>80.4</ele>
        <time>2021-06-06T15:33:43Z</time>
      </trkpt>
      <trkpt lat="44.84448" lon="-0.40083">
        <ele>80.1</ele>
        <time>2021-06-06T15:33:40Z</time>
      </trkpt>
      <trkpt lat="44.8446" lon="-0.40085">
        <ele>79.8</ele>
        <time>2021-06-06T15:33:37Z</time>
      </trkpt>
      <trkpt lat="44.84469" lon="-0.40085">
        <ele>79.7</ele>
        <time>2021-06-06T15:33:35Z</time>
      </trkpt>
      <trkpt lat="44.84479" lon="-0.40084">
        <ele>79.4</ele>
        <time>2021-06-06T15:33:33Z</time>
      </trkpt>
      <trkpt lat="44.84493" lon="-0.40084">
        <ele>79</ele>
        <time>2021-06-06T15:33:30Z</time>
      </trkpt>
      <trkpt lat="44.84502" lon="-0.40082">
        <ele>78.8</ele>
        <time>2021-06-06T15:33:28Z</time>
      </trkpt>
      <trkpt lat="44.84511" lon="-0.4008">
        <ele>78.6</ele>
        <time>2021-06-06T15:33:26Z</time>
      </trkpt>
      <trkpt lat="44.84524" lon="-0.40076">
        <ele>78.2</ele>
        <time>2021-06-06T15:33:23Z</time>
      </trkpt>
      <trkpt lat="44.84536" lon="-0.40074">
        <ele>77.8</ele>
        <time>2021-06-06T15:33:20Z</time>
      </trkpt>
      <trkpt lat="44.84547" lon="-0.40071">
        <ele>77.4</ele>
        <time>2021-06-06T15:33:17Z</time>
      </trkpt>
      <trkpt lat="44.84558" lon="-0.40068">
        <ele>77.1</ele>
        <time>2021-06-06T15:33:14Z</time>
      </trkpt>
      <trkpt lat="44.84568" lon="-0.40065">
        <ele>76.8</ele>
        <time>2021-06-06T15:33:11Z</time>
      </trkpt>
      <trkpt lat="44.8458" lon="-0.40063">
        <ele>76.2</ele>
        <time>2021-06-06T15:33:06Z</time>
      </trkpt>
      <trkpt lat="44.84589" lon="-0.40063">
        <ele>75.8</ele>
        <time>2021-06-06T15:33:00Z</time>
      </trkpt>
      <trkpt lat="44.84593" lon="-0.40076">
        <ele>75.6</ele>
        <time>2021-06-06T15:32:57Z</time>
      </trkpt>
      <trkpt lat="44.84597" lon="-0.40091">
        <ele>75.5</ele>
        <time>2021-06-06T15:32:54Z</time>
      </trkpt>
      <trkpt lat="44.84601" lon="-0.40104">
        <ele>75.3</ele>
        <time>2021-06-06T15:32:51Z</time>
      </trkpt>
      <trkpt lat="44.84606" lon="-0.40119">
        <ele>75.3</ele>
        <time>2021-06-06T15:32:48Z</time>
      </trkpt>
      <trkpt lat="44.84611" lon="-0.40134">
        <ele>75.2</ele>
        <time>2021-06-06T15:32:45Z</time>
      </trkpt>
      <trkpt lat="44.84616" lon="-0.40148">
        <ele>75.2</ele>
        <time>2021-06-06T15:32:42Z</time>
      </trkpt>
      <trkpt lat="44.84622" lon="-0.40161">
        <ele>75.1</ele>
        <time>2021-06-06T15:32:39Z</time>
      </trkpt>
      <trkpt lat="44.84627" lon="-0.40177">
        <ele>74.9</ele>
        <time>2021-06-06T15:32:36Z</time>
      </trkpt>
      <trkpt lat="44.8463" lon="-0.40192">
        <ele>74.6</ele>
        <time>2021-06-06T15:32:33Z</time>
      </trkpt>
      <trkpt lat="44.84633" lon="-0.4021">
        <ele>74.4</ele>
        <time>2021-06-06T15:32:30Z</time>
      </trkpt>
      <trkpt lat="44.84634" lon="-0.40224">
        <ele>74.3</ele>
        <time>2021-06-06T15:32:28Z</time>
      </trkpt>
      <trkpt lat="44.84633" lon="-0.40237">
        <ele>74.3</ele>
        <time>2021-06-06T15:32:26Z</time>
      </trkpt>
      <trkpt lat="44.84631" lon="-0.4025">
        <ele>74.3</ele>
        <time>2021-06-06T15:32:24Z</time>
      </trkpt>
      <trkpt lat="44.8463" lon="-0.40267">
        <ele>74.4</ele>
        <time>2021-06-06T15:32:21Z</time>
      </trkpt>
      <trkpt lat="44.84628" lon="-0.40285">
        <ele>74.6</ele>
        <time>2021-06-06T15:32:18Z</time>
      </trkpt>
      <trkpt lat="44.84626" lon="-0.40299">
        <ele>74.8</ele>
        <time>2021-06-06T15:32:16Z</time>
      </trkpt>
      <trkpt lat="44.84624" lon="-0.40318">
        <ele>75.2</ele>
        <time>2021-06-06T15:32:13Z</time>
      </trkpt>
      <trkpt lat="44.84622" lon="-0.40331">
        <ele>75.5</ele>
        <time>2021-06-06T15:32:11Z</time>
      </trkpt>
      <trkpt lat="44.84618" lon="-0.40345">
        <ele>75.7</ele>
        <time>2021-06-06T15:32:09Z</time>
      </trkpt>
      <trkpt lat="44.84614" lon="-0.40363">
        <ele>75.5</ele>
        <time>2021-06-06T15:32:06Z</time>
      </trkpt>
      <trkpt lat="44.84613" lon="-0.40376">
        <ele>75.1</ele>
        <time>2021-06-06T15:32:03Z</time>
      </trkpt>
      <trkpt lat="44.84613" lon="-0.40392">
        <ele>74.6</ele>
        <time>2021-06-06T15:31:59Z</time>
      </trkpt>
      <trkpt lat="44.84611" lon="-0.40407">
        <ele>74</ele>
        <time>2021-06-06T15:31:56Z</time>
      </trkpt>
      <trkpt lat="44.84608" lon="-0.4042">
        <ele>73.1</ele>
        <time>2021-06-06T15:31:52Z</time>
      </trkpt>
      <trkpt lat="44.84605" lon="-0.40435">
        <ele>72.2</ele>
        <time>2021-06-06T15:31:48Z</time>
      </trkpt>
      <trkpt lat="44.84605" lon="-0.40449">
        <ele>71.2</ele>
        <time>2021-06-06T15:31:44Z</time>
      </trkpt>
      <trkpt lat="44.84602" lon="-0.40462">
        <ele>70.5</ele>
        <time>2021-06-06T15:31:40Z</time>
      </trkpt>
      <trkpt lat="44.846" lon="-0.40477">
        <ele>70.2</ele>
        <time>2021-06-06T15:31:36Z</time>
      </trkpt>
      <trkpt lat="44.84597" lon="-0.4049">
        <ele>70.4</ele>
        <time>2021-06-06T15:31:33Z</time>
      </trkpt>
      <trkpt lat="44.84588" lon="-0.40499">
        <ele>70.6</ele>
        <time>2021-06-06T15:31:30Z</time>
      </trkpt>
      <trkpt lat="44.84577" lon="-0.405">
        <ele>70.8</ele>
        <time>2021-06-06T15:31:28Z</time>
      </trkpt>
      <trkpt lat="44.84566" lon="-0.40502">
        <ele>71</ele>
        <time>2021-06-06T15:31:26Z</time>
      </trkpt>
      <trkpt lat="44.84556" lon="-0.40503">
        <ele>71.1</ele>
        <time>2021-06-06T15:31:24Z</time>
      </trkpt>
      <trkpt lat="44.84546" lon="-0.40503">
        <ele>71.3</ele>
        <time>2021-06-06T15:31:22Z</time>
      </trkpt>
      <trkpt lat="44.84533" lon="-0.40505">
        <ele>71.6</ele>
        <time>2021-06-06T15:31:19Z</time>
      </trkpt>
      <trkpt lat="44.84523" lon="-0.4051">
        <ele>72.2</ele>
        <time>2021-06-06T15:31:16Z</time>
      </trkpt>
      <trkpt lat="44.8452" lon="-0.40524">
        <ele>72.7</ele>
        <time>2021-06-06T15:31:14Z</time>
      </trkpt>
      <trkpt lat="44.84521" lon="-0.4054">
        <ele>73.4</ele>
        <time>2021-06-06T15:31:12Z</time>
      </trkpt>
      <trkpt lat="44.84518" lon="-0.40556">
        <ele>74.2</ele>
        <time>2021-06-06T15:31:10Z</time>
      </trkpt>
      <trkpt lat="44.84516" lon="-0.4057">
        <ele>75.1</ele>
        <time>2021-06-06T15:31:08Z</time>
      </trkpt>
      <trkpt lat="44.84506" lon="-0.40585">
        <ele>76.1</ele>
        <time>2021-06-06T15:31:05Z</time>
      </trkpt>
      <trkpt lat="44.84497" lon="-0.40593">
        <ele>76.7</ele>
        <time>2021-06-06T15:31:03Z</time>
      </trkpt>
      <trkpt lat="44.8449" lon="-0.40608">
        <ele>77.6</ele>
        <time>2021-06-06T15:31:00Z</time>
      </trkpt>
      <trkpt lat="44.8449" lon="-0.40627">
        <ele>78.4</ele>
        <time>2021-06-06T15:30:57Z</time>
      </trkpt>
      <trkpt lat="44.84488" lon="-0.4064">
        <ele>78.8</ele>
        <time>2021-06-06T15:30:55Z</time>
      </trkpt>
      <trkpt lat="44.84487" lon="-0.40657">
        <ele>79.4</ele>
        <time>2021-06-06T15:30:52Z</time>
      </trkpt>
      <trkpt lat="44.84487" lon="-0.4067">
        <ele>79.8</ele>
        <time>2021-06-06T15:30:50Z</time>
      </trkpt>
      <trkpt lat="44.84488" lon="-0.40688">
        <ele>80.3</ele>
        <time>2021-06-06T15:30:47Z</time>
      </trkpt>
      <trkpt lat="44.84488" lon="-0.40705">
        <ele>80.6</ele>
        <time>2021-06-06T15:30:44Z</time>
      </trkpt>
      <trkpt lat="44.8449" lon="-0.40721">
        <ele>80.8</ele>
        <time>2021-06-06T15:30:41Z</time>
      </trkpt>
      <trkpt lat="44.84492" lon="-0.40738">
        <ele>81</ele>
        <time>2021-06-06T15:30:38Z</time>
      </trkpt>
      <trkpt lat="44.84494" lon="-0.40756">
        <ele>81</ele>
        <time>2021-06-06T15:30:35Z</time>
      </trkpt>
      <trkpt lat="44.84495" lon="-0.40772">
        <ele>80.8</ele>
        <time>2021-06-06T15:30:32Z</time>
      </trkpt>
      <trkpt lat="44.84494" lon="-0.40785">
        <ele>80.5</ele>
        <time>2021-06-06T15:30:29Z</time>
      </trkpt>
      <trkpt lat="44.84499" lon="-0.40798">
        <ele>80.1</ele>
        <time>2021-06-06T15:30:25Z</time>
      </trkpt>
      <trkpt lat="44.8451" lon="-0.40801">
        <ele>79.8</ele>
        <time>2021-06-06T15:30:21Z</time>
      </trkpt>
      <trkpt lat="44.84522" lon="-0.40798">
        <ele>79.1</ele>
        <time>2021-06-06T15:30:17Z</time>
      </trkpt>
      <trkpt lat="44.84532" lon="-0.40796">
        <ele>78.3</ele>
        <time>2021-06-06T15:30:13Z</time>
      </trkpt>
      <trkpt lat="44.84543" lon="-0.40793">
        <ele>77.8</ele>
        <time>2021-06-06T15:30:09Z</time>
      </trkpt>
      <trkpt lat="44.84554" lon="-0.4079">
        <ele>77.2</ele>
        <time>2021-06-06T15:30:05Z</time>
      </trkpt>
      <trkpt lat="44.84564" lon="-0.40789">
        <ele>76.7</ele>
        <time>2021-06-06T15:30:01Z</time>
      </trkpt>
      <trkpt lat="44.84575" lon="-0.40787">
        <ele>76.3</ele>
        <time>2021-06-06T15:29:57Z</time>
      </trkpt>
      <trkpt lat="44.84585" lon="-0.40785">
        <ele>75.8</ele>
        <time>2021-06-06T15:29:54Z</time>
      </trkpt>
      <trkpt lat="44.84597" lon="-0.40783">
        <ele>75.5</ele>
        <time>2021-06-06T15:29:51Z</time>
      </trkpt>
      <trkpt lat="44.84609" lon="-0.40781">
        <ele>75.2</ele>
        <time>2021-06-06T15:29:48Z</time>
      </trkpt>
      <trkpt lat="44.8462" lon="-0.40779">
        <ele>74.8</ele>
        <time>2021-06-06T15:29:45Z</time>
      </trkpt>
      <trkpt lat="44.84631" lon="-0.40777">
        <ele>74.6</ele>
        <time>2021-06-06T15:29:42Z</time>
      </trkpt>
      <trkpt lat="44.84643" lon="-0.40775">
        <ele>74.7</ele>
        <time>2021-06-06T15:29:39Z</time>
      </trkpt>
      <trkpt lat="44.84655" lon="-0.40772">
        <ele>75</ele>
        <time>2021-06-06T15:29:36Z</time>
      </trkpt>
      <trkpt lat="44.84667" lon="-0.40767">
        <ele>75.1</ele>
        <time>2021-06-06T15:29:33Z</time>
      </trkpt>
      <trkpt lat="44.84678" lon="-0.40757">
        <ele>75.3</ele>
        <time>2021-06-06T15:29:30Z</time>
      </trkpt>
      <trkpt lat="44.84688" lon="-0.40747">
        <ele>75.3</ele>
        <time>2021-06-06T15:29:27Z</time>
      </trkpt>
      <trkpt lat="44.84697" lon="-0.40739">
        <ele>75.3</ele>
        <time>2021-06-06T15:29:24Z</time>
      </trkpt>
      <trkpt lat="44.84707" lon="-0.40732">
        <ele>75.2</ele>
        <time>2021-06-06T15:29:21Z</time>
      </trkpt>
      <trkpt lat="44.84716" lon="-0.40725">
        <ele>74.9</ele>
        <time>2021-06-06T15:29:18Z</time>
      </trkpt>
      <trkpt lat="44.84726" lon="-0.40716">
        <ele>74.4</ele>
        <time>2021-06-06T15:29:14Z</time>
      </trkpt>
      <trkpt lat="44.84735" lon="-0.40709">
        <ele>74</ele>
        <time>2021-06-06T15:29:11Z</time>
      </trkpt>
      <trkpt lat="44.84744" lon="-0.40702">
        <ele>73.6</ele>
        <time>2021-06-06T15:29:08Z</time>
      </trkpt>
      <trkpt lat="44.84752" lon="-0.40695">
        <ele>73.2</ele>
        <time>2021-06-06T15:29:05Z</time>
      </trkpt>
      <trkpt lat="44.84761" lon="-0.40687">
        <ele>73.1</ele>
        <time>2021-06-06T15:29:02Z</time>
      </trkpt>
      <trkpt lat="44.84769" lon="-0.40678">
        <ele>73</ele>
        <time>2021-06-06T15:28:59Z</time>
      </trkpt>
      <trkpt lat="44.8477" lon="-0.40665">
        <ele>73</ele>
        <time>2021-06-06T15:28:56Z</time>
      </trkpt>
      <trkpt lat="44.84767" lon="-0.40652">
        <ele>73.2</ele>
        <time>2021-06-06T15:28:53Z</time>
      </trkpt>
      <trkpt lat="44.84767" lon="-0.40637">
        <ele>73.6</ele>
        <time>2021-06-06T15:28:50Z</time>
      </trkpt>
      <trkpt lat="44.84775" lon="-0.40626">
        <ele>74.2</ele>
        <time>2021-06-06T15:28:47Z</time>
      </trkpt>
      <trkpt lat="44.84783" lon="-0.40615">
        <ele>74.9</ele>
        <time>2021-06-06T15:28:44Z</time>
      </trkpt>
      <trkpt lat="44.8478" lon="-0.40615">
        <ele>61.2</ele>
      </trkpt>
      <trkpt lat="44.84782" lon="-0.40588">
        <ele>60.5</ele>
      </trkpt>
      <trkpt lat="44.8478" lon="-0.40554">
        <ele>60.3</ele>
      </trkpt>
      <trkpt lat="44.8479" lon="-0.40533">
        <ele>61.3</ele>
      </trkpt>
      <trkpt lat="44.8478" lon="-0.40483">
        <ele>58.8</ele>
      </trkpt>
      <trkpt lat="44.84787" lon="-0.40305">
        <ele>53.6</ele>
      </trkpt>
      <trkpt lat="44.84825" lon="-0.40219">
        <ele>51.6</ele>
      </trkpt>
      <trkpt lat="44.84906" lon="-0.40246">
        <ele>59.4</ele>
      </trkpt>
      <trkpt lat="44.84965" lon="-0.40261">
        <ele>58.8</ele>
      </trkpt>
      <trkpt lat="44.85046" lon="-0.40223">
        <ele>56.7</ele>
      </trkpt>
      <trkpt lat="44.85105" lon="-0.40204">
        <ele>56.2</ele>
      </trkpt>
      <trkpt lat="44.85144" lon="-0.40181">
        <ele>56.2</ele>
      </trkpt>
      <trkpt lat="44.85228" lon="-0.40092">
        <ele>59.1</ele>
      </trkpt>
      <trkpt lat="44.85248" lon="-0.40075">
        <ele>59.3</ele>
      </trkpt>
      <trkpt lat="44.85272" lon="-0.40069">
        <ele>59.9</ele>
      </trkpt>
      <trkpt lat="44.85323" lon="-0.40099">
        <ele>61.1</ele>
      </trkpt>
      <trkpt lat="44.85365" lon="-0.40105">
        <ele>62.5</ele>
      </trkpt>
      <trkpt lat="44.85393" lon="-0.40089">
        <ele>64.3</ele>
      </trkpt>
      <trkpt lat="44.85409" lon="-0.4009">
        <ele>65.3</ele>
      </trkpt>
      <trkpt lat="44.85431" lon="-0.40121">
        <ele>66.1</ele>
      </trkpt>
      <trkpt lat="44.85454" lon="-0.40135">
        <ele>67.4</ele>
      </trkpt>
      <trkpt lat="44.85563" lon="-0.40126">
        <ele>73.4</ele>
      </trkpt>
      <trkpt lat="44.85546" lon="-0.40169">
        <ele>72.7</ele>
      </trkpt>
      <trkpt lat="44.85447" lon="-0.40321">
        <ele>71.7</ele>
      </trkpt>
      <trkpt lat="44.85373" lon="-0.40499">
        <ele>70.9</ele>
      </trkpt>
      <trkpt lat="44.85331" lon="-0.40586">
        <ele>65.9</ele>
      </trkpt>
      <trkpt lat="44.8527" lon="-0.40703">
        <ele>61.9</ele>
      </trkpt>
      <trkpt lat="44.85241" lon="-0.40742">
        <ele>61.1</ele>
      </trkpt>
      <trkpt lat="44.85208" lon="-0.40788">
        <ele>59.8</ele>
      </trkpt>
      <trkpt lat="44.85205" lon="-0.4081">
        <ele>59.6</ele>
      </trkpt>
      <trkpt lat="44.85202" lon="-0.40832">
        <ele>59.7</ele>
      </trkpt>
      <trkpt lat="44.85192" lon="-0.40838">
        <ele>60.2</ele>
      </trkpt>
      <trkpt lat="44.85186" lon="-0.40845">
        <ele>74.6</ele>
        <time>2021-06-06T15:25:42Z</time>
      </trkpt>
      <trkpt lat="44.85189" lon="-0.4086">
        <ele>75</ele>
        <time>2021-06-06T15:25:39Z</time>
      </trkpt>
      <trkpt lat="44.85187" lon="-0.40873">
        <ele>75.4</ele>
        <time>2021-06-06T15:25:37Z</time>
      </trkpt>
      <trkpt lat="44.85185" lon="-0.40887">
        <ele>75.8</ele>
        <time>2021-06-06T15:25:35Z</time>
      </trkpt>
      <trkpt lat="44.85182" lon="-0.40902">
        <ele>76.3</ele>
        <time>2021-06-06T15:25:33Z</time>
      </trkpt>
      <trkpt lat="44.85179" lon="-0.40916">
        <ele>76.8</ele>
        <time>2021-06-06T15:25:31Z</time>
      </trkpt>
      <trkpt lat="44.85175" lon="-0.40931">
        <ele>77.2</ele>
        <time>2021-06-06T15:25:29Z</time>
      </trkpt>
      <trkpt lat="44.85171" lon="-0.40947">
        <ele>77.8</ele>
        <time>2021-06-06T15:25:27Z</time>
      </trkpt>
      <trkpt lat="44.85167" lon="-0.40963">
        <ele>78.2</ele>
        <time>2021-06-06T15:25:25Z</time>
      </trkpt>
      <trkpt lat="44.85162" lon="-0.4098">
        <ele>78.7</ele>
        <time>2021-06-06T15:25:23Z</time>
      </trkpt>
      <trkpt lat="44.85158" lon="-0.40995">
        <ele>79</ele>
        <time>2021-06-06T15:25:21Z</time>
      </trkpt>
      <trkpt lat="44.85152" lon="-0.41007">
        <ele>79.2</ele>
        <time>2021-06-06T15:25:19Z</time>
      </trkpt>
      <trkpt lat="44.85148" lon="-0.41022">
        <ele>79.4</ele>
        <time>2021-06-06T15:25:16Z</time>
      </trkpt>
      <trkpt lat="44.8515" lon="-0.41036">
        <ele>79.4</ele>
        <time>2021-06-06T15:25:13Z</time>
      </trkpt>
      <trkpt lat="44.85151" lon="-0.41049">
        <ele>79.3</ele>
        <time>2021-06-06T15:25:09Z</time>
      </trkpt>
      <trkpt lat="44.85142" lon="-0.41057">
        <ele>79.1</ele>
        <time>2021-06-06T15:25:05Z</time>
      </trkpt>
      <trkpt lat="44.85143" lon="-0.41071">
        <ele>78.6</ele>
        <time>2021-06-06T15:24:58Z</time>
      </trkpt>
      <trkpt lat="44.85153" lon="-0.41072">
        <ele>79.1</ele>
        <time>2021-06-06T15:24:51Z</time>
      </trkpt>
      <trkpt lat="44.85153" lon="-0.41085">
        <ele>79.7</ele>
        <time>2021-06-06T15:24:45Z</time>
      </trkpt>
      <trkpt lat="44.85151" lon="-0.411">
        <ele>79.9</ele>
        <time>2021-06-06T15:24:42Z</time>
      </trkpt>
      <trkpt lat="44.8515" lon="-0.41114">
        <ele>79.9</ele>
        <time>2021-06-06T15:24:40Z</time>
      </trkpt>
      <trkpt lat="44.85151" lon="-0.41128">
        <ele>80</ele>
        <time>2021-06-06T15:24:38Z</time>
      </trkpt>
      <trkpt lat="44.85152" lon="-0.41141">
        <ele>80</ele>
        <time>2021-06-06T15:24:36Z</time>
      </trkpt>
      <trkpt lat="44.85154" lon="-0.41159">
        <ele>80</ele>
        <time>2021-06-06T15:24:33Z</time>
      </trkpt>
      <trkpt lat="44.85156" lon="-0.41174">
        <ele>79.9</ele>
        <time>2021-06-06T15:24:30Z</time>
      </trkpt>
      <trkpt lat="44.85158" lon="-0.41192">
        <ele>79.8</ele>
        <time>2021-06-06T15:24:27Z</time>
      </trkpt>
      <trkpt lat="44.85159" lon="-0.41206">
        <ele>79.8</ele>
        <time>2021-06-06T15:24:25Z</time>
      </trkpt>
      <trkpt lat="44.8516" lon="-0.41219">
        <ele>79.8</ele>
        <time>2021-06-06T15:24:23Z</time>
      </trkpt>
      <trkpt lat="44.85161" lon="-0.41233">
        <ele>79.9</ele>
        <time>2021-06-06T15:24:21Z</time>
      </trkpt>
      <trkpt lat="44.85163" lon="-0.41246">
        <ele>79.9</ele>
        <time>2021-06-06T15:24:19Z</time>
      </trkpt>
      <trkpt lat="44.85164" lon="-0.4126">
        <ele>79.9</ele>
        <time>2021-06-06T15:24:17Z</time>
      </trkpt>
      <trkpt lat="44.85164" lon="-0.41273">
        <ele>79.9</ele>
        <time>2021-06-06T15:24:15Z</time>
      </trkpt>
      <trkpt lat="44.85164" lon="-0.41286">
        <ele>80</ele>
        <time>2021-06-06T15:24:13Z</time>
      </trkpt>
      <trkpt lat="44.85163" lon="-0.41299">
        <ele>80</ele>
        <time>2021-06-06T15:24:11Z</time>
      </trkpt>
      <trkpt lat="44.85163" lon="-0.41314">
        <ele>80.1</ele>
        <time>2021-06-06T15:24:09Z</time>
      </trkpt>
      <trkpt lat="44.85162" lon="-0.41329">
        <ele>80.3</ele>
        <time>2021-06-06T15:24:07Z</time>
      </trkpt>
      <trkpt lat="44.8516" lon="-0.41344">
        <ele>80.5</ele>
        <time>2021-06-06T15:24:05Z</time>
      </trkpt>
      <trkpt lat="44.85158" lon="-0.4136">
        <ele>80.7</ele>
        <time>2021-06-06T15:24:03Z</time>
      </trkpt>
      <trkpt lat="44.85157" lon="-0.41376">
        <ele>81</ele>
        <time>2021-06-06T15:24:01Z</time>
      </trkpt>
      <trkpt lat="44.85155" lon="-0.41391">
        <ele>81.3</ele>
        <time>2021-06-06T15:23:59Z</time>
      </trkpt>
      <trkpt lat="44.85154" lon="-0.41407">
        <ele>81.6</ele>
        <time>2021-06-06T15:23:57Z</time>
      </trkpt>
      <trkpt lat="44.85154" lon="-0.41422">
        <ele>82</ele>
        <time>2021-06-06T15:23:55Z</time>
      </trkpt>
      <trkpt lat="44.85155" lon="-0.41437">
        <ele>82.3</ele>
        <time>2021-06-06T15:23:53Z</time>
      </trkpt>
      <trkpt lat="44.85157" lon="-0.41452">
        <ele>82.5</ele>
        <time>2021-06-06T15:23:51Z</time>
      </trkpt>
      <trkpt lat="44.85159" lon="-0.41467">
        <ele>82.8</ele>
        <time>2021-06-06T15:23:49Z</time>
      </trkpt>
      <trkpt lat="44.85161" lon="-0.41482">
        <ele>83</ele>
        <time>2021-06-06T15:23:47Z</time>
      </trkpt>
      <trkpt lat="44.85164" lon="-0.41496">
        <ele>83</ele>
        <time>2021-06-06T15:23:45Z</time>
      </trkpt>
      <trkpt lat="44.85166" lon="-0.4151">
        <ele>83</ele>
        <time>2021-06-06T15:23:43Z</time>
      </trkpt>
      <trkpt lat="44.85169" lon="-0.41528">
        <ele>82.9</ele>
        <time>2021-06-06T15:23:40Z</time>
      </trkpt>
      <trkpt lat="44.85172" lon="-0.41545">
        <ele>82.7</ele>
        <time>2021-06-06T15:23:37Z</time>
      </trkpt>
      <trkpt lat="44.85175" lon="-0.4156">
        <ele>82.4</ele>
        <time>2021-06-06T15:23:34Z</time>
      </trkpt>
      <trkpt lat="44.85177" lon="-0.41574">
        <ele>81.9</ele>
        <time>2021-06-06T15:23:31Z</time>
      </trkpt>
      <trkpt lat="44.85179" lon="-0.41588">
        <ele>81.5</ele>
        <time>2021-06-06T15:23:28Z</time>
      </trkpt>
      <trkpt lat="44.85181" lon="-0.41601">
        <ele>81.2</ele>
        <time>2021-06-06T15:23:25Z</time>
      </trkpt>
      <trkpt lat="44.85183" lon="-0.41615">
        <ele>80.8</ele>
        <time>2021-06-06T15:23:22Z</time>
      </trkpt>
      <trkpt lat="44.85185" lon="-0.41628">
        <ele>80.4</ele>
        <time>2021-06-06T15:23:19Z</time>
      </trkpt>
      <trkpt lat="44.85187" lon="-0.41641">
        <ele>80</ele>
        <time>2021-06-06T15:23:16Z</time>
      </trkpt>
      <trkpt lat="44.85189" lon="-0.41655">
        <ele>79.7</ele>
        <time>2021-06-06T15:23:13Z</time>
      </trkpt>
      <trkpt lat="44.85191" lon="-0.41669">
        <ele>79.5</ele>
        <time>2021-06-06T15:23:10Z</time>
      </trkpt>
      <trkpt lat="44.85193" lon="-0.41683">
        <ele>79.2</ele>
        <time>2021-06-06T15:23:07Z</time>
      </trkpt>
      <trkpt lat="44.85196" lon="-0.41698">
        <ele>79.2</ele>
        <time>2021-06-06T15:23:04Z</time>
      </trkpt>
      <trkpt lat="44.85197" lon="-0.41713">
        <ele>79.1</ele>
        <time>2021-06-06T15:23:01Z</time>
      </trkpt>
      <trkpt lat="44.85198" lon="-0.41729">
        <ele>79.1</ele>
        <time>2021-06-06T15:22:58Z</time>
      </trkpt>
      <trkpt lat="44.85199" lon="-0.41745">
        <ele>79.1</ele>
        <time>2021-06-06T15:22:55Z</time>
      </trkpt>
      <trkpt lat="44.852" lon="-0.41761">
        <ele>79.1</ele>
        <time>2021-06-06T15:22:52Z</time>
      </trkpt>
      <trkpt lat="44.85202" lon="-0.41776">
        <ele>79.1</ele>
        <time>2021-06-06T15:22:49Z</time>
      </trkpt>
      <trkpt lat="44.85205" lon="-0.41791">
        <ele>79</ele>
        <time>2021-06-06T15:22:46Z</time>
      </trkpt>
      <trkpt lat="44.85207" lon="-0.41807">
        <ele>79</ele>
        <time>2021-06-06T15:22:43Z</time>
      </trkpt>
      <trkpt lat="44.85209" lon="-0.41822">
        <ele>78.8</ele>
        <time>2021-06-06T15:22:40Z</time>
      </trkpt>
      <trkpt lat="44.85211" lon="-0.41837">
        <ele>78.7</ele>
        <time>2021-06-06T15:22:37Z</time>
      </trkpt>
      <trkpt lat="44.85214" lon="-0.41851">
        <ele>78.6</ele>
        <time>2021-06-06T15:22:34Z</time>
      </trkpt>
      <trkpt lat="44.85216" lon="-0.41865">
        <ele>78.7</ele>
        <time>2021-06-06T15:22:31Z</time>
      </trkpt>
      <trkpt lat="44.85218" lon="-0.41879">
        <ele>78.7</ele>
        <time>2021-06-06T15:22:28Z</time>
      </trkpt>
      <trkpt lat="44.85221" lon="-0.41892">
        <ele>78.7</ele>
        <time>2021-06-06T15:22:25Z</time>
      </trkpt>
      <trkpt lat="44.85223" lon="-0.41905">
        <ele>78.7</ele>
        <time>2021-06-06T15:22:22Z</time>
      </trkpt>
      <trkpt lat="44.85225" lon="-0.41921">
        <ele>78.4</ele>
        <time>2021-06-06T15:22:18Z</time>
      </trkpt>
      <trkpt lat="44.85227" lon="-0.41936">
        <ele>78.1</ele>
        <time>2021-06-06T15:22:14Z</time>
      </trkpt>
      <trkpt lat="44.85228" lon="-0.4195">
        <ele>77.8</ele>
        <time>2021-06-06T15:22:10Z</time>
      </trkpt>
      <trkpt lat="44.85231" lon="-0.41966">
        <ele>77.7</ele>
        <time>2021-06-06T15:22:06Z</time>
      </trkpt>
      <trkpt lat="44.85233" lon="-0.41981">
        <ele>77.5</ele>
        <time>2021-06-06T15:22:02Z</time>
      </trkpt>
      <trkpt lat="44.85235" lon="-0.41994">
        <ele>77</ele>
        <time>2021-06-06T15:21:58Z</time>
      </trkpt>
      <trkpt lat="44.85237" lon="-0.42009">
        <ele>76.8</ele>
        <time>2021-06-06T15:21:53Z</time>
      </trkpt>
      <trkpt lat="44.85238" lon="-0.42022">
        <ele>76.7</ele>
        <time>2021-06-06T15:21:48Z</time>
      </trkpt>
      <trkpt lat="44.85238" lon="-0.42036">
        <ele>77</ele>
        <time>2021-06-06T15:21:34Z</time>
      </trkpt>
      <trkpt lat="44.8524" lon="-0.42047">
        <ele>77.7</ele>
        <time>2021-06-06T15:20:22Z</time>
      </trkpt>
      <trkpt lat="44.85239" lon="-0.42057">
        <ele>76.6</ele>
        <time>2021-06-06T15:20:12Z</time>
      </trkpt>
      <trkpt lat="44.85233" lon="-0.42066">
        <ele>76.2</ele>
        <time>2021-06-06T15:20:08Z</time>
      </trkpt>
      <trkpt lat="44.85229" lon="-0.42078">
        <ele>75.7</ele>
        <time>2021-06-06T15:20:00Z</time>
      </trkpt>
      <trkpt lat="44.85225" lon="-0.4209">
        <ele>75.6</ele>
        <time>2021-06-06T15:19:55Z</time>
      </trkpt>
      <trkpt lat="44.85226" lon="-0.42106">
        <ele>75.7</ele>
        <time>2021-06-06T15:19:51Z</time>
      </trkpt>
      <trkpt lat="44.85227" lon="-0.42121">
        <ele>75.9</ele>
        <time>2021-06-06T15:19:46Z</time>
      </trkpt>
      <trkpt lat="44.85229" lon="-0.42135">
        <ele>76</ele>
        <time>2021-06-06T15:19:42Z</time>
      </trkpt>
      <trkpt lat="44.85233" lon="-0.42149">
        <ele>76.1</ele>
        <time>2021-06-06T15:19:38Z</time>
      </trkpt>
      <trkpt lat="44.85232" lon="-0.42166">
        <ele>75.9</ele>
        <time>2021-06-06T15:19:33Z</time>
      </trkpt>
      <trkpt lat="44.85227" lon="-0.42178">
        <ele>75.7</ele>
        <time>2021-06-06T15:19:29Z</time>
      </trkpt>
      <trkpt lat="44.85223" lon="-0.42192">
        <ele>75.1</ele>
        <time>2021-06-06T15:19:25Z</time>
      </trkpt>
      <trkpt lat="44.85219" lon="-0.42205">
        <ele>73.6</ele>
        <time>2021-06-06T15:19:19Z</time>
      </trkpt>
      <trkpt lat="44.85214" lon="-0.42217">
        <ele>72.4</ele>
        <time>2021-06-06T15:19:12Z</time>
      </trkpt>
      <trkpt lat="44.85211" lon="-0.4223">
        <ele>71.2</ele>
        <time>2021-06-06T15:19:05Z</time>
      </trkpt>
      <trkpt lat="44.85203" lon="-0.42237">
        <ele>70.7</ele>
        <time>2021-06-06T15:18:59Z</time>
      </trkpt>
      <trkpt lat="44.85194" lon="-0.42242">
        <ele>70.5</ele>
        <time>2021-06-06T15:18:54Z</time>
      </trkpt>
      <trkpt lat="44.85186" lon="-0.42252">
        <ele>70.2</ele>
        <time>2021-06-06T15:18:48Z</time>
      </trkpt>
      <trkpt lat="44.8518" lon="-0.42262">
        <ele>70</ele>
        <time>2021-06-06T15:18:42Z</time>
      </trkpt>
      <trkpt lat="44.85173" lon="-0.42271">
        <ele>69.9</ele>
        <time>2021-06-06T15:18:36Z</time>
      </trkpt>
      <trkpt lat="44.85165" lon="-0.4228">
        <ele>69.8</ele>
        <time>2021-06-06T15:18:29Z</time>
      </trkpt>
      <trkpt lat="44.85159" lon="-0.4229">
        <ele>69.6</ele>
        <time>2021-06-06T15:18:23Z</time>
      </trkpt>
      <trkpt lat="44.8516" lon="-0.42303">
        <ele>68.9</ele>
        <time>2021-06-06T15:18:16Z</time>
      </trkpt>
      <trkpt lat="44.85158" lon="-0.42316">
        <ele>67.9</ele>
        <time>2021-06-06T15:18:09Z</time>
      </trkpt>
      <trkpt lat="44.85155" lon="-0.42329">
        <ele>66.3</ele>
        <time>2021-06-06T15:18:01Z</time>
      </trkpt>
      <trkpt lat="44.85152" lon="-0.42342">
        <ele>65</ele>
        <time>2021-06-06T15:17:53Z</time>
      </trkpt>
      <trkpt lat="44.85146" lon="-0.42351">
        <ele>63.9</ele>
        <time>2021-06-06T15:17:45Z</time>
      </trkpt>
      <trkpt lat="44.85137" lon="-0.42357">
        <ele>62.7</ele>
        <time>2021-06-06T15:17:37Z</time>
      </trkpt>
      <trkpt lat="44.85128" lon="-0.4236">
        <ele>61.4</ele>
        <time>2021-06-06T15:17:30Z</time>
      </trkpt>
      <trkpt lat="44.85118" lon="-0.42363">
        <ele>59.7</ele>
        <time>2021-06-06T15:17:23Z</time>
      </trkpt>
      <trkpt lat="44.85109" lon="-0.42366">
        <ele>58.2</ele>
        <time>2021-06-06T15:17:17Z</time>
      </trkpt>
      <trkpt lat="44.85099" lon="-0.42373">
        <ele>57.3</ele>
        <time>2021-06-06T15:17:13Z</time>
      </trkpt>
      <trkpt lat="44.85093" lon="-0.42383">
        <ele>56.6</ele>
        <time>2021-06-06T15:17:09Z</time>
      </trkpt>
      <trkpt lat="44.85088" lon="-0.42396">
        <ele>56.2</ele>
        <time>2021-06-06T15:17:05Z</time>
      </trkpt>
      <trkpt lat="44.85089" lon="-0.42411">
        <ele>56.3</ele>
        <time>2021-06-06T15:17:01Z</time>
      </trkpt>
      <trkpt lat="44.85091" lon="-0.42427">
        <ele>56.7</ele>
        <time>2021-06-06T15:16:57Z</time>
      </trkpt>
      <trkpt lat="44.85093" lon="-0.42441">
        <ele>57.1</ele>
        <time>2021-06-06T15:16:54Z</time>
      </trkpt>
      <trkpt lat="44.85103" lon="-0.42447">
        <ele>57.6</ele>
        <time>2021-06-06T15:16:51Z</time>
      </trkpt>
      <trkpt lat="44.85112" lon="-0.42444">
        <ele>58.1</ele>
        <time>2021-06-06T15:16:49Z</time>
      </trkpt>
      <trkpt lat="44.85125" lon="-0.42443">
        <ele>58.6</ele>
        <time>2021-06-06T15:16:45Z</time>
      </trkpt>
      <trkpt lat="44.85134" lon="-0.42438">
        <ele>58.8</ele>
        <time>2021-06-06T15:16:41Z</time>
      </trkpt>
      <trkpt lat="44.85144" lon="-0.42435">
        <ele>58.8</ele>
        <time>2021-06-06T15:16:38Z</time>
      </trkpt>
      <trkpt lat="44.85153" lon="-0.4244">
        <ele>59</ele>
        <time>2021-06-06T15:16:35Z</time>
      </trkpt>
      <trkpt lat="44.85159" lon="-0.4245">
        <ele>58.9</ele>
        <time>2021-06-06T15:16:31Z</time>
      </trkpt>
      <trkpt lat="44.85162" lon="-0.42465">
        <ele>58.9</ele>
        <time>2021-06-06T15:16:27Z</time>
      </trkpt>
      <trkpt lat="44.85162" lon="-0.42479">
        <ele>58.9</ele>
        <time>2021-06-06T15:16:23Z</time>
      </trkpt>
      <trkpt lat="44.85172" lon="-0.42482">
        <ele>59</ele>
        <time>2021-06-06T15:16:19Z</time>
      </trkpt>
      <trkpt lat="44.85184" lon="-0.42477">
        <ele>59.3</ele>
        <time>2021-06-06T15:16:16Z</time>
      </trkpt>
      <trkpt lat="44.85192" lon="-0.42472">
        <ele>59.6</ele>
        <time>2021-06-06T15:16:14Z</time>
      </trkpt>
      <trkpt lat="44.85204" lon="-0.42466">
        <ele>59.8</ele>
        <time>2021-06-06T15:16:11Z</time>
      </trkpt>
      <trkpt lat="44.85213" lon="-0.42456">
        <ele>60.1</ele>
        <time>2021-06-06T15:16:07Z</time>
      </trkpt>
      <trkpt lat="44.85218" lon="-0.42444">
        <ele>60.5</ele>
        <time>2021-06-06T15:16:03Z</time>
      </trkpt>
      <trkpt lat="44.85228" lon="-0.42437">
        <ele>60.8</ele>
        <time>2021-06-06T15:15:59Z</time>
      </trkpt>
      <trkpt lat="44.85236" lon="-0.42431">
        <ele>61.4</ele>
        <time>2021-06-06T15:15:50Z</time>
      </trkpt>
      <trkpt lat="44.85241" lon="-0.42436">
        <ele>62.9</ele>
        <time>2021-06-06T15:15:40Z</time>
      </trkpt>
      <trkpt lat="44.85251" lon="-0.42436">
        <ele>63.4</ele>
        <time>2021-06-06T15:12:37Z</time>
      </trkpt>
      <trkpt lat="44.8525" lon="-0.42429">
        <ele>63.6</ele>
        <time>2021-06-06T15:12:28Z</time>
      </trkpt>
      <trkpt lat="44.85246" lon="-0.42416">
        <ele>63.6</ele>
        <time>2021-06-06T15:12:21Z</time>
      </trkpt>
      <trkpt lat="44.85236" lon="-0.42414">
        <ele>63.6</ele>
        <time>2021-06-06T15:12:15Z</time>
      </trkpt>
      <trkpt lat="44.85226" lon="-0.42414">
        <ele>63.6</ele>
        <time>2021-06-06T15:12:10Z</time>
      </trkpt>
      <trkpt lat="44.85215" lon="-0.42412">
        <ele>63.5</ele>
        <time>2021-06-06T15:12:05Z</time>
      </trkpt>
      <trkpt lat="44.85205" lon="-0.42412">
        <ele>63.1</ele>
        <time>2021-06-06T15:12:00Z</time>
      </trkpt>
      <trkpt lat="44.85195" lon="-0.42413">
        <ele>62.5</ele>
        <time>2021-06-06T15:11:54Z</time>
      </trkpt>
      <trkpt lat="44.85185" lon="-0.42413">
        <ele>61.6</ele>
        <time>2021-06-06T15:11:45Z</time>
      </trkpt>
      <trkpt lat="44.85184" lon="-0.42414">
        <ele>60.8</ele>
        <time>2021-06-06T15:11:39Z</time>
      </trkpt>
      <trkpt lat="44.85176" lon="-0.42418">
        <ele>61.2</ele>
        <time>2021-06-06T15:11:34Z</time>
      </trkpt>
      <trkpt lat="44.85164" lon="-0.42418">
        <ele>62.3</ele>
        <time>2021-06-06T15:11:29Z</time>
      </trkpt>
      <trkpt lat="44.85158" lon="-0.42407">
        <ele>64.2</ele>
        <time>2021-06-06T15:11:24Z</time>
      </trkpt>
      <trkpt lat="44.85151" lon="-0.42395">
        <ele>65.5</ele>
        <time>2021-06-06T15:11:21Z</time>
      </trkpt>
      <trkpt lat="44.85144" lon="-0.42382">
        <ele>66.5</ele>
        <time>2021-06-06T15:11:17Z</time>
      </trkpt>
      <trkpt lat="44.85149" lon="-0.42375">
        <ele>68.8</ele>
        <time>2021-06-06T15:11:08Z</time>
      </trkpt>
      <trkpt lat="44.8516" lon="-0.42363">
        <ele>70</ele>
        <time>2021-06-06T15:11:04Z</time>
      </trkpt>
      <trkpt lat="44.8517" lon="-0.42361">
        <ele>71.3</ele>
        <time>2021-06-06T15:10:58Z</time>
      </trkpt>
      <trkpt lat="44.85176" lon="-0.42348">
        <ele>72.1</ele>
        <time>2021-06-06T15:10:53Z</time>
      </trkpt>
      <trkpt lat="44.85179" lon="-0.42333">
        <ele>72.7</ele>
        <time>2021-06-06T15:10:48Z</time>
      </trkpt>
      <trkpt lat="44.85176" lon="-0.4232">
        <ele>73.1</ele>
        <time>2021-06-06T15:10:44Z</time>
      </trkpt>
      <trkpt lat="44.8518" lon="-0.42307">
        <ele>73.5</ele>
        <time>2021-06-06T15:10:40Z</time>
      </trkpt>
      <trkpt lat="44.85189" lon="-0.42299">
        <ele>73.8</ele>
        <time>2021-06-06T15:10:36Z</time>
      </trkpt>
      <trkpt lat="44.85193" lon="-0.42286">
        <ele>73.8</ele>
        <time>2021-06-06T15:10:32Z</time>
      </trkpt>
      <trkpt lat="44.85199" lon="-0.42274">
        <ele>74.2</ele>
        <time>2021-06-06T15:10:27Z</time>
      </trkpt>
      <trkpt lat="44.85203" lon="-0.42261">
        <ele>74.6</ele>
        <time>2021-06-06T15:10:23Z</time>
      </trkpt>
      <trkpt lat="44.85215" lon="-0.42254">
        <ele>75.2</ele>
        <time>2021-06-06T15:10:18Z</time>
      </trkpt>
      <trkpt lat="44.85218" lon="-0.42242">
        <ele>75.4</ele>
        <time>2021-06-06T15:10:14Z</time>
      </trkpt>
      <trkpt lat="44.85221" lon="-0.42229">
        <ele>75.8</ele>
        <time>2021-06-06T15:10:07Z</time>
      </trkpt>
      <trkpt lat="44.8523" lon="-0.42223">
        <ele>75.4</ele>
        <time>2021-06-06T15:09:59Z</time>
      </trkpt>
      <trkpt lat="44.85239" lon="-0.42228">
        <ele>75.1</ele>
        <time>2021-06-06T15:09:53Z</time>
      </trkpt>
      <trkpt lat="44.85236" lon="-0.42241">
        <ele>74.9</ele>
        <time>2021-06-06T15:09:41Z</time>
      </trkpt>
      <trkpt lat="44.85239" lon="-0.42254">
        <ele>74.5</ele>
        <time>2021-06-06T15:09:34Z</time>
      </trkpt>
      <trkpt lat="44.85238" lon="-0.42269">
        <ele>74.2</ele>
        <time>2021-06-06T15:09:26Z</time>
      </trkpt>
      <trkpt lat="44.8524" lon="-0.42285">
        <ele>74</ele>
        <time>2021-06-06T15:09:21Z</time>
      </trkpt>
      <trkpt lat="44.8524" lon="-0.42298">
        <ele>73.5</ele>
        <time>2021-06-06T15:09:16Z</time>
      </trkpt>
      <trkpt lat="44.85238" lon="-0.42311">
        <ele>73.1</ele>
        <time>2021-06-06T15:09:11Z</time>
      </trkpt>
      <trkpt lat="44.85232" lon="-0.42321">
        <ele>72.2</ele>
        <time>2021-06-06T15:09:03Z</time>
      </trkpt>
      <trkpt lat="44.8523" lon="-0.42333">
        <ele>70.9</ele>
        <time>2021-06-06T15:08:56Z</time>
      </trkpt>
      <trkpt lat="44.85225" lon="-0.42344">
        <ele>69.9</ele>
        <time>2021-06-06T15:08:50Z</time>
      </trkpt>
      <trkpt lat="44.8522" lon="-0.42358">
        <ele>69.1</ele>
        <time>2021-06-06T15:08:43Z</time>
      </trkpt>
      <trkpt lat="44.85215" lon="-0.4237">
        <ele>68.7</ele>
        <time>2021-06-06T15:08:37Z</time>
      </trkpt>
      <trkpt lat="44.85211" lon="-0.42382">
        <ele>68.9</ele>
        <time>2021-06-06T15:08:31Z</time>
      </trkpt>
      <trkpt lat="44.85217" lon="-0.42391">
        <ele>69.4</ele>
        <time>2021-06-06T15:08:24Z</time>
      </trkpt>
      <trkpt lat="44.85228" lon="-0.42388">
        <ele>69.8</ele>
        <time>2021-06-06T15:08:17Z</time>
      </trkpt>
      <trkpt lat="44.85238" lon="-0.4239">
        <ele>69.8</ele>
        <time>2021-06-06T15:08:11Z</time>
      </trkpt>
      <trkpt lat="44.85247" lon="-0.42387">
        <ele>69.7</ele>
        <time>2021-06-06T15:08:04Z</time>
      </trkpt>
      <trkpt lat="44.85257" lon="-0.42386">
        <ele>69.1</ele>
        <time>2021-06-06T15:07:58Z</time>
      </trkpt>
      <trkpt lat="44.85263" lon="-0.42395">
        <ele>68.5</ele>
        <time>2021-06-06T15:07:52Z</time>
      </trkpt>
      <trkpt lat="44.85269" lon="-0.42407">
        <ele>68</ele>
        <time>2021-06-06T15:07:47Z</time>
      </trkpt>
      <trkpt lat="44.85271" lon="-0.42419">
        <ele>67.3</ele>
        <time>2021-06-06T15:07:40Z</time>
      </trkpt>
      <trkpt lat="44.85271" lon="-0.42433">
        <ele>66</ele>
        <time>2021-06-06T15:07:30Z</time>
      </trkpt>
      <trkpt lat="44.85262" lon="-0.4244">
        <ele>65.7</ele>
        <time>2021-06-06T15:07:22Z</time>
      </trkpt>
      <trkpt lat="44.85254" lon="-0.42448">
        <ele>64.9</ele>
        <time>2021-06-06T15:06:54Z</time>
      </trkpt>
      <trkpt lat="44.85253" lon="-0.42455">
        <ele>64.3</ele>
        <time>2021-06-06T15:06:43Z</time>
      </trkpt>
      <trkpt lat="44.85252" lon="-0.42464">
        <ele>62.8</ele>
        <time>2021-06-06T15:06:29Z</time>
      </trkpt>
      <trkpt lat="44.85254" lon="-0.42469">
        <ele>61.4</ele>
        <time>2021-06-06T15:06:20Z</time>
      </trkpt>
      <trkpt lat="44.85261" lon="-0.42477">
        <ele>61.7</ele>
        <time>2021-06-06T15:06:00Z</time>
      </trkpt>
      <trkpt lat="44.8526" lon="-0.42477">
        <ele>61.5</ele>
        <time>2021-06-06T15:05:55Z</time>
      </trkpt>
      <trkpt lat="44.85268" lon="-0.42484">
        <ele>61.5</ele>
        <time>2021-06-06T15:05:49Z</time>
      </trkpt>
      <trkpt lat="44.85275" lon="-0.42494">
        <ele>61.6</ele>
        <time>2021-06-06T15:05:44Z</time>
      </trkpt>
      <trkpt lat="44.85275" lon="-0.42508">
        <ele>61.4</ele>
        <time>2021-06-06T15:05:38Z</time>
      </trkpt>
      <trkpt lat="44.8528" lon="-0.4252">
        <ele>60.8</ele>
        <time>2021-06-06T15:05:33Z</time>
      </trkpt>
      <trkpt lat="44.85285" lon="-0.42531">
        <ele>60.5</ele>
        <time>2021-06-06T15:05:27Z</time>
      </trkpt>
      <trkpt lat="44.85284" lon="-0.42544">
        <ele>60.3</ele>
        <time>2021-06-06T15:05:18Z</time>
      </trkpt>
      <trkpt lat="44.8528" lon="-0.42549">
        <ele>60.3</ele>
        <time>2021-06-06T15:05:01Z</time>
      </trkpt>
      <trkpt lat="44.8528" lon="-0.42549">
        <ele>59.9</ele>
        <time>2021-06-06T15:04:57Z</time>
      </trkpt>
      <trkpt lat="44.85284" lon="-0.42561">
        <ele>59.7</ele>
        <time>2021-06-06T15:04:53Z</time>
      </trkpt>
      <trkpt lat="44.85288" lon="-0.42573">
        <ele>59.4</ele>
        <time>2021-06-06T15:04:47Z</time>
      </trkpt>
      <trkpt lat="44.85284" lon="-0.42585">
        <ele>59.2</ele>
        <time>2021-06-06T15:04:39Z</time>
      </trkpt>
      <trkpt lat="44.85274" lon="-0.4259">
        <ele>58.9</ele>
        <time>2021-06-06T15:04:29Z</time>
      </trkpt>
      <trkpt lat="44.85265" lon="-0.42585">
        <ele>58.1</ele>
        <time>2021-06-06T15:04:18Z</time>
      </trkpt>
      <trkpt lat="44.85256" lon="-0.4258">
        <ele>57.8</ele>
        <time>2021-06-06T15:04:13Z</time>
      </trkpt>
      <trkpt lat="44.85245" lon="-0.42574">
        <ele>57.7</ele>
        <time>2021-06-06T15:04:10Z</time>
      </trkpt>
      <trkpt lat="44.85236" lon="-0.42573">
        <ele>57.5</ele>
        <time>2021-06-06T15:04:05Z</time>
      </trkpt>
      <trkpt lat="44.85227" lon="-0.4257">
        <ele>57.6</ele>
        <time>2021-06-06T15:04:01Z</time>
      </trkpt>
      <trkpt lat="44.85217" lon="-0.42568">
        <ele>57.7</ele>
        <time>2021-06-06T15:03:57Z</time>
      </trkpt>
      <trkpt lat="44.85206" lon="-0.42568">
        <ele>57.8</ele>
        <time>2021-06-06T15:03:52Z</time>
      </trkpt>
      <trkpt lat="44.85197" lon="-0.42562">
        <ele>57.3</ele>
        <time>2021-06-06T15:03:03Z</time>
      </trkpt>
      <trkpt lat="44.85197" lon="-0.4257">
        <ele>55.2</ele>
        <time>2021-06-06T15:02:43Z</time>
      </trkpt>
      <trkpt lat="44.85197" lon="-0.4257">
        <ele>54.2</ele>
        <time>2021-06-06T15:02:39Z</time>
      </trkpt>
      <trkpt lat="44.85194" lon="-0.42582">
        <ele>53.7</ele>
        <time>2021-06-06T15:02:18Z</time>
      </trkpt>
      <trkpt lat="44.85186" lon="-0.42578">
        <ele>55</ele>
        <time>2021-06-06T15:01:15Z</time>
      </trkpt>
      <trkpt lat="44.8518" lon="-0.42577">
        <ele>54.8</ele>
        <time>2021-06-06T15:01:08Z</time>
      </trkpt>
      <trkpt lat="44.85171" lon="-0.4257">
        <ele>54.7</ele>
        <time>2021-06-06T15:01:03Z</time>
      </trkpt>
      <trkpt lat="44.8516" lon="-0.42569">
        <ele>54.6</ele>
        <time>2021-06-06T15:01:00Z</time>
      </trkpt>
      <trkpt lat="44.85151" lon="-0.42569">
        <ele>54.4</ele>
        <time>2021-06-06T15:00:56Z</time>
      </trkpt>
      <trkpt lat="44.85141" lon="-0.42573">
        <ele>54.3</ele>
        <time>2021-06-06T15:00:51Z</time>
      </trkpt>
      <trkpt lat="44.85134" lon="-0.42582">
        <ele>53.9</ele>
        <time>2021-06-06T15:00:42Z</time>
      </trkpt>
      <trkpt lat="44.85134" lon="-0.42593">
        <ele>37.44</ele>
        <time>2019-09-08T15:00:29Z</time>
      </trkpt>
      <trkpt lat="44.85138" lon="-0.42611">
        <ele>36.46</ele>
        <time>2019-09-08T15:00:13Z</time>
      </trkpt>
      <trkpt lat="44.85138" lon="-0.42614">
        <ele>36.46</ele>
        <time>2019-09-08T15:00:12Z</time>
      </trkpt>
      <trkpt lat="44.85132" lon="-0.42642">
        <ele>35.5</ele>
        <time>2019-09-08T14:59:59Z</time>
      </trkpt>
      <trkpt lat="44.85131" lon="-0.42648">
        <ele>35.36</ele>
        <time>2019-09-08T14:59:24Z</time>
      </trkpt>
      <trkpt lat="44.85132" lon="-0.42648">
        <ele>33.08</ele>
        <time>2019-09-08T14:59:20Z</time>
      </trkpt>
      <trkpt lat="44.85133" lon="-0.42647">
        <ele>32.77</ele>
        <time>2019-09-08T14:58:19Z</time>
      </trkpt>
      <trkpt lat="44.85133" lon="-0.42647">
        <ele>32.77</ele>
        <time>2019-09-08T14:58:18Z</time>
      </trkpt>
      <trkpt lat="44.85133" lon="-0.42647">
        <ele>36.03</ele>
        <time>2019-09-08T14:58:16Z</time>
      </trkpt>
      <trkpt lat="44.85136" lon="-0.42646">
        <ele>35.82</ele>
        <time>2019-09-08T14:57:42Z</time>
      </trkpt>
      <trkpt lat="44.85137" lon="-0.42645">
        <ele>35.6</ele>
        <time>2019-09-08T14:57:04Z</time>
      </trkpt>
      <trkpt lat="44.85135" lon="-0.42647">
        <ele>35.33</ele>
        <time>2019-09-08T14:56:25Z</time>
      </trkpt>
      <trkpt lat="44.85137" lon="-0.42647">
        <ele>35.13</ele>
        <time>2019-09-08T14:55:59Z</time>
      </trkpt>
      <trkpt lat="44.85137" lon="-0.42647">
        <ele>35.13</ele>
        <time>2019-09-08T14:55:58Z</time>
      </trkpt>
      <trkpt lat="44.85137" lon="-0.42647">
        <ele>32</ele>
        <time>2019-09-08T14:55:52Z</time>
      </trkpt>
      <trkpt lat="44.85138" lon="-0.42643">
        <ele>34.2</ele>
        <time>2019-09-08T14:55:12Z</time>
      </trkpt>
      <trkpt lat="44.85138" lon="-0.42643">
        <ele>26.18</ele>
        <time>2019-09-08T14:55:11Z</time>
      </trkpt>
      <trkpt lat="44.85138" lon="-0.42643">
        <ele>35.28</ele>
        <time>2019-09-08T14:55:10Z</time>
      </trkpt>
      <trkpt lat="44.85138" lon="-0.42643">
        <ele>35.27</ele>
        <time>2019-09-08T14:55:09Z</time>
      </trkpt>
      <trkpt lat="44.85138" lon="-0.42643">
        <ele>26.57</ele>
        <time>2019-09-08T14:55:07Z</time>
      </trkpt>
      <trkpt lat="44.85137" lon="-0.42643">
        <ele>31.65</ele>
        <time>2019-09-08T14:55:04Z</time>
      </trkpt>
      <trkpt lat="44.85137" lon="-0.42643">
        <ele>34.16</ele>
        <time>2019-09-08T14:55:00Z</time>
      </trkpt>
      <trkpt lat="44.85137" lon="-0.42643">
        <ele>33.2</ele>
        <time>2019-09-08T14:54:58Z</time>
      </trkpt>
      <trkpt lat="44.85137" lon="-0.42643">
        <ele>30.11</ele>
        <time>2019-09-08T14:54:56Z</time>
      </trkpt>
      <trkpt lat="44.85138" lon="-0.42642">
        <ele>31.79</ele>
        <time>2019-09-08T14:54:48Z</time>
      </trkpt>
      <trkpt lat="44.85138" lon="-0.42642">
        <ele>34.16</ele>
        <time>2019-09-08T14:54:44Z</time>
      </trkpt>
      <trkpt lat="44.85138" lon="-0.42642">
        <ele>34.15</ele>
        <time>2019-09-08T14:54:43Z</time>
      </trkpt>
      <trkpt lat="44.85138" lon="-0.42642">
        <ele>30.83</ele>
        <time>2019-09-08T14:54:40Z</time>
      </trkpt>
      <trkpt lat="44.85138" lon="-0.42642">
        <ele>24.27</ele>
        <time>2019-09-08T14:54:39Z</time>
      </trkpt>
      <trkpt lat="44.85138" lon="-0.42642">
        <ele>31.47</ele>
        <time>2019-09-08T14:54:37Z</time>
      </trkpt>
      <trkpt lat="44.85137" lon="-0.42642">
        <ele>26.81</ele>
        <time>2019-09-08T14:54:36Z</time>
      </trkpt>
      <trkpt lat="44.85137" lon="-0.42642">
        <ele>30.38</ele>
        <time>2019-09-08T14:54:34Z</time>
      </trkpt>
      <trkpt lat="44.85137" lon="-0.42642">
        <ele>30.38</ele>
        <time>2019-09-08T14:54:33Z</time>
      </trkpt>
      <trkpt lat="44.85137" lon="-0.42642">
        <ele>32.42</ele>
        <time>2019-09-08T14:53:37Z</time>
      </trkpt>
      <trkpt lat="44.85137" lon="-0.42644">
        <ele>32.03</ele>
        <time>2019-09-08T14:52:39Z</time>
      </trkpt>
      <trkpt lat="44.85138" lon="-0.42642">
        <ele>31.7</ele>
        <time>2019-09-08T14:51:49Z</time>
      </trkpt>
      <trkpt lat="44.85139" lon="-0.4264">
        <ele>31.35</ele>
        <time>2019-09-08T14:50:54Z</time>
      </trkpt>
      <trkpt lat="44.85143" lon="-0.4264">
        <ele>31.07</ele>
        <time>2019-09-08T14:49:53Z</time>
      </trkpt>
      <trkpt lat="44.85142" lon="-0.42641">
        <ele>30.71</ele>
        <time>2019-09-08T14:48:50Z</time>
      </trkpt>
      <trkpt lat="44.85141" lon="-0.42641">
        <ele>30.35</ele>
        <time>2019-09-08T14:47:55Z</time>
      </trkpt>
      <trkpt lat="44.85138" lon="-0.42635">
        <ele>29.9</ele>
        <time>2019-09-08T14:46:52Z</time>
      </trkpt>
      <trkpt lat="44.85137" lon="-0.42639">
        <ele>29.56</ele>
        <time>2019-09-08T14:46:04Z</time>
      </trkpt>
      <trkpt lat="44.85139" lon="-0.42639">
        <ele>29.29</ele>
        <time>2019-09-08T14:45:27Z</time>
      </trkpt>
      <trkpt lat="44.85139" lon="-0.42639">
        <ele>28.94</ele>
        <time>2019-09-08T14:44:40Z</time>
      </trkpt>
      <trkpt lat="44.8514" lon="-0.42641">
        <ele>28.62</ele>
        <time>2019-09-08T14:43:55Z</time>
      </trkpt>
      <trkpt lat="44.85139" lon="-0.42642">
        <ele>28.4</ele>
        <time>2019-09-08T14:43:22Z</time>
      </trkpt>
      <trkpt lat="44.8514" lon="-0.4264">
        <ele>28.15</ele>
        <time>2019-09-08T14:42:46Z</time>
      </trkpt>
      <trkpt lat="44.85138" lon="-0.42638">
        <ele>27.75</ele>
        <time>2019-09-08T14:41:56Z</time>
      </trkpt>
      <trkpt lat="44.85138" lon="-0.4264">
        <ele>27.43</ele>
        <time>2019-09-08T14:41:16Z</time>
      </trkpt>
      <trkpt lat="44.85138" lon="-0.4264">
        <ele>26.2</ele>
        <time>2019-09-08T14:41:12Z</time>
      </trkpt>
      <trkpt lat="44.85138" lon="-0.42641">
        <ele>23.72</ele>
        <time>2019-09-08T14:41:08Z</time>
      </trkpt>
      <trkpt lat="44.85138" lon="-0.42641">
        <ele>23.71</ele>
        <time>2019-09-08T14:41:07Z</time>
      </trkpt>
      <trkpt lat="44.85138" lon="-0.42641">
        <ele>27.6</ele>
        <time>2019-09-08T14:41:00Z</time>
      </trkpt>
      <trkpt lat="44.85138" lon="-0.42641">
        <ele>27.59</ele>
        <time>2019-09-08T14:40:59Z</time>
      </trkpt>
      <trkpt lat="44.85139" lon="-0.42641">
        <ele>21.7</ele>
        <time>2019-09-08T14:40:57Z</time>
      </trkpt>
      <trkpt lat="44.85138" lon="-0.4264">
        <ele>26.6</ele>
        <time>2019-09-08T14:40:51Z</time>
      </trkpt>
      <trkpt lat="44.85138" lon="-0.42642">
        <ele>26.43</ele>
        <time>2019-09-08T14:40:22Z</time>
      </trkpt>
      <trkpt lat="44.85137" lon="-0.42643">
        <ele>26.16</ele>
        <time>2019-09-08T14:39:39Z</time>
      </trkpt>
      <trkpt lat="44.85138" lon="-0.42639">
        <ele>25.87</ele>
        <time>2019-09-08T14:38:55Z</time>
      </trkpt>
      <trkpt lat="44.85138" lon="-0.42642">
        <ele>25.67</ele>
        <time>2019-09-08T14:38:15Z</time>
      </trkpt>
      <trkpt lat="44.85136" lon="-0.42647">
        <ele>25.53</ele>
        <time>2019-09-08T14:37:44Z</time>
      </trkpt>
      <trkpt lat="44.85137" lon="-0.4265">
        <ele>26.17</ele>
        <time>2019-09-08T14:37:19Z</time>
      </trkpt>
      <trkpt lat="44.85134" lon="-0.4265">
        <ele>26.81</ele>
        <time>2019-09-08T14:36:39Z</time>
      </trkpt>
      <trkpt lat="44.85132" lon="-0.42647">
        <ele>26.67</ele>
        <time>2019-09-08T14:36:06Z</time>
      </trkpt>
      <trkpt lat="44.85122" lon="-0.42652">
        <ele>28.82</ele>
        <time>2019-09-08T14:35:58Z</time>
      </trkpt>
      <trkpt lat="44.85122" lon="-0.42655">
        <ele>30.4</ele>
        <time>2019-09-08T14:35:57Z</time>
      </trkpt>
      <trkpt lat="44.85121" lon="-0.42661">
        <ele>33.92</ele>
        <time>2019-09-08T14:35:54Z</time>
      </trkpt>
      <trkpt lat="44.85117" lon="-0.42663">
        <ele>33.95</ele>
        <time>2019-09-08T14:35:49Z</time>
      </trkpt>
      <trkpt lat="44.85121" lon="-0.42664">
        <ele>34.03</ele>
        <time>2019-09-08T14:35:30Z</time>
      </trkpt>
      <trkpt lat="44.8512" lon="-0.42665">
        <ele>34.13</ele>
        <time>2019-09-08T14:35:08Z</time>
      </trkpt>
      <trkpt lat="44.85118" lon="-0.42671">
        <ele>34.21</ele>
        <time>2019-09-08T14:34:51Z</time>
      </trkpt>
      <trkpt lat="44.85113" lon="-0.42694">
        <ele>34.32</ele>
        <time>2019-09-08T14:34:41Z</time>
      </trkpt>
      <trkpt lat="44.85115" lon="-0.42701">
        <ele>34.36</ele>
        <time>2019-09-08T14:34:37Z</time>
      </trkpt>
      <trkpt lat="44.8512" lon="-0.42703">
        <ele>34.39</ele>
        <time>2019-09-08T14:34:34Z</time>
      </trkpt>
      <trkpt lat="44.85128" lon="-0.42705">
        <ele>34.41</ele>
        <time>2019-09-08T14:34:27Z</time>
      </trkpt>
      <trkpt lat="44.85141" lon="-0.42695">
        <ele>32.58</ele>
        <time>2019-09-08T14:34:13Z</time>
      </trkpt>
      <trkpt lat="44.85141" lon="-0.42691">
        <ele>32.69</ele>
        <time>2019-09-08T14:34:00Z</time>
      </trkpt>
      <trkpt lat="44.85142" lon="-0.42682">
        <ele>30.18</ele>
        <time>2019-09-08T14:33:37Z</time>
      </trkpt>
      <trkpt lat="44.85147" lon="-0.42674">
        <ele>26.94</ele>
        <time>2019-09-08T14:33:21Z</time>
      </trkpt>
      <trkpt lat="44.85149" lon="-0.42675">
        <ele>24.04</ele>
        <time>2019-09-08T14:33:19Z</time>
      </trkpt>
      <trkpt lat="44.85155" lon="-0.42675">
        <ele>24.08</ele>
        <time>2019-09-08T14:33:15Z</time>
      </trkpt>
      <trkpt lat="44.85164" lon="-0.42686">
        <ele>24.07</ele>
        <time>2019-09-08T14:33:02Z</time>
      </trkpt>
      <trkpt lat="44.85175" lon="-0.42696">
        <ele>24.05</ele>
        <time>2019-09-08T14:32:55Z</time>
      </trkpt>
      <trkpt lat="44.85182" lon="-0.42699">
        <ele>24.04</ele>
        <time>2019-09-08T14:32:51Z</time>
      </trkpt>
      <trkpt lat="44.85193" lon="-0.42713">
        <ele>24.05</ele>
        <time>2019-09-08T14:32:44Z</time>
      </trkpt>
      <trkpt lat="44.85194" lon="-0.4273">
        <ele>24.04</ele>
        <time>2019-09-08T14:32:35Z</time>
      </trkpt>
      <trkpt lat="44.85193" lon="-0.42722">
        <ele>23.96</ele>
        <time>2019-09-08T14:32:11Z</time>
      </trkpt>
      <trkpt lat="44.85187" lon="-0.4272">
        <ele>23.99</ele>
        <time>2019-09-08T14:31:25Z</time>
      </trkpt>
      <trkpt lat="44.85183" lon="-0.42706">
        <ele>23.82</ele>
        <time>2019-09-08T14:31:13Z</time>
      </trkpt>
      <trkpt lat="44.85182" lon="-0.42719">
        <ele>26.18</ele>
        <time>2019-09-08T14:31:03Z</time>
      </trkpt>
      <trkpt lat="44.85182" lon="-0.42722">
        <ele>27.36</ele>
        <time>2019-09-08T14:31:01Z</time>
      </trkpt>
      <trkpt lat="44.85174" lon="-0.42723">
        <ele>30.72</ele>
        <time>2019-09-08T14:30:50Z</time>
      </trkpt>
      <trkpt lat="44.85171" lon="-0.42724">
        <ele>33.08</ele>
        <time>2019-09-08T14:30:47Z</time>
      </trkpt>
      <trkpt lat="44.85168" lon="-0.42724">
        <ele>33.11</ele>
        <time>2019-09-08T14:30:45Z</time>
      </trkpt>
      <trkpt lat="44.85161" lon="-0.42726">
        <ele>33.14</ele>
        <time>2019-09-08T14:30:41Z</time>
      </trkpt>
      <trkpt lat="44.85157" lon="-0.42737">
        <ele>33.14</ele>
        <time>2019-09-08T14:30:36Z</time>
      </trkpt>
      <trkpt lat="44.85157" lon="-0.42745">
        <ele>33.12</ele>
        <time>2019-09-08T14:30:32Z</time>
      </trkpt>
      <trkpt lat="44.85165" lon="-0.42748">
        <ele>32.36</ele>
        <time>2019-09-08T14:30:27Z</time>
      </trkpt>
      <trkpt lat="44.85171" lon="-0.42746">
        <ele>32.37</ele>
        <time>2019-09-08T14:30:23Z</time>
      </trkpt>
      <trkpt lat="44.85174" lon="-0.4274">
        <ele>30.99</ele>
        <time>2019-09-08T14:30:19Z</time>
      </trkpt>
      <trkpt lat="44.85175" lon="-0.42739">
        <ele>30.97</ele>
        <time>2019-09-08T14:30:13Z</time>
      </trkpt>
      <trkpt lat="44.8518" lon="-0.42739">
        <ele>30.09</ele>
        <time>2019-09-08T14:29:57Z</time>
      </trkpt>
      <trkpt lat="44.85187" lon="-0.42743">
        <ele>28.32</ele>
        <time>2019-09-08T14:29:38Z</time>
      </trkpt>
      <trkpt lat="44.85187" lon="-0.42742">
        <ele>27.54</ele>
        <time>2019-09-08T14:29:36Z</time>
      </trkpt>
      <trkpt lat="44.85199" lon="-0.42744">
        <ele>24.11</ele>
        <time>2019-09-08T14:29:28Z</time>
      </trkpt>
      <trkpt lat="44.85199" lon="-0.42746">
        <ele>24.12</ele>
        <time>2019-09-08T14:29:26Z</time>
      </trkpt>
      <trkpt lat="44.85188" lon="-0.42762">
        <ele>24.22</ele>
        <time>2019-09-08T14:29:14Z</time>
      </trkpt>
      <trkpt lat="44.85169" lon="-0.42773">
        <ele>24.19</ele>
        <time>2019-09-08T14:29:04Z</time>
      </trkpt>
      <trkpt lat="44.85157" lon="-0.4277">
        <ele>24.2</ele>
        <time>2019-09-08T14:28:57Z</time>
      </trkpt>
      <trkpt lat="44.85152" lon="-0.42776">
        <ele>24.2</ele>
        <time>2019-09-08T14:28:53Z</time>
      </trkpt>
      <trkpt lat="44.85147" lon="-0.42781">
        <ele>24.2</ele>
        <time>2019-09-08T14:28:49Z</time>
      </trkpt>
      <trkpt lat="44.8514" lon="-0.42779">
        <ele>24.09</ele>
        <time>2019-09-08T14:28:42Z</time>
      </trkpt>
      <trkpt lat="44.85136" lon="-0.42783">
        <ele>23.88</ele>
        <time>2019-09-08T14:28:38Z</time>
      </trkpt>
      <trkpt lat="44.85135" lon="-0.42784">
        <ele>23.92</ele>
        <time>2019-09-08T14:28:36Z</time>
      </trkpt>
      <trkpt lat="44.8513" lon="-0.42778">
        <ele>26.09</ele>
        <time>2019-09-08T14:28:29Z</time>
      </trkpt>
      <trkpt lat="44.8513" lon="-0.42768">
        <ele>28.18</ele>
        <time>2019-09-08T14:28:26Z</time>
      </trkpt>
      <trkpt lat="44.8513" lon="-0.4276">
        <ele>29.46</ele>
        <time>2019-09-08T14:28:24Z</time>
      </trkpt>
      <trkpt lat="44.8513" lon="-0.42757">
        <ele>29.49</ele>
        <time>2019-09-08T14:28:23Z</time>
      </trkpt>
      <trkpt lat="44.8513" lon="-0.42746">
        <ele>32.59</ele>
        <time>2019-09-08T14:28:19Z</time>
      </trkpt>
      <trkpt lat="44.85134" lon="-0.42738">
        <ele>32.62</ele>
        <time>2019-09-08T14:28:11Z</time>
      </trkpt>
      <trkpt lat="44.85132" lon="-0.42736">
        <ele>32.66</ele>
        <time>2019-09-08T14:28:08Z</time>
      </trkpt>
      <trkpt lat="44.85128" lon="-0.42734">
        <ele>32.61</ele>
        <time>2019-09-08T14:27:56Z</time>
      </trkpt>
      <trkpt lat="44.85125" lon="-0.42739">
        <ele>31.92</ele>
        <time>2019-09-08T14:27:41Z</time>
      </trkpt>
      <trkpt lat="44.85122" lon="-0.42747">
        <ele>30.38</ele>
        <time>2019-09-08T14:27:31Z</time>
      </trkpt>
      <trkpt lat="44.85119" lon="-0.42762">
        <ele>29.54</ele>
        <time>2019-09-08T14:27:25Z</time>
      </trkpt>
      <trkpt lat="44.85121" lon="-0.42775">
        <ele>27.38</ele>
        <time>2019-09-08T14:27:21Z</time>
      </trkpt>
      <trkpt lat="44.85124" lon="-0.42783">
        <ele>24.89</ele>
        <time>2019-09-08T14:27:17Z</time>
      </trkpt>
      <trkpt lat="44.85124" lon="-0.42786">
        <ele>24.86</ele>
        <time>2019-09-08T14:27:15Z</time>
      </trkpt>
      <trkpt lat="44.85115" lon="-0.42795">
        <ele>24.87</ele>
        <time>2019-09-08T14:26:45Z</time>
      </trkpt>
      <trkpt lat="44.85109" lon="-0.42788">
        <ele>25.03</ele>
        <time>2019-09-08T14:26:12Z</time>
      </trkpt>
      <trkpt lat="44.85106" lon="-0.42788">
        <ele>25.06</ele>
        <time>2019-09-08T14:26:08Z</time>
      </trkpt>
      <trkpt lat="44.85099" lon="-0.42782">
        <ele>25.06</ele>
        <time>2019-09-08T14:26:03Z</time>
      </trkpt>
      <trkpt lat="44.85093" lon="-0.42778">
        <ele>25.08</ele>
        <time>2019-09-08T14:26:00Z</time>
      </trkpt>
      <trkpt lat="44.85088" lon="-0.42778">
        <ele>25.08</ele>
        <time>2019-09-08T14:25:57Z</time>
      </trkpt>
      <trkpt lat="44.8508" lon="-0.42774">
        <ele>25.03</ele>
        <time>2019-09-08T14:25:53Z</time>
      </trkpt>
      <trkpt lat="44.85074" lon="-0.42773">
        <ele>25.04</ele>
        <time>2019-09-08T14:25:49Z</time>
      </trkpt>
      <trkpt lat="44.85072" lon="-0.4277">
        <ele>25.09</ele>
        <time>2019-09-08T14:25:47Z</time>
      </trkpt>
      <trkpt lat="44.85065" lon="-0.42766">
        <ele>27.75</ele>
        <time>2019-09-08T14:25:43Z</time>
      </trkpt>
      <trkpt lat="44.85061" lon="-0.42761">
        <ele>27.81</ele>
        <time>2019-09-08T14:25:39Z</time>
      </trkpt>
      <trkpt lat="44.85057" lon="-0.42751">
        <ele>27.83</ele>
        <time>2019-09-08T14:25:36Z</time>
      </trkpt>
      <trkpt lat="44.85049" lon="-0.42743">
        <ele>27.81</ele>
        <time>2019-09-08T14:25:31Z</time>
      </trkpt>
      <trkpt lat="44.85047" lon="-0.42745">
        <ele>26.99</ele>
        <time>2019-09-08T14:25:30Z</time>
      </trkpt>
      <trkpt lat="44.85041" lon="-0.42785">
        <ele>25.97</ele>
        <time>2019-09-08T14:25:18Z</time>
      </trkpt>
      <trkpt lat="44.85027" lon="-0.42807">
        <ele>26</ele>
        <time>2019-09-08T14:25:08Z</time>
      </trkpt>
      <trkpt lat="44.84997" lon="-0.42842">
        <ele>26.04</ele>
        <time>2019-09-08T14:24:53Z</time>
      </trkpt>
      <trkpt lat="44.84969" lon="-0.42874">
        <ele>25.92</ele>
        <time>2019-09-08T14:24:37Z</time>
      </trkpt>
      <trkpt lat="44.84952" lon="-0.42899">
        <ele>25.92</ele>
        <time>2019-09-08T14:24:22Z</time>
      </trkpt>
      <trkpt lat="44.84945" lon="-0.42908">
        <ele>25.94</ele>
        <time>2019-09-08T14:24:09Z</time>
      </trkpt>
      <trkpt lat="44.84942" lon="-0.42911">
        <ele>47.9</ele>
        <time>2021-06-06T14:57:29Z</time>
      </trkpt>
      <trkpt lat="44.84945" lon="-0.42924">
        <ele>47.8</ele>
        <time>2021-06-06T14:57:25Z</time>
      </trkpt>
      <trkpt lat="44.84947" lon="-0.42937">
        <ele>47.6</ele>
        <time>2021-06-06T14:57:21Z</time>
      </trkpt>
      <trkpt lat="44.8495" lon="-0.42953">
        <ele>47.4</ele>
        <time>2021-06-06T14:57:17Z</time>
      </trkpt>
      <trkpt lat="44.84953" lon="-0.42967">
        <ele>47.1</ele>
        <time>2021-06-06T14:57:12Z</time>
      </trkpt>
      <trkpt lat="44.84961" lon="-0.42974">
        <ele>46.7</ele>
        <time>2021-06-06T14:57:06Z</time>
      </trkpt>
      <trkpt lat="44.84971" lon="-0.4297">
        <ele>46.7</ele>
        <time>2021-06-06T14:57:00Z</time>
      </trkpt>
      <trkpt lat="44.84975" lon="-0.42959">
        <ele>46.9</ele>
        <time>2021-06-06T14:56:45Z</time>
      </trkpt>
      <trkpt lat="44.84979" lon="-0.42955">
        <ele>46.4</ele>
        <time>2021-06-06T14:56:36Z</time>
      </trkpt>
      <trkpt lat="44.84988" lon="-0.42949">
        <ele>46.1</ele>
        <time>2021-06-06T14:56:30Z</time>
      </trkpt>
      <trkpt lat="44.84997" lon="-0.42942">
        <ele>46.1</ele>
        <time>2021-06-06T14:56:26Z</time>
      </trkpt>
      <trkpt lat="44.85007" lon="-0.42934">
        <ele>46.1</ele>
        <time>2021-06-06T14:56:22Z</time>
      </trkpt>
      <trkpt lat="44.85017" lon="-0.42926">
        <ele>46.1</ele>
        <time>2021-06-06T14:56:18Z</time>
      </trkpt>
      <trkpt lat="44.85027" lon="-0.42918">
        <ele>46.1</ele>
        <time>2021-06-06T14:56:14Z</time>
      </trkpt>
      <trkpt lat="44.85037" lon="-0.4291">
        <ele>46.1</ele>
        <time>2021-06-06T14:56:10Z</time>
      </trkpt>
      <trkpt lat="44.85046" lon="-0.42904">
        <ele>46</ele>
        <time>2021-06-06T14:56:07Z</time>
      </trkpt>
      <trkpt lat="44.85057" lon="-0.42898">
        <ele>46.1</ele>
        <time>2021-06-06T14:56:03Z</time>
      </trkpt>
      <trkpt lat="44.85066" lon="-0.42893">
        <ele>46</ele>
        <time>2021-06-06T14:56:00Z</time>
      </trkpt>
      <trkpt lat="44.85076" lon="-0.42888">
        <ele>45.8</ele>
        <time>2021-06-06T14:55:57Z</time>
      </trkpt>
      <trkpt lat="44.85085" lon="-0.42886">
        <ele>45.7</ele>
        <time>2021-06-06T14:55:54Z</time>
      </trkpt>
      <trkpt lat="44.85097" lon="-0.42883">
        <ele>45.4</ele>
        <time>2021-06-06T14:55:50Z</time>
      </trkpt>
      <trkpt lat="44.85107" lon="-0.4288">
        <ele>45.2</ele>
        <time>2021-06-06T14:55:46Z</time>
      </trkpt>
      <trkpt lat="44.85118" lon="-0.42878">
        <ele>45</ele>
        <time>2021-06-06T14:55:42Z</time>
      </trkpt>
      <trkpt lat="44.85127" lon="-0.42876">
        <ele>45</ele>
        <time>2021-06-06T14:55:38Z</time>
      </trkpt>
      <trkpt lat="44.85139" lon="-0.42875">
        <ele>44.8</ele>
        <time>2021-06-06T14:55:33Z</time>
      </trkpt>
      <trkpt lat="44.85149" lon="-0.42873">
        <ele>44.7</ele>
        <time>2021-06-06T14:55:29Z</time>
      </trkpt>
      <trkpt lat="44.85158" lon="-0.42872">
        <ele>44.6</ele>
        <time>2021-06-06T14:55:25Z</time>
      </trkpt>
      <trkpt lat="44.85169" lon="-0.42867">
        <ele>44.6</ele>
        <time>2021-06-06T14:55:20Z</time>
      </trkpt>
      <trkpt lat="44.85178" lon="-0.42865">
        <ele>44.7</ele>
        <time>2021-06-06T14:55:08Z</time>
      </trkpt>
      <trkpt lat="44.85179" lon="-0.42863">
        <ele>44.6</ele>
        <time>2021-06-06T14:55:02Z</time>
      </trkpt>
      <trkpt lat="44.85188" lon="-0.42858">
        <ele>45.1</ele>
        <time>2021-06-06T14:54:37Z</time>
      </trkpt>
      <trkpt lat="44.85187" lon="-0.42858">
        <ele>45.2</ele>
        <time>2021-06-06T14:54:35Z</time>
      </trkpt>
      <trkpt lat="44.85194" lon="-0.4285">
        <ele>45.4</ele>
        <time>2021-06-06T14:54:25Z</time>
      </trkpt>
      <trkpt lat="44.85202" lon="-0.4284">
        <ele>45.6</ele>
        <time>2021-06-06T14:54:21Z</time>
      </trkpt>
      <trkpt lat="44.85211" lon="-0.42832">
        <ele>45.9</ele>
        <time>2021-06-06T14:54:18Z</time>
      </trkpt>
      <trkpt lat="44.85221" lon="-0.42821">
        <ele>46.2</ele>
        <time>2021-06-06T14:54:15Z</time>
      </trkpt>
      <trkpt lat="44.85228" lon="-0.42807">
        <ele>46.6</ele>
        <time>2021-06-06T14:54:12Z</time>
      </trkpt>
      <trkpt lat="44.85231" lon="-0.42789">
        <ele>47</ele>
        <time>2021-06-06T14:54:09Z</time>
      </trkpt>
      <trkpt lat="44.85232" lon="-0.42776">
        <ele>47.3</ele>
        <time>2021-06-06T14:54:07Z</time>
      </trkpt>
      <trkpt lat="44.85226" lon="-0.42764">
        <ele>47.7</ele>
        <time>2021-06-06T14:54:05Z</time>
      </trkpt>
      <trkpt lat="44.85222" lon="-0.42752">
        <ele>47.9</ele>
        <time>2021-06-06T14:54:03Z</time>
      </trkpt>
      <trkpt lat="44.85219" lon="-0.42738">
        <ele>48</ele>
        <time>2021-06-06T14:54:01Z</time>
      </trkpt>
      <trkpt lat="44.85217" lon="-0.42726">
        <ele>48</ele>
        <time>2021-06-06T14:53:59Z</time>
      </trkpt>
      <trkpt lat="44.85215" lon="-0.42713">
        <ele>48</ele>
        <time>2021-06-06T14:53:56Z</time>
      </trkpt>
      <trkpt lat="44.85216" lon="-0.42699">
        <ele>47.9</ele>
        <time>2021-06-06T14:53:52Z</time>
      </trkpt>
      <trkpt lat="44.85227" lon="-0.42693">
        <ele>47.8</ele>
        <time>2021-06-06T14:53:48Z</time>
      </trkpt>
      <trkpt lat="44.85238" lon="-0.42697">
        <ele>47.8</ele>
        <time>2021-06-06T14:53:45Z</time>
      </trkpt>
      <trkpt lat="44.85248" lon="-0.42709">
        <ele>47.8</ele>
        <time>2021-06-06T14:53:42Z</time>
      </trkpt>
      <trkpt lat="44.85256" lon="-0.4272">
        <ele>47.9</ele>
        <time>2021-06-06T14:53:38Z</time>
      </trkpt>
      <trkpt lat="44.85262" lon="-0.4273">
        <ele>47.9</ele>
        <time>2021-06-06T14:53:35Z</time>
      </trkpt>
      <trkpt lat="44.85268" lon="-0.4274">
        <ele>48</ele>
        <time>2021-06-06T14:53:32Z</time>
      </trkpt>
      <trkpt lat="44.85275" lon="-0.4275">
        <ele>47.9</ele>
        <time>2021-06-06T14:53:28Z</time>
      </trkpt>
      <trkpt lat="44.85284" lon="-0.42762">
        <ele>47.8</ele>
        <time>2021-06-06T14:53:24Z</time>
      </trkpt>
      <trkpt lat="44.85292" lon="-0.42771">
        <ele>47.5</ele>
        <time>2021-06-06T14:53:19Z</time>
      </trkpt>
      <trkpt lat="44.85297" lon="-0.42783">
        <ele>46.9</ele>
        <time>2021-06-06T14:53:13Z</time>
      </trkpt>
      <trkpt lat="44.85303" lon="-0.42794">
        <ele>46</ele>
        <time>2021-06-06T14:53:07Z</time>
      </trkpt>
      <trkpt lat="44.8531" lon="-0.42805">
        <ele>44.8</ele>
        <time>2021-06-06T14:53:01Z</time>
      </trkpt>
      <trkpt lat="44.85315" lon="-0.42817">
        <ele>43.7</ele>
        <time>2021-06-06T14:52:55Z</time>
      </trkpt>
      <trkpt lat="44.85323" lon="-0.42828">
        <ele>43.4</ele>
        <time>2021-06-06T14:52:50Z</time>
      </trkpt>
      <trkpt lat="44.85333" lon="-0.42833">
        <ele>43.3</ele>
        <time>2021-06-06T14:52:47Z</time>
      </trkpt>
      <trkpt lat="44.85344" lon="-0.42831">
        <ele>43.1</ele>
        <time>2021-06-06T14:52:44Z</time>
      </trkpt>
      <trkpt lat="44.85353" lon="-0.42838">
        <ele>42.7</ele>
        <time>2021-06-06T14:52:39Z</time>
      </trkpt>
      <trkpt lat="44.85363" lon="-0.42833">
        <ele>42.5</ele>
        <time>2021-06-06T14:52:36Z</time>
      </trkpt>
      <trkpt lat="44.85374" lon="-0.42827">
        <ele>42.1</ele>
        <time>2021-06-06T14:52:33Z</time>
      </trkpt>
      <trkpt lat="44.85385" lon="-0.4282">
        <ele>42.1</ele>
        <time>2021-06-06T14:52:30Z</time>
      </trkpt>
      <trkpt lat="44.85396" lon="-0.42812">
        <ele>42.1</ele>
        <time>2021-06-06T14:52:27Z</time>
      </trkpt>
      <trkpt lat="44.85406" lon="-0.42805">
        <ele>42.2</ele>
        <time>2021-06-06T14:52:24Z</time>
      </trkpt>
      <trkpt lat="44.85417" lon="-0.42798">
        <ele>42.3</ele>
        <time>2021-06-06T14:52:21Z</time>
      </trkpt>
      <trkpt lat="44.85428" lon="-0.42798">
        <ele>42.5</ele>
        <time>2021-06-06T14:52:18Z</time>
      </trkpt>
      <trkpt lat="44.8544" lon="-0.42792">
        <ele>42.6</ele>
        <time>2021-06-06T14:52:15Z</time>
      </trkpt>
      <trkpt lat="44.85451" lon="-0.42784">
        <ele>42.7</ele>
        <time>2021-06-06T14:52:12Z</time>
      </trkpt>
      <trkpt lat="44.85461" lon="-0.42776">
        <ele>42.7</ele>
        <time>2021-06-06T14:52:09Z</time>
      </trkpt>
      <trkpt lat="44.8547" lon="-0.42781">
        <ele>42.7</ele>
        <time>2021-06-06T14:52:05Z</time>
      </trkpt>
      <trkpt lat="44.85465" lon="-0.42792">
        <ele>42.8</ele>
        <time>2021-06-06T14:52:02Z</time>
      </trkpt>
      <trkpt lat="44.85463" lon="-0.42807">
        <ele>42.9</ele>
        <time>2021-06-06T14:51:59Z</time>
      </trkpt>
      <trkpt lat="44.85463" lon="-0.42824">
        <ele>42.9</ele>
        <time>2021-06-06T14:51:56Z</time>
      </trkpt>
      <trkpt lat="44.85465" lon="-0.42842">
        <ele>42.8</ele>
        <time>2021-06-06T14:51:53Z</time>
      </trkpt>
      <trkpt lat="44.85467" lon="-0.42854">
        <ele>42.8</ele>
        <time>2021-06-06T14:51:51Z</time>
      </trkpt>
      <trkpt lat="44.85468" lon="-0.42867">
        <ele>42.8</ele>
        <time>2021-06-06T14:51:49Z</time>
      </trkpt>
      <trkpt lat="44.85469" lon="-0.4288">
        <ele>42.8</ele>
        <time>2021-06-06T14:51:47Z</time>
      </trkpt>
      <trkpt lat="44.8547" lon="-0.42898">
        <ele>42.8</ele>
        <time>2021-06-06T14:51:44Z</time>
      </trkpt>
      <trkpt lat="44.85473" lon="-0.42913">
        <ele>42.8</ele>
        <time>2021-06-06T14:51:41Z</time>
      </trkpt>
      <trkpt lat="44.85476" lon="-0.42929">
        <ele>42.9</ele>
        <time>2021-06-06T14:51:38Z</time>
      </trkpt>
      <trkpt lat="44.8548" lon="-0.42943">
        <ele>42.8</ele>
        <time>2021-06-06T14:51:35Z</time>
      </trkpt>
      <trkpt lat="44.85483" lon="-0.42956">
        <ele>42.7</ele>
        <time>2021-06-06T14:51:32Z</time>
      </trkpt>
      <trkpt lat="44.85492" lon="-0.42961">
        <ele>42.4</ele>
        <time>2021-06-06T14:51:28Z</time>
      </trkpt>
      <trkpt lat="44.85501" lon="-0.42967">
        <ele>42.1</ele>
        <time>2021-06-06T14:51:23Z</time>
      </trkpt>
      <trkpt lat="44.85509" lon="-0.42974">
        <ele>41.9</ele>
        <time>2021-06-06T14:51:20Z</time>
      </trkpt>
      <trkpt lat="44.85519" lon="-0.42983">
        <ele>41.8</ele>
        <time>2021-06-06T14:51:17Z</time>
      </trkpt>
      <trkpt lat="44.85531" lon="-0.42992">
        <ele>41.7</ele>
        <time>2021-06-06T14:51:14Z</time>
      </trkpt>
      <trkpt lat="44.85542" lon="-0.43001">
        <ele>41.7</ele>
        <time>2021-06-06T14:51:11Z</time>
      </trkpt>
      <trkpt lat="44.8555" lon="-0.43007">
        <ele>41.7</ele>
        <time>2021-06-06T14:51:09Z</time>
      </trkpt>
      <trkpt lat="44.85562" lon="-0.43015">
        <ele>41.7</ele>
        <time>2021-06-06T14:51:06Z</time>
      </trkpt>
      <trkpt lat="44.85573" lon="-0.43022">
        <ele>41.6</ele>
        <time>2021-06-06T14:51:03Z</time>
      </trkpt>
      <trkpt lat="44.85582" lon="-0.43028">
        <ele>41.4</ele>
        <time>2021-06-06T14:50:59Z</time>
      </trkpt>
      <trkpt lat="44.85589" lon="-0.43018">
        <ele>41.4</ele>
        <time>2021-06-06T14:50:53Z</time>
      </trkpt>
      <trkpt lat="44.85594" lon="-0.43006">
        <ele>42</ele>
        <time>2021-06-06T14:50:42Z</time>
      </trkpt>
      <trkpt lat="44.85602" lon="-0.42998">
        <ele>44.6</ele>
        <time>2021-06-06T14:50:19Z</time>
      </trkpt>
      <trkpt lat="44.85603" lon="-0.42995">
        <ele>45.2</ele>
        <time>2021-06-06T14:50:14Z</time>
      </trkpt>
      <trkpt lat="44.8561" lon="-0.42986">
        <ele>46</ele>
        <time>2021-06-06T14:50:08Z</time>
      </trkpt>
      <trkpt lat="44.85619" lon="-0.42976">
        <ele>46.7</ele>
        <time>2021-06-06T14:50:05Z</time>
      </trkpt>
      <trkpt lat="44.85629" lon="-0.42966">
        <ele>47.5</ele>
        <time>2021-06-06T14:50:02Z</time>
      </trkpt>
      <trkpt lat="44.85638" lon="-0.42953">
        <ele>48.6</ele>
        <time>2021-06-06T14:49:59Z</time>
      </trkpt>
      <trkpt lat="44.85644" lon="-0.42943">
        <ele>49.4</ele>
        <time>2021-06-06T14:49:57Z</time>
      </trkpt>
      <trkpt lat="44.85653" lon="-0.4293">
        <ele>50.9</ele>
        <time>2021-06-06T14:49:54Z</time>
      </trkpt>
      <trkpt lat="44.85659" lon="-0.42921">
        <ele>52</ele>
        <time>2021-06-06T14:49:52Z</time>
      </trkpt>
      <trkpt lat="44.85672" lon="-0.42923">
        <ele>53.9</ele>
        <time>2021-06-06T14:49:49Z</time>
      </trkpt>
      <trkpt lat="44.85678" lon="-0.42938">
        <ele>55.3</ele>
        <time>2021-06-06T14:49:47Z</time>
      </trkpt>
      <trkpt lat="44.85683" lon="-0.42958">
        <ele>56.8</ele>
        <time>2021-06-06T14:49:45Z</time>
      </trkpt>
      <trkpt lat="44.85687" lon="-0.4297">
        <ele>57.7</ele>
        <time>2021-06-06T14:49:44Z</time>
      </trkpt>
      <trkpt lat="44.85691" lon="-0.42983">
        <ele>58.5</ele>
        <time>2021-06-06T14:49:43Z</time>
      </trkpt>
      <trkpt lat="44.85695" lon="-0.42996">
        <ele>59.4</ele>
        <time>2021-06-06T14:49:42Z</time>
      </trkpt>
      <trkpt lat="44.85699" lon="-0.4301">
        <ele>60.3</ele>
        <time>2021-06-06T14:49:41Z</time>
      </trkpt>
      <trkpt lat="44.85703" lon="-0.43024">
        <ele>61.1</ele>
        <time>2021-06-06T14:49:40Z</time>
      </trkpt>
      <trkpt lat="44.85706" lon="-0.43038">
        <ele>61.9</ele>
        <time>2021-06-06T14:49:39Z</time>
      </trkpt>
      <trkpt lat="44.85709" lon="-0.43052">
        <ele>62.6</ele>
        <time>2021-06-06T14:49:38Z</time>
      </trkpt>
      <trkpt lat="44.85712" lon="-0.43066">
        <ele>63.2</ele>
        <time>2021-06-06T14:49:37Z</time>
      </trkpt>
      <trkpt lat="44.85715" lon="-0.4308">
        <ele>63.8</ele>
        <time>2021-06-06T14:49:36Z</time>
      </trkpt>
      <trkpt lat="44.85718" lon="-0.43093">
        <ele>64.3</ele>
        <time>2021-06-06T14:49:35Z</time>
      </trkpt>
      <trkpt lat="44.85722" lon="-0.43105">
        <ele>64.8</ele>
        <time>2021-06-06T14:49:34Z</time>
      </trkpt>
      <trkpt lat="44.85727" lon="-0.43116">
        <ele>65.3</ele>
        <time>2021-06-06T14:49:33Z</time>
      </trkpt>
      <trkpt lat="44.85732" lon="-0.43127">
        <ele>65.8</ele>
        <time>2021-06-06T14:49:32Z</time>
      </trkpt>
      <trkpt lat="44.85741" lon="-0.43148">
        <ele>66.5</ele>
        <time>2021-06-06T14:49:30Z</time>
      </trkpt>
      <trkpt lat="44.8575" lon="-0.43168">
        <ele>67</ele>
        <time>2021-06-06T14:49:28Z</time>
      </trkpt>
      <trkpt lat="44.85758" lon="-0.43181">
        <ele>67.2</ele>
        <time>2021-06-06T14:49:26Z</time>
      </trkpt>
      <trkpt lat="44.85767" lon="-0.43195">
        <ele>67.4</ele>
        <time>2021-06-06T14:49:24Z</time>
      </trkpt>
      <trkpt lat="44.85777" lon="-0.43205">
        <ele>67.6</ele>
        <time>2021-06-06T14:49:22Z</time>
      </trkpt>
      <trkpt lat="44.85788" lon="-0.43213">
        <ele>67.7</ele>
        <time>2021-06-06T14:49:20Z</time>
      </trkpt>
      <trkpt lat="44.85797" lon="-0.43225">
        <ele>67.7</ele>
        <time>2021-06-06T14:49:18Z</time>
      </trkpt>
      <trkpt lat="44.85802" lon="-0.4324">
        <ele>67.7</ele>
        <time>2021-06-06T14:49:16Z</time>
      </trkpt>
      <trkpt lat="44.85804" lon="-0.43254">
        <ele>67.6</ele>
        <time>2021-06-06T14:49:14Z</time>
      </trkpt>
      <trkpt lat="44.85807" lon="-0.43273">
        <ele>67.5</ele>
        <time>2021-06-06T14:49:11Z</time>
      </trkpt>
      <trkpt lat="44.85811" lon="-0.43288">
        <ele>67.4</ele>
        <time>2021-06-06T14:49:08Z</time>
      </trkpt>
      <trkpt lat="44.85812" lon="-0.43302">
        <ele>67.2</ele>
        <time>2021-06-06T14:49:04Z</time>
      </trkpt>
      <trkpt lat="44.85812" lon="-0.43317">
        <ele>70.8</ele>
        <time>2021-06-06T14:47:44Z</time>
      </trkpt>
      <trkpt lat="44.8581" lon="-0.4332">
        <ele>70.4</ele>
        <time>2021-06-06T14:47:35Z</time>
      </trkpt>
      <trkpt lat="44.85816" lon="-0.43331">
        <ele>69.1</ele>
        <time>2021-06-06T14:47:28Z</time>
      </trkpt>
      <trkpt lat="44.8582" lon="-0.43344">
        <ele>67.8</ele>
        <time>2021-06-06T14:47:23Z</time>
      </trkpt>
      <trkpt lat="44.85824" lon="-0.43357">
        <ele>66.6</ele>
        <time>2021-06-06T14:47:18Z</time>
      </trkpt>
      <trkpt lat="44.85828" lon="-0.43369">
        <ele>65.8</ele>
        <time>2021-06-06T14:47:14Z</time>
      </trkpt>
      <trkpt lat="44.85833" lon="-0.43382">
        <ele>64.8</ele>
        <time>2021-06-06T14:47:10Z</time>
      </trkpt>
      <trkpt lat="44.85842" lon="-0.43389">
        <ele>64.2</ele>
        <time>2021-06-06T14:47:07Z</time>
      </trkpt>
      <trkpt lat="44.85853" lon="-0.4339">
        <ele>63.4</ele>
        <time>2021-06-06T14:47:04Z</time>
      </trkpt>
      <trkpt lat="44.85864" lon="-0.43389">
        <ele>62.8</ele>
        <time>2021-06-06T14:47:01Z</time>
      </trkpt>
      <trkpt lat="44.85874" lon="-0.43389">
        <ele>62.3</ele>
        <time>2021-06-06T14:46:58Z</time>
      </trkpt>
      <trkpt lat="44.85885" lon="-0.43391">
        <ele>61.8</ele>
        <time>2021-06-06T14:46:55Z</time>
      </trkpt>
      <trkpt lat="44.85896" lon="-0.43391">
        <ele>61.3</ele>
        <time>2021-06-06T14:46:52Z</time>
      </trkpt>
      <trkpt lat="44.85908" lon="-0.43393">
        <ele>60.7</ele>
        <time>2021-06-06T14:46:49Z</time>
      </trkpt>
      <trkpt lat="44.85919" lon="-0.43394">
        <ele>59.9</ele>
        <time>2021-06-06T14:46:46Z</time>
      </trkpt>
      <trkpt lat="44.85931" lon="-0.43393">
        <ele>59.2</ele>
        <time>2021-06-06T14:46:43Z</time>
      </trkpt>
      <trkpt lat="44.85943" lon="-0.4339">
        <ele>58.4</ele>
        <time>2021-06-06T14:46:40Z</time>
      </trkpt>
      <trkpt lat="44.85955" lon="-0.43384">
        <ele>57.7</ele>
        <time>2021-06-06T14:46:37Z</time>
      </trkpt>
      <trkpt lat="44.85963" lon="-0.43378">
        <ele>57.3</ele>
        <time>2021-06-06T14:46:35Z</time>
      </trkpt>
      <trkpt lat="44.85971" lon="-0.43372">
        <ele>57</ele>
        <time>2021-06-06T14:46:33Z</time>
      </trkpt>
      <trkpt lat="44.85983" lon="-0.43361">
        <ele>56.8</ele>
        <time>2021-06-06T14:46:30Z</time>
      </trkpt>
      <trkpt lat="44.85995" lon="-0.43354">
        <ele>56.8</ele>
        <time>2021-06-06T14:46:27Z</time>
      </trkpt>
      <trkpt lat="44.86004" lon="-0.43353">
        <ele>56.9</ele>
        <time>2021-06-06T14:46:25Z</time>
      </trkpt>
      <trkpt lat="44.86014" lon="-0.43354">
        <ele>57.2</ele>
        <time>2021-06-06T14:46:23Z</time>
      </trkpt>
      <trkpt lat="44.86023" lon="-0.43355">
        <ele>57.6</ele>
        <time>2021-06-06T14:46:21Z</time>
      </trkpt>
      <trkpt lat="44.86033" lon="-0.43357">
        <ele>58.3</ele>
        <time>2021-06-06T14:46:19Z</time>
      </trkpt>
      <trkpt lat="44.86045" lon="-0.43359">
        <ele>59.2</ele>
        <time>2021-06-06T14:46:17Z</time>
      </trkpt>
      <trkpt lat="44.86059" lon="-0.43359">
        <ele>60.3</ele>
        <time>2021-06-06T14:46:15Z</time>
      </trkpt>
      <trkpt lat="44.86074" lon="-0.43359">
        <ele>61.7</ele>
        <time>2021-06-06T14:46:13Z</time>
      </trkpt>
      <trkpt lat="44.86089" lon="-0.43356">
        <ele>63.2</ele>
        <time>2021-06-06T14:46:11Z</time>
      </trkpt>
      <trkpt lat="44.86104" lon="-0.43351">
        <ele>64.9</ele>
        <time>2021-06-06T14:46:09Z</time>
      </trkpt>
      <trkpt lat="44.86119" lon="-0.43345">
        <ele>66.4</ele>
        <time>2021-06-06T14:46:07Z</time>
      </trkpt>
      <trkpt lat="44.86134" lon="-0.43339">
        <ele>67.7</ele>
        <time>2021-06-06T14:46:05Z</time>
      </trkpt>
      <trkpt lat="44.8615" lon="-0.43333">
        <ele>68.9</ele>
        <time>2021-06-06T14:46:03Z</time>
      </trkpt>
      <trkpt lat="44.86166" lon="-0.43327">
        <ele>70</ele>
        <time>2021-06-06T14:46:01Z</time>
      </trkpt>
      <trkpt lat="44.8618" lon="-0.43321">
        <ele>70.7</ele>
        <time>2021-06-06T14:45:59Z</time>
      </trkpt>
      <trkpt lat="44.86193" lon="-0.43315">
        <ele>71.3</ele>
        <time>2021-06-06T14:45:57Z</time>
      </trkpt>
      <trkpt lat="44.86204" lon="-0.4331">
        <ele>71.6</ele>
        <time>2021-06-06T14:45:55Z</time>
      </trkpt>
      <trkpt lat="44.86216" lon="-0.43305">
        <ele>71.7</ele>
        <time>2021-06-06T14:45:52Z</time>
      </trkpt>
      <trkpt lat="44.86225" lon="-0.43301">
        <ele>71.7</ele>
        <time>2021-06-06T14:45:49Z</time>
      </trkpt>
      <trkpt lat="44.86236" lon="-0.43294">
        <ele>71.5</ele>
        <time>2021-06-06T14:45:45Z</time>
      </trkpt>
      <trkpt lat="44.86245" lon="-0.43284">
        <ele>71.3</ele>
        <time>2021-06-06T14:45:41Z</time>
      </trkpt>
      <trkpt lat="44.86253" lon="-0.43272">
        <ele>71.2</ele>
        <time>2021-06-06T14:45:37Z</time>
      </trkpt>
      <trkpt lat="44.86262" lon="-0.43261">
        <ele>71.1</ele>
        <time>2021-06-06T14:45:33Z</time>
      </trkpt>
      <trkpt lat="44.86271" lon="-0.43251">
        <ele>71</ele>
        <time>2021-06-06T14:45:29Z</time>
      </trkpt>
      <trkpt lat="44.8628" lon="-0.43239">
        <ele>71</ele>
        <time>2021-06-06T14:45:25Z</time>
      </trkpt>
      <trkpt lat="44.86289" lon="-0.43231">
        <ele>71</ele>
        <time>2021-06-06T14:45:22Z</time>
      </trkpt>
      <trkpt lat="44.86296" lon="-0.43222">
        <ele>70.9</ele>
        <time>2021-06-06T14:45:19Z</time>
      </trkpt>
      <trkpt lat="44.86308" lon="-0.43211">
        <ele>70.7</ele>
        <time>2021-06-06T14:45:16Z</time>
      </trkpt>
      <trkpt lat="44.86315" lon="-0.43201">
        <ele>70.5</ele>
        <time>2021-06-06T14:45:13Z</time>
      </trkpt>
      <trkpt lat="44.86324" lon="-0.43191">
        <ele>70.4</ele>
        <time>2021-06-06T14:45:09Z</time>
      </trkpt>
      <trkpt lat="44.86329" lon="-0.4318">
        <ele>70.4</ele>
        <time>2021-06-06T14:45:04Z</time>
      </trkpt>
      <trkpt lat="44.86334" lon="-0.4317">
        <ele>70.4</ele>
        <time>2021-06-06T14:44:59Z</time>
      </trkpt>
      <trkpt lat="44.86342" lon="-0.43159">
        <ele>70.5</ele>
        <time>2021-06-06T14:44:55Z</time>
      </trkpt>
      <trkpt lat="44.86344" lon="-0.43147">
        <ele>70.3</ele>
        <time>2021-06-06T14:44:49Z</time>
      </trkpt>
      <trkpt lat="44.86349" lon="-0.43136">
        <ele>69.6</ele>
        <time>2021-06-06T14:44:43Z</time>
      </trkpt>
      <trkpt lat="44.86353" lon="-0.43124">
        <ele>68.5</ele>
        <time>2021-06-06T14:44:37Z</time>
      </trkpt>
      <trkpt lat="44.86358" lon="-0.43113">
        <ele>67.1</ele>
        <time>2021-06-06T14:44:31Z</time>
      </trkpt>
      <trkpt lat="44.86364" lon="-0.43101">
        <ele>65.7</ele>
        <time>2021-06-06T14:44:25Z</time>
      </trkpt>
      <trkpt lat="44.86373" lon="-0.4309">
        <ele>64.5</ele>
        <time>2021-06-06T14:44:18Z</time>
      </trkpt>
      <trkpt lat="44.86379" lon="-0.4308">
        <ele>64.3</ele>
        <time>2021-06-06T14:44:12Z</time>
      </trkpt>
      <trkpt lat="44.86384" lon="-0.4307">
        <ele>65.4</ele>
        <time>2021-06-06T14:44:07Z</time>
      </trkpt>
      <trkpt lat="44.86392" lon="-0.43061">
        <ele>66.2</ele>
        <time>2021-06-06T14:44:05Z</time>
      </trkpt>
      <trkpt lat="44.86399" lon="-0.43052">
        <ele>67.1</ele>
        <time>2021-06-06T14:44:03Z</time>
      </trkpt>
      <trkpt lat="44.86408" lon="-0.43044">
        <ele>68</ele>
        <time>2021-06-06T14:44:01Z</time>
      </trkpt>
      <trkpt lat="44.86417" lon="-0.43036">
        <ele>68.9</ele>
        <time>2021-06-06T14:43:59Z</time>
      </trkpt>
      <trkpt lat="44.86427" lon="-0.43032">
        <ele>69.7</ele>
        <time>2021-06-06T14:43:57Z</time>
      </trkpt>
      <trkpt lat="44.86441" lon="-0.43032">
        <ele>71</ele>
        <time>2021-06-06T14:43:54Z</time>
      </trkpt>
      <trkpt lat="44.86452" lon="-0.43035">
        <ele>72.1</ele>
        <time>2021-06-06T14:43:51Z</time>
      </trkpt>
      <trkpt lat="44.86464" lon="-0.43037">
        <ele>73.1</ele>
        <time>2021-06-06T14:43:48Z</time>
      </trkpt>
      <trkpt lat="44.86477" lon="-0.43038">
        <ele>73.9</ele>
        <time>2021-06-06T14:43:45Z</time>
      </trkpt>
      <trkpt lat="44.8649" lon="-0.43034">
        <ele>74.4</ele>
        <time>2021-06-06T14:43:42Z</time>
      </trkpt>
      <trkpt lat="44.86499" lon="-0.43032">
        <ele>74.6</ele>
        <time>2021-06-06T14:43:40Z</time>
      </trkpt>
      <trkpt lat="44.86509" lon="-0.43029">
        <ele>74.8</ele>
        <time>2021-06-06T14:43:38Z</time>
      </trkpt>
      <trkpt lat="44.86522" lon="-0.43023">
        <ele>75.1</ele>
        <time>2021-06-06T14:43:35Z</time>
      </trkpt>
      <trkpt lat="44.86533" lon="-0.43015">
        <ele>75.4</ele>
        <time>2021-06-06T14:43:32Z</time>
      </trkpt>
      <trkpt lat="44.86545" lon="-0.43008">
        <ele>75.7</ele>
        <time>2021-06-06T14:43:29Z</time>
      </trkpt>
      <trkpt lat="44.86556" lon="-0.43004">
        <ele>76</ele>
        <time>2021-06-06T14:43:26Z</time>
      </trkpt>
      <trkpt lat="44.86567" lon="-0.43001">
        <ele>76.3</ele>
        <time>2021-06-06T14:43:23Z</time>
      </trkpt>
      <trkpt lat="44.86579" lon="-0.42997">
        <ele>76.5</ele>
        <time>2021-06-06T14:43:20Z</time>
      </trkpt>
      <trkpt lat="44.86591" lon="-0.42993">
        <ele>76.7</ele>
        <time>2021-06-06T14:43:17Z</time>
      </trkpt>
      <trkpt lat="44.86603" lon="-0.42989">
        <ele>77</ele>
        <time>2021-06-06T14:43:14Z</time>
      </trkpt>
      <trkpt lat="44.86614" lon="-0.42985">
        <ele>76.9</ele>
        <time>2021-06-06T14:43:11Z</time>
      </trkpt>
      <trkpt lat="44.86625" lon="-0.42981">
        <ele>76.7</ele>
        <time>2021-06-06T14:43:08Z</time>
      </trkpt>
      <trkpt lat="44.86634" lon="-0.42978">
        <ele>76.4</ele>
        <time>2021-06-06T14:43:05Z</time>
      </trkpt>
      <trkpt lat="44.86643" lon="-0.42971">
        <ele>75.9</ele>
        <time>2021-06-06T14:43:01Z</time>
      </trkpt>
      <trkpt lat="44.86642" lon="-0.42957">
        <ele>75.4</ele>
        <time>2021-06-06T14:42:57Z</time>
      </trkpt>
      <trkpt lat="44.86638" lon="-0.42942">
        <ele>75</ele>
        <time>2021-06-06T14:42:53Z</time>
      </trkpt>
      <trkpt lat="44.86635" lon="-0.42928">
        <ele>74.8</ele>
        <time>2021-06-06T14:42:50Z</time>
      </trkpt>
      <trkpt lat="44.86631" lon="-0.42914">
        <ele>74.6</ele>
        <time>2021-06-06T14:42:47Z</time>
      </trkpt>
      <trkpt lat="44.86628" lon="-0.429">
        <ele>74.4</ele>
        <time>2021-06-06T14:42:44Z</time>
      </trkpt>
      <trkpt lat="44.86624" lon="-0.42884">
        <ele>74.2</ele>
        <time>2021-06-06T14:42:41Z</time>
      </trkpt>
      <trkpt lat="44.86621" lon="-0.42869">
        <ele>73.9</ele>
        <time>2021-06-06T14:42:38Z</time>
      </trkpt>
      <trkpt lat="44.86617" lon="-0.42853">
        <ele>73.7</ele>
        <time>2021-06-06T14:42:35Z</time>
      </trkpt>
      <trkpt lat="44.86614" lon="-0.42838">
        <ele>73.6</ele>
        <time>2021-06-06T14:42:32Z</time>
      </trkpt>
      <trkpt lat="44.8661" lon="-0.42822">
        <ele>73.6</ele>
        <time>2021-06-06T14:42:29Z</time>
      </trkpt>
      <trkpt lat="44.86607" lon="-0.42807">
        <ele>73.7</ele>
        <time>2021-06-06T14:42:26Z</time>
      </trkpt>
      <trkpt lat="44.86604" lon="-0.42792">
        <ele>73.7</ele>
        <time>2021-06-06T14:42:23Z</time>
      </trkpt>
      <trkpt lat="44.86601" lon="-0.42777">
        <ele>73.7</ele>
        <time>2021-06-06T14:42:20Z</time>
      </trkpt>
      <trkpt lat="44.86598" lon="-0.4276">
        <ele>73.8</ele>
        <time>2021-06-06T14:42:17Z</time>
      </trkpt>
      <trkpt lat="44.86594" lon="-0.42745">
        <ele>74</ele>
        <time>2021-06-06T14:42:14Z</time>
      </trkpt>
      <trkpt lat="44.86591" lon="-0.42729">
        <ele>74</ele>
        <time>2021-06-06T14:42:11Z</time>
      </trkpt>
      <trkpt lat="44.86587" lon="-0.42713">
        <ele>74.1</ele>
        <time>2021-06-06T14:42:08Z</time>
      </trkpt>
      <trkpt lat="44.86584" lon="-0.42697">
        <ele>74.2</ele>
        <time>2021-06-06T14:42:05Z</time>
      </trkpt>
      <trkpt lat="44.86581" lon="-0.4268">
        <ele>74.1</ele>
        <time>2021-06-06T14:42:02Z</time>
      </trkpt>
      <trkpt lat="44.86577" lon="-0.42666">
        <ele>74.1</ele>
        <time>2021-06-06T14:41:59Z</time>
      </trkpt>
      <trkpt lat="44.86573" lon="-0.42652">
        <ele>73.9</ele>
        <time>2021-06-06T14:41:56Z</time>
      </trkpt>
      <trkpt lat="44.8657" lon="-0.42637">
        <ele>73.8</ele>
        <time>2021-06-06T14:41:53Z</time>
      </trkpt>
      <trkpt lat="44.86566" lon="-0.42622">
        <ele>73.8</ele>
        <time>2021-06-06T14:41:50Z</time>
      </trkpt>
      <trkpt lat="44.86562" lon="-0.42607">
        <ele>73.7</ele>
        <time>2021-06-06T14:41:47Z</time>
      </trkpt>
      <trkpt lat="44.86559" lon="-0.42592">
        <ele>73.6</ele>
        <time>2021-06-06T14:41:44Z</time>
      </trkpt>
      <trkpt lat="44.86556" lon="-0.42577">
        <ele>73.6</ele>
        <time>2021-06-06T14:41:41Z</time>
      </trkpt>
      <trkpt lat="44.86553" lon="-0.42563">
        <ele>73.6</ele>
        <time>2021-06-06T14:41:38Z</time>
      </trkpt>
      <trkpt lat="44.8655" lon="-0.4255">
        <ele>73.7</ele>
        <time>2021-06-06T14:41:35Z</time>
      </trkpt>
      <trkpt lat="44.86547" lon="-0.42537">
        <ele>73.8</ele>
        <time>2021-06-06T14:41:32Z</time>
      </trkpt>
      <trkpt lat="44.86544" lon="-0.42522">
        <ele>73.9</ele>
        <time>2021-06-06T14:41:29Z</time>
      </trkpt>
      <trkpt lat="44.86541" lon="-0.42509">
        <ele>73.9</ele>
        <time>2021-06-06T14:41:26Z</time>
      </trkpt>
      <trkpt lat="44.86538" lon="-0.42496">
        <ele>73.8</ele>
        <time>2021-06-06T14:41:23Z</time>
      </trkpt>
      <trkpt lat="44.86534" lon="-0.4248">
        <ele>73.4</ele>
        <time>2021-06-06T14:41:19Z</time>
      </trkpt>
      <trkpt lat="44.86531" lon="-0.42466">
        <ele>73.2</ele>
        <time>2021-06-06T14:41:16Z</time>
      </trkpt>
      <trkpt lat="44.86529" lon="-0.42453">
        <ele>72.9</ele>
        <time>2021-06-06T14:41:13Z</time>
      </trkpt>
      <trkpt lat="44.86526" lon="-0.4244">
        <ele>72.6</ele>
        <time>2021-06-06T14:41:10Z</time>
      </trkpt>
      <trkpt lat="44.86523" lon="-0.42426">
        <ele>72.2</ele>
        <time>2021-06-06T14:41:06Z</time>
      </trkpt>
      <trkpt lat="44.86519" lon="-0.4241">
        <ele>72</ele>
        <time>2021-06-06T14:41:02Z</time>
      </trkpt>
      <trkpt lat="44.86517" lon="-0.42397">
        <ele>72</ele>
        <time>2021-06-06T14:40:59Z</time>
      </trkpt>
      <trkpt lat="44.86514" lon="-0.42384">
        <ele>72.2</ele>
        <time>2021-06-06T14:40:56Z</time>
      </trkpt>
      <trkpt lat="44.86511" lon="-0.42371">
        <ele>72.6</ele>
        <time>2021-06-06T14:40:53Z</time>
      </trkpt>
      <trkpt lat="44.86517" lon="-0.42361">
        <ele>73.1</ele>
        <time>2021-06-06T14:40:50Z</time>
      </trkpt>
      <trkpt lat="44.86528" lon="-0.42353">
        <ele>73.7</ele>
        <time>2021-06-06T14:40:47Z</time>
      </trkpt>
      <trkpt lat="44.86536" lon="-0.42346">
        <ele>74</ele>
        <time>2021-06-06T14:40:45Z</time>
      </trkpt>
      <trkpt lat="44.86544" lon="-0.42339">
        <ele>74.2</ele>
        <time>2021-06-06T14:40:43Z</time>
      </trkpt>
      <trkpt lat="44.86556" lon="-0.42329">
        <ele>74.5</ele>
        <time>2021-06-06T14:40:40Z</time>
      </trkpt>
      <trkpt lat="44.86566" lon="-0.4232">
        <ele>74.9</ele>
        <time>2021-06-06T14:40:37Z</time>
      </trkpt>
      <trkpt lat="44.86578" lon="-0.42311">
        <ele>75.1</ele>
        <time>2021-06-06T14:40:34Z</time>
      </trkpt>
      <trkpt lat="44.86587" lon="-0.42302">
        <ele>75.2</ele>
        <time>2021-06-06T14:40:31Z</time>
      </trkpt>
      <trkpt lat="44.86594" lon="-0.42294">
        <ele>75.3</ele>
        <time>2021-06-06T14:40:28Z</time>
      </trkpt>
      <trkpt lat="44.86602" lon="-0.42286">
        <ele>75.3</ele>
        <time>2021-06-06T14:40:25Z</time>
      </trkpt>
      <trkpt lat="44.86611" lon="-0.4228">
        <ele>75.3</ele>
        <time>2021-06-06T14:40:22Z</time>
      </trkpt>
      <trkpt lat="44.8662" lon="-0.42273">
        <ele>75.3</ele>
        <time>2021-06-06T14:40:19Z</time>
      </trkpt>
      <trkpt lat="44.86629" lon="-0.42266">
        <ele>75.3</ele>
        <time>2021-06-06T14:40:16Z</time>
      </trkpt>
      <trkpt lat="44.86638" lon="-0.42259">
        <ele>75.4</ele>
        <time>2021-06-06T14:40:13Z</time>
      </trkpt>
      <trkpt lat="44.86646" lon="-0.42252">
        <ele>75.4</ele>
        <time>2021-06-06T14:40:10Z</time>
      </trkpt>
      <trkpt lat="44.86657" lon="-0.42252">
        <ele>75.6</ele>
        <time>2021-06-06T14:40:06Z</time>
      </trkpt>
      <trkpt lat="44.86668" lon="-0.42248">
        <ele>75.6</ele>
        <time>2021-06-06T14:40:03Z</time>
      </trkpt>
      <trkpt lat="44.86668" lon="-0.42231">
        <ele>75.5</ele>
        <time>2021-06-06T14:39:57Z</time>
      </trkpt>
      <trkpt lat="44.86664" lon="-0.42217">
        <ele>75.1</ele>
        <time>2021-06-06T14:39:52Z</time>
      </trkpt>
      <trkpt lat="44.86663" lon="-0.42203">
        <ele>74.7</ele>
        <time>2021-06-06T14:39:47Z</time>
      </trkpt>
      <trkpt lat="44.86661" lon="-0.42189">
        <ele>74.3</ele>
        <time>2021-06-06T14:39:42Z</time>
      </trkpt>
      <trkpt lat="44.86657" lon="-0.42177">
        <ele>73.8</ele>
        <time>2021-06-06T14:39:37Z</time>
      </trkpt>
      <trkpt lat="44.86651" lon="-0.42165">
        <ele>73.3</ele>
        <time>2021-06-06T14:39:32Z</time>
      </trkpt>
      <trkpt lat="44.86645" lon="-0.42156">
        <ele>73.1</ele>
        <time>2021-06-06T14:39:27Z</time>
      </trkpt>
      <trkpt lat="44.86642" lon="-0.42141">
        <ele>72.8</ele>
        <time>2021-06-06T14:39:22Z</time>
      </trkpt>
      <trkpt lat="44.8664" lon="-0.42128">
        <ele>72.6</ele>
        <time>2021-06-06T14:39:18Z</time>
      </trkpt>
      <trkpt lat="44.86637" lon="-0.42113">
        <ele>72.4</ele>
        <time>2021-06-06T14:39:14Z</time>
      </trkpt>
      <trkpt lat="44.86634" lon="-0.42099">
        <ele>72.1</ele>
        <time>2021-06-06T14:39:10Z</time>
      </trkpt>
      <trkpt lat="44.86631" lon="-0.42084">
        <ele>71.8</ele>
        <time>2021-06-06T14:39:06Z</time>
      </trkpt>
      <trkpt lat="44.86628" lon="-0.4207">
        <ele>71.5</ele>
        <time>2021-06-06T14:39:02Z</time>
      </trkpt>
      <trkpt lat="44.86624" lon="-0.42057">
        <ele>71</ele>
        <time>2021-06-06T14:38:58Z</time>
      </trkpt>
      <trkpt lat="44.86621" lon="-0.42044">
        <ele>70.1</ele>
        <time>2021-06-06T14:38:53Z</time>
      </trkpt>
      <trkpt lat="44.8663" lon="-0.42039">
        <ele>69.3</ele>
        <time>2021-06-06T14:38:49Z</time>
      </trkpt>
      <trkpt lat="44.8664" lon="-0.42037">
        <ele>68.6</ele>
        <time>2021-06-06T14:38:46Z</time>
      </trkpt>
      <trkpt lat="44.86652" lon="-0.42036">
        <ele>68.1</ele>
        <time>2021-06-06T14:38:43Z</time>
      </trkpt>
      <trkpt lat="44.86665" lon="-0.42034">
        <ele>67.9</ele>
        <time>2021-06-06T14:38:40Z</time>
      </trkpt>
      <trkpt lat="44.86675" lon="-0.42033">
        <ele>67.9</ele>
        <time>2021-06-06T14:38:38Z</time>
      </trkpt>
      <trkpt lat="44.86684" lon="-0.42033">
        <ele>67.9</ele>
        <time>2021-06-06T14:38:36Z</time>
      </trkpt>
      <trkpt lat="44.86694" lon="-0.42034">
        <ele>68.1</ele>
        <time>2021-06-06T14:38:34Z</time>
      </trkpt>
      <trkpt lat="44.86704" lon="-0.42035">
        <ele>68.3</ele>
        <time>2021-06-06T14:38:32Z</time>
      </trkpt>
      <trkpt lat="44.86714" lon="-0.42037">
        <ele>68.6</ele>
        <time>2021-06-06T14:38:30Z</time>
      </trkpt>
      <trkpt lat="44.86723" lon="-0.42039">
        <ele>68.9</ele>
        <time>2021-06-06T14:38:28Z</time>
      </trkpt>
      <trkpt lat="44.86733" lon="-0.42043">
        <ele>69.3</ele>
        <time>2021-06-06T14:38:26Z</time>
      </trkpt>
      <trkpt lat="44.86743" lon="-0.42046">
        <ele>69.8</ele>
        <time>2021-06-06T14:38:24Z</time>
      </trkpt>
      <trkpt lat="44.86754" lon="-0.42049">
        <ele>70.2</ele>
        <time>2021-06-06T14:38:22Z</time>
      </trkpt>
      <trkpt lat="44.86764" lon="-0.42053">
        <ele>70.7</ele>
        <time>2021-06-06T14:38:20Z</time>
      </trkpt>
      <trkpt lat="44.86775" lon="-0.42056">
        <ele>71.1</ele>
        <time>2021-06-06T14:38:18Z</time>
      </trkpt>
      <trkpt lat="44.86784" lon="-0.42059">
        <ele>71.4</ele>
        <time>2021-06-06T14:38:16Z</time>
      </trkpt>
      <trkpt lat="44.86794" lon="-0.42063">
        <ele>71.7</ele>
        <time>2021-06-06T14:38:14Z</time>
      </trkpt>
      <trkpt lat="44.86803" lon="-0.42066">
        <ele>71.9</ele>
        <time>2021-06-06T14:38:12Z</time>
      </trkpt>
      <trkpt lat="44.86812" lon="-0.42068">
        <ele>72.1</ele>
        <time>2021-06-06T14:38:10Z</time>
      </trkpt>
      <trkpt lat="44.86825" lon="-0.42071">
        <ele>72.4</ele>
        <time>2021-06-06T14:38:07Z</time>
      </trkpt>
      <trkpt lat="44.86837" lon="-0.42073">
        <ele>72.5</ele>
        <time>2021-06-06T14:38:04Z</time>
      </trkpt>
      <trkpt lat="44.86848" lon="-0.42073">
        <ele>72.5</ele>
        <time>2021-06-06T14:38:01Z</time>
      </trkpt>
      <trkpt lat="44.86858" lon="-0.42071">
        <ele>72.5</ele>
        <time>2021-06-06T14:37:58Z</time>
      </trkpt>
      <trkpt lat="44.86869" lon="-0.42067">
        <ele>72.3</ele>
        <time>2021-06-06T14:37:54Z</time>
      </trkpt>
      <trkpt lat="44.86875" lon="-0.42053">
        <ele>71.8</ele>
        <time>2021-06-06T14:37:49Z</time>
      </trkpt>
      <trkpt lat="44.86877" lon="-0.42064">
        <ele>62.7</ele>
        <time>2013-06-23T07:29:05.000Z</time>
      </trkpt>
      <trkpt lat="44.86893" lon="-0.42052">
        <ele>63.1</ele>
        <time>2013-06-23T07:29:01.000Z</time>
      </trkpt>
      <trkpt lat="44.86907" lon="-0.42041">
        <ele>63.3</ele>
        <time>2013-06-23T07:28:57.000Z</time>
      </trkpt>
      <trkpt lat="44.8692" lon="-0.42031">
        <ele>63.1</ele>
        <time>2013-06-23T07:28:53.000Z</time>
      </trkpt>
      <trkpt lat="44.86932" lon="-0.4202">
        <ele>63</ele>
        <time>2013-06-23T07:28:49.000Z</time>
      </trkpt>
      <trkpt lat="44.86947" lon="-0.42008">
        <ele>62.9</ele>
        <time>2013-06-23T07:28:44.000Z</time>
      </trkpt>
      <trkpt lat="44.86961" lon="-0.41996">
        <ele>62.4</ele>
        <time>2013-06-23T07:28:39.000Z</time>
      </trkpt>
      <trkpt lat="44.86987" lon="-0.41973">
        <ele>61.5</ele>
        <time>2013-06-23T07:28:28.000Z</time>
      </trkpt>
      <trkpt lat="44.8699" lon="-0.41971">
        <ele>61.4</ele>
        <time>2013-06-23T07:28:27.000Z</time>
      </trkpt>
      <trkpt lat="44.87003" lon="-0.41959">
        <ele>60.8</ele>
        <time>2013-06-23T07:28:20.000Z</time>
      </trkpt>
      <trkpt lat="44.87026" lon="-0.41965">
        <ele>59.1</ele>
        <time>2013-06-23T07:27:22.000Z</time>
      </trkpt>
      <trkpt lat="44.87027" lon="-0.41968">
        <ele>59.1</ele>
        <time>2013-06-23T07:27:21.000Z</time>
      </trkpt>
      <trkpt lat="44.87035" lon="-0.4199">
        <ele>58</ele>
        <time>2013-06-23T07:27:11.000Z</time>
      </trkpt>
      <trkpt lat="44.87042" lon="-0.42012">
        <ele>56.8</ele>
        <time>2013-06-23T07:27:01.000Z</time>
      </trkpt>
      <trkpt lat="44.87057" lon="-0.42065">
        <ele>51.6</ele>
        <time>2013-06-23T07:26:17.000Z</time>
      </trkpt>
      <trkpt lat="44.87058" lon="-0.42066">
        <ele>51.4</ele>
        <time>2013-06-23T07:26:16.000Z</time>
      </trkpt>
      <trkpt lat="44.87065" lon="-0.42089">
        <ele>48.1</ele>
        <time>2013-06-23T07:25:50.000Z</time>
      </trkpt>
      <trkpt lat="44.87072" lon="-0.42111">
        <ele>45</ele>
        <time>2013-06-23T07:25:36.000Z</time>
      </trkpt>
      <trkpt lat="44.87083" lon="-0.42128">
        <ele>43.1</ele>
        <time>2013-06-23T07:25:23.000Z</time>
      </trkpt>
      <trkpt lat="44.87098" lon="-0.42121">
        <ele>42.7</ele>
        <time>2013-06-23T07:25:15.000Z</time>
      </trkpt>
      <trkpt lat="44.87131" lon="-0.42113">
        <ele>40.1</ele>
        <time>2013-06-23T07:24:54.000Z</time>
      </trkpt>
      <trkpt lat="44.87132" lon="-0.42113">
        <ele>39.9</ele>
        <time>2013-06-23T07:24:53.000Z</time>
      </trkpt>
      <trkpt lat="44.87149" lon="-0.42117">
        <ele>38.4</ele>
        <time>2013-06-23T07:24:43.000Z</time>
      </trkpt>
      <trkpt lat="44.87166" lon="-0.42119">
        <ele>37.7</ele>
        <time>2013-06-23T07:24:33.000Z</time>
      </trkpt>
      <trkpt lat="44.87182" lon="-0.4211">
        <ele>36.9</ele>
        <time>2013-06-23T07:24:21.000Z</time>
      </trkpt>
      <trkpt lat="44.87196" lon="-0.42097">
        <ele>35.9</ele>
        <time>2013-06-23T07:24:11.000Z</time>
      </trkpt>
      <trkpt lat="44.87219" lon="-0.42065">
        <ele>34.9</ele>
        <time>2013-06-23T07:23:53.000Z</time>
      </trkpt>
      <trkpt lat="44.8722" lon="-0.42064">
        <ele>34.8</ele>
        <time>2013-06-23T07:23:52.000Z</time>
      </trkpt>
      <trkpt lat="44.87236" lon="-0.42056">
        <ele>34.5</ele>
        <time>2013-06-23T07:23:44.000Z</time>
      </trkpt>
      <trkpt lat="44.87253" lon="-0.42048">
        <ele>33.9</ele>
        <time>2013-06-23T07:23:36.000Z</time>
      </trkpt>
      <trkpt lat="44.8727" lon="-0.42043">
        <ele>33.3</ele>
        <time>2013-06-23T07:23:29.000Z</time>
      </trkpt>
      <trkpt lat="44.87286" lon="-0.42043">
        <ele>32.7</ele>
        <time>2013-06-23T07:23:23.000Z</time>
      </trkpt>
      <trkpt lat="44.87302" lon="-0.42045">
        <ele>32.1</ele>
        <time>2013-06-23T07:23:17.000Z</time>
      </trkpt>
      <trkpt lat="44.87318" lon="-0.42048">
        <ele>31.6</ele>
        <time>2013-06-23T07:23:11.000Z</time>
      </trkpt>
      <trkpt lat="44.87335" lon="-0.42054">
        <ele>31</ele>
        <time>2013-06-23T07:23:05.000Z</time>
      </trkpt>
      <trkpt lat="44.87346" lon="-0.4207">
        <ele>31.5</ele>
        <time>2013-06-23T07:23:00.000Z</time>
      </trkpt>
      <trkpt lat="44.87352" lon="-0.42091">
        <ele>32.3</ele>
        <time>2013-06-23T07:22:55.000Z</time>
      </trkpt>
      <trkpt lat="44.87359" lon="-0.42131">
        <ele>33.1</ele>
        <time>2013-06-23T07:22:45.000Z</time>
      </trkpt>
      <trkpt lat="44.8736" lon="-0.42134">
        <ele>33.1</ele>
        <time>2013-06-23T07:22:44.000Z</time>
      </trkpt>
      <trkpt lat="44.87365" lon="-0.42156">
        <ele>33.3</ele>
        <time>2013-06-23T07:22:37.000Z</time>
      </trkpt>
      <trkpt lat="44.87369" lon="-0.42178">
        <ele>33.9</ele>
        <time>2013-06-23T07:22:15.000Z</time>
      </trkpt>
      <trkpt lat="44.87369" lon="-0.42203">
        <ele>34.5</ele>
        <time>2013-06-23T07:22:09.000Z</time>
      </trkpt>
      <trkpt lat="44.8737" lon="-0.42227">
        <ele>35.1</ele>
        <time>2013-06-23T07:22:04.000Z</time>
      </trkpt>
      <trkpt lat="44.8737" lon="-0.42248">
        <ele>35.3</ele>
        <time>2013-06-23T07:22:00.000Z</time>
      </trkpt>
      <trkpt lat="44.8737" lon="-0.42272">
        <ele>36.1</ele>
        <time>2013-06-23T07:21:55.000Z</time>
      </trkpt>
      <trkpt lat="44.87371" lon="-0.42297">
        <ele>36.3</ele>
        <time>2013-06-23T07:21:50.000Z</time>
      </trkpt>
      <trkpt lat="44.87369" lon="-0.42338">
        <ele>37.5</ele>
        <time>2013-06-23T07:21:41.000Z</time>
      </trkpt>
      <trkpt lat="44.87369" lon="-0.42342">
        <ele>37.6</ele>
        <time>2013-06-23T07:21:40.000Z</time>
      </trkpt>
      <trkpt lat="44.87361" lon="-0.42387">
        <ele>38.9</ele>
        <time>2013-06-23T07:18:22.000Z</time>
      </trkpt>
      <trkpt lat="44.87361" lon="-0.4239">
        <ele>39</ele>
        <time>2013-06-23T07:18:21.000Z</time>
      </trkpt>
      <trkpt lat="44.87359" lon="-0.42414">
        <ele>40.4</ele>
        <time>2013-06-23T07:18:15.000Z</time>
      </trkpt>
      <trkpt lat="44.87358" lon="-0.42438">
        <ele>41.2</ele>
        <time>2013-06-23T07:18:12.000Z</time>
      </trkpt>
      <trkpt lat="44.87357" lon="-0.42462">
        <ele>42.2</ele>
        <time>2013-06-23T07:18:10.000Z</time>
      </trkpt>
      <trkpt lat="44.87356" lon="-0.42475">
        <ele>42.8</ele>
        <time>2013-06-23T07:18:09.000Z</time>
      </trkpt>
      <trkpt lat="44.87354" lon="-0.42488">
        <ele>43.2</ele>
        <time>2013-06-23T07:18:08.000Z</time>
      </trkpt>
      <trkpt lat="44.87352" lon="-0.425">
        <ele>43.7</ele>
        <time>2013-06-23T07:18:07.000Z</time>
      </trkpt>
      <trkpt lat="44.87345" lon="-0.42521">
        <ele>45</ele>
        <time>2013-06-23T07:18:05.000Z</time>
      </trkpt>
      <trkpt lat="44.87337" lon="-0.42537">
        <ele>46.8</ele>
        <time>2013-06-23T07:18:03.000Z</time>
      </trkpt>
      <trkpt lat="44.87327" lon="-0.42555">
        <ele>48.9</ele>
        <time>2013-06-23T07:18:00.000Z</time>
      </trkpt>
      <trkpt lat="44.87316" lon="-0.42575">
        <ele>50</ele>
        <time>2013-06-23T07:17:55.000Z</time>
      </trkpt>
      <trkpt lat="44.8731" lon="-0.42598">
        <ele>49.9</ele>
        <time>2013-06-23T07:17:49.000Z</time>
      </trkpt>
      <trkpt lat="44.87305" lon="-0.42621">
        <ele>49.3</ele>
        <time>2013-06-23T07:17:42.000Z</time>
      </trkpt>
      <trkpt lat="44.87313" lon="-0.42642">
        <ele>47.1</ele>
        <time>2013-06-23T07:17:33.000Z</time>
      </trkpt>
      <trkpt lat="44.87328" lon="-0.42636">
        <ele>45.6</ele>
        <time>2013-06-23T07:17:28.000Z</time>
      </trkpt>
      <trkpt lat="44.87344" lon="-0.42629">
        <ele>44.2</ele>
        <time>2013-06-23T07:17:24.000Z</time>
      </trkpt>
      <trkpt lat="44.87362" lon="-0.42624">
        <ele>43.4</ele>
        <time>2013-06-23T07:17:21.000Z</time>
      </trkpt>
      <trkpt lat="44.87375" lon="-0.42628">
        <ele>43.2</ele>
        <time>2013-06-23T07:17:19.000Z</time>
      </trkpt>
      <trkpt lat="44.87394" lon="-0.42645">
        <ele>44.2</ele>
        <time>2013-06-23T07:17:16.000Z</time>
      </trkpt>
      <trkpt lat="44.874" lon="-0.42652">
        <ele>44.3</ele>
        <time>2013-06-23T07:17:15.000Z</time>
      </trkpt>
      <trkpt lat="44.87412" lon="-0.42665">
        <ele>44.1</ele>
        <time>2013-06-23T07:17:13.000Z</time>
      </trkpt>
      <trkpt lat="44.87425" lon="-0.42678">
        <ele>44.9</ele>
        <time>2013-06-23T07:17:11.000Z</time>
      </trkpt>
      <trkpt lat="44.87437" lon="-0.42691">
        <ele>45.7</ele>
        <time>2013-06-23T07:17:09.000Z</time>
      </trkpt>
      <trkpt lat="44.87448" lon="-0.42705">
        <ele>46.3</ele>
        <time>2013-06-23T07:17:07.000Z</time>
      </trkpt>
      <trkpt lat="44.87456" lon="-0.42721">
        <ele>47.2</ele>
        <time>2013-06-23T07:17:05.000Z</time>
      </trkpt>
      <trkpt lat="44.87457" lon="-0.42738">
        <ele>48</ele>
        <time>2013-06-23T07:17:03.000Z</time>
      </trkpt>
      <trkpt lat="44.8746" lon="-0.42762">
        <ele>48.6</ele>
        <time>2013-06-23T07:17:00.000Z</time>
      </trkpt>
      <trkpt lat="44.87466" lon="-0.42783">
        <ele>48.9</ele>
        <time>2013-06-23T07:16:57.000Z</time>
      </trkpt>
      <trkpt lat="44.87476" lon="-0.42799">
        <ele>49.8</ele>
        <time>2013-06-23T07:16:54.000Z</time>
      </trkpt>
      <trkpt lat="44.87489" lon="-0.42811">
        <ele>50.1</ele>
        <time>2013-06-23T07:16:51.000Z</time>
      </trkpt>
      <trkpt lat="44.87503" lon="-0.42823">
        <ele>50.9</ele>
        <time>2013-06-23T07:16:48.000Z</time>
      </trkpt>
      <trkpt lat="44.87518" lon="-0.42836">
        <ele>52.6</ele>
        <time>2013-06-23T07:16:45.000Z</time>
      </trkpt>
      <trkpt lat="44.87531" lon="-0.42847">
        <ele>54.5</ele>
        <time>2013-06-23T07:16:42.000Z</time>
      </trkpt>
      <trkpt lat="44.87557" lon="-0.42869">
        <ele>53.6</ele>
        <time>2013-06-23T07:16:38.000Z</time>
      </trkpt>
      <trkpt lat="44.87569" lon="-0.42879">
        <ele>54.5</ele>
        <time>2013-06-23T07:16:36.000Z</time>
      </trkpt>
      <trkpt lat="44.87582" lon="-0.42885">
        <ele>52.9</ele>
        <time>2013-06-23T07:16:34.000Z</time>
      </trkpt>
      <trkpt lat="44.87594" lon="-0.42887">
        <ele>53.3</ele>
        <time>2013-06-23T07:16:32.000Z</time>
      </trkpt>
      <trkpt lat="44.8761" lon="-0.42883">
        <ele>55.4</ele>
        <time>2013-06-23T07:16:29.000Z</time>
      </trkpt>
      <trkpt lat="44.87623" lon="-0.42872">
        <ele>56.7</ele>
        <time>2013-06-23T07:16:26.000Z</time>
      </trkpt>
      <trkpt lat="44.87635" lon="-0.42853">
        <ele>56.7</ele>
        <time>2013-06-23T07:16:22.000Z</time>
      </trkpt>
      <trkpt lat="44.87647" lon="-0.42815">
        <ele>56</ele>
        <time>2013-06-23T07:16:14.000Z</time>
      </trkpt>
      <trkpt lat="44.87647" lon="-0.42811">
        <ele>56</ele>
        <time>2013-06-23T07:16:13.000Z</time>
      </trkpt>
      <trkpt lat="44.8765" lon="-0.42787">
        <ele>55.7</ele>
        <time>2013-06-23T07:16:07.000Z</time>
      </trkpt>
      <trkpt lat="44.87662" lon="-0.42772">
        <ele>55.1</ele>
        <time>2013-06-23T07:16:01.000Z</time>
      </trkpt>
      <trkpt lat="44.8768" lon="-0.42773">
        <ele>54.9</ele>
        <time>2013-06-23T07:15:55.000Z</time>
      </trkpt>
      <trkpt lat="44.87698" lon="-0.42772">
        <ele>54.7</ele>
        <time>2013-06-23T07:15:48.000Z</time>
      </trkpt>
      <trkpt lat="44.87713" lon="-0.4278">
        <ele>54.4</ele>
        <time>2013-06-23T07:15:39.000Z</time>
      </trkpt>
      <trkpt lat="44.87715" lon="-0.42804">
        <ele>55</ele>
        <time>2013-06-23T07:15:33.000Z</time>
      </trkpt>
      <trkpt lat="44.87717" lon="-0.42827">
        <ele>55.1</ele>
        <time>2013-06-23T07:15:28.000Z</time>
      </trkpt>
      <trkpt lat="44.8772" lon="-0.4285">
        <ele>55.1</ele>
        <time>2013-06-23T07:15:23.000Z</time>
      </trkpt>
      <trkpt lat="44.87722" lon="-0.42874">
        <ele>55.5</ele>
        <time>2013-06-23T07:15:18.000Z</time>
      </trkpt>
      <trkpt lat="44.87726" lon="-0.42917">
        <ele>56</ele>
        <time>2013-06-23T07:15:09.000Z</time>
      </trkpt>
      <trkpt lat="44.87727" lon="-0.42921">
        <ele>56.1</ele>
        <time>2013-06-23T07:15:08.000Z</time>
      </trkpt>
      <trkpt lat="44.87731" lon="-0.42941">
        <ele>56.6</ele>
        <time>2013-06-23T07:15:03.000Z</time>
      </trkpt>
      <trkpt lat="44.87732" lon="-0.42964">
        <ele>56.6</ele>
        <time>2013-06-23T07:14:58.000Z</time>
      </trkpt>
      <trkpt lat="44.87734" lon="-0.42985">
        <ele>56.8</ele>
        <time>2013-06-23T07:14:53.000Z</time>
      </trkpt>
      <trkpt lat="44.87736" lon="-0.43008">
        <ele>57.3</ele>
        <time>2013-06-23T07:14:48.000Z</time>
      </trkpt>
      <trkpt lat="44.87737" lon="-0.43032">
        <ele>58.1</ele>
        <time>2013-06-23T07:14:43.000Z</time>
      </trkpt>
      <trkpt lat="44.87739" lon="-0.43053">
        <ele>58.4</ele>
        <time>2013-06-23T07:14:38.000Z</time>
      </trkpt>
      <trkpt lat="44.87741" lon="-0.43077">
        <ele>58.3</ele>
        <time>2013-06-23T07:14:32.000Z</time>
      </trkpt>
      <trkpt lat="44.87748" lon="-0.43098">
        <ele>58.6</ele>
        <time>2013-06-23T07:14:25.000Z</time>
      </trkpt>
      <trkpt lat="44.87763" lon="-0.43097">
        <ele>58.3</ele>
        <time>2013-06-23T07:14:19.000Z</time>
      </trkpt>
      <trkpt lat="44.87795" lon="-0.43098">
        <ele>57.4</ele>
        <time>2013-06-23T07:14:08.000Z</time>
      </trkpt>
      <trkpt lat="44.87798" lon="-0.43097">
        <ele>57.3</ele>
        <time>2013-06-23T07:14:07.000Z</time>
      </trkpt>
      <trkpt lat="44.87816" lon="-0.43098">
        <ele>56.2</ele>
        <time>2013-06-23T07:14:01.000Z</time>
      </trkpt>
      <trkpt lat="44.87834" lon="-0.43097">
        <ele>55</ele>
        <time>2013-06-23T07:13:55.000Z</time>
      </trkpt>
      <trkpt lat="44.87849" lon="-0.43096">
        <ele>54.7</ele>
        <time>2013-06-23T07:13:50.000Z</time>
      </trkpt>
      <trkpt lat="44.87864" lon="-0.43096">
        <ele>54.4</ele>
        <time>2013-06-23T07:13:45.000Z</time>
      </trkpt>
      <trkpt lat="44.87882" lon="-0.43096">
        <ele>54.1</ele>
        <time>2013-06-23T07:13:39.000Z</time>
      </trkpt>
      <trkpt lat="44.87899" lon="-0.43096">
        <ele>53.7</ele>
        <time>2013-06-23T07:13:33.000Z</time>
      </trkpt>
      <trkpt lat="44.87915" lon="-0.43097">
        <ele>53</ele>
        <time>2013-06-23T07:13:27.000Z</time>
      </trkpt>
      <trkpt lat="44.87933" lon="-0.43096">
        <ele>52.4</ele>
        <time>2013-06-23T07:13:20.000Z</time>
      </trkpt>
      <trkpt lat="44.87939" lon="-0.43092">
        <ele>52.2</ele>
      </trkpt>
      <trkpt lat="44.88099" lon="-0.43087">
        <ele>51.9</ele>
      </trkpt>
      <trkpt lat="44.88112" lon="-0.42979">
        <ele>50.3</ele>
      </trkpt>
      <trkpt lat="44.88184" lon="-0.42989">
        <ele>51.6</ele>
      </trkpt>
      <trkpt lat="44.88196" lon="-0.42945">
        <ele>49.9</ele>
      </trkpt>
      <trkpt lat="44.88208" lon="-0.42907">
        <ele>49</ele>
      </trkpt>
      <trkpt lat="44.88226" lon="-0.42845">
        <ele>47.9</ele>
      </trkpt>
      <trkpt lat="44.8823" lon="-0.42821">
        <ele>47.7</ele>
      </trkpt>
      <trkpt lat="44.88238" lon="-0.42792">
        <ele>47.6</ele>
      </trkpt>
      <trkpt lat="44.88267" lon="-0.42715">
        <ele>46.5</ele>
      </trkpt>
      <trkpt lat="44.88286" lon="-0.42694">
        <ele>46.9</ele>
      </trkpt>
      <trkpt lat="44.88314" lon="-0.42657">
        <ele>45.6</ele>
      </trkpt>
      <trkpt lat="44.88336" lon="-0.42619">
        <ele>44.8</ele>
      </trkpt>
      <trkpt lat="44.88354" lon="-0.42593">
        <ele>42.7</ele>
      </trkpt>
      <trkpt lat="44.88362" lon="-0.42553">
        <ele>39.7</ele>
      </trkpt>
      <trkpt lat="44.88368" lon="-0.42463">
        <ele>35</ele>
      </trkpt>
      <trkpt lat="44.88382" lon="-0.42364">
        <ele>35.1</ele>
      </trkpt>
      <trkpt lat="44.88599" lon="-0.4244">
        <ele>29</ele>
      </trkpt>
      <trkpt lat="44.88772" lon="-0.42495">
        <ele>30.8</ele>
      </trkpt>
      <trkpt lat="44.88811" lon="-0.42437">
        <ele>29.6</ele>
      </trkpt>
      <trkpt lat="44.88867" lon="-0.42465">
        <ele>28.8</ele>
      </trkpt>
      <trkpt lat="44.88923" lon="-0.42488">
        <ele>26</ele>
      </trkpt>
      <trkpt lat="44.88937" lon="-0.42484">
        <ele>25.1</ele>
      </trkpt>
      <trkpt lat="44.8897" lon="-0.4242">
        <ele>24.9</ele>
      </trkpt>
      <trkpt lat="44.89015" lon="-0.42342">
        <ele>23.1</ele>
      </trkpt>
      <trkpt lat="44.8906" lon="-0.42231">
        <ele>21.9</ele>
      </trkpt>
      <trkpt lat="44.89057" lon="-0.42211">
        <ele>22.8</ele>
      </trkpt>
      <trkpt lat="44.89074" lon="-0.42173">
        <ele>24.1</ele>
      </trkpt>
      <trkpt lat="44.89107" lon="-0.4208">
        <ele>26.5</ele>
      </trkpt>
      <trkpt lat="44.89141" lon="-0.42006">
        <ele>27.6</ele>
        <time>2014-04-08T10:25:52.000Z</time>
      </trkpt>
      <trkpt lat="44.89141" lon="-0.42006">
        <ele>27.6</ele>
        <time>2014-04-08T10:25:52.000Z</time>
      </trkpt>
      <trkpt lat="44.89132" lon="-0.42">
        <ele>28</ele>
        <time>2014-04-08T10:25:39.000Z</time>
      </trkpt>
      <trkpt lat="44.89114" lon="-0.41988">
        <ele>28</ele>
        <time>2014-04-08T10:25:24.000Z</time>
      </trkpt>
      <trkpt lat="44.89107" lon="-0.41985">
        <ele>27.9</ele>
        <time>2014-04-08T10:25:19.000Z</time>
      </trkpt>
      <trkpt lat="44.89091" lon="-0.41976">
        <ele>27.4</ele>
        <time>2014-04-08T10:25:07.000Z</time>
      </trkpt>
      <trkpt lat="44.8908" lon="-0.4197">
        <ele>27</ele>
        <time>2014-04-08T10:24:57.000Z</time>
      </trkpt>
      <trkpt lat="44.89076" lon="-0.41968">
        <ele>27</ele>
        <time>2014-04-08T10:24:54.000Z</time>
      </trkpt>
      <trkpt lat="44.89057" lon="-0.41962">
        <ele>27</ele>
        <time>2014-04-08T10:24:40.000Z</time>
      </trkpt>
      <trkpt lat="44.89051" lon="-0.4196">
        <ele>27</ele>
        <time>2014-04-08T10:24:36.000Z</time>
      </trkpt>
      <trkpt lat="44.89035" lon="-0.41953">
        <ele>27</ele>
        <time>2014-04-08T10:24:22.000Z</time>
      </trkpt>
      <trkpt lat="44.89019" lon="-0.41946">
        <ele>27</ele>
        <time>2014-04-08T10:24:09.000Z</time>
      </trkpt>
      <trkpt lat="44.88998" lon="-0.41938">
        <ele>26.9</ele>
        <time>2014-04-08T10:23:53.000Z</time>
      </trkpt>
      <trkpt lat="44.88988" lon="-0.41935">
        <ele>26.6</ele>
        <time>2014-04-08T10:23:45.000Z</time>
      </trkpt>
      <trkpt lat="44.88985" lon="-0.41933">
        <ele>26.5</ele>
        <time>2014-04-08T10:23:42.000Z</time>
      </trkpt>
      <trkpt lat="44.88986" lon="-0.4191">
        <ele>26.5</ele>
        <time>2014-04-08T10:23:26.000Z</time>
      </trkpt>
      <trkpt lat="44.8899" lon="-0.41875">
        <ele>26.6</ele>
        <time>2014-04-08T10:23:07.000Z</time>
      </trkpt>
      <trkpt lat="44.88994" lon="-0.41844">
        <ele>26.3</ele>
        <time>2014-04-08T10:22:50.000Z</time>
      </trkpt>
      <trkpt lat="44.88995" lon="-0.4183">
        <ele>26</ele>
        <time>2014-04-08T10:22:43.000Z</time>
      </trkpt>
      <trkpt lat="44.88997" lon="-0.41801">
        <ele>25.9</ele>
        <time>2014-04-08T10:22:28.000Z</time>
      </trkpt>
      <trkpt lat="44.88995" lon="-0.4177">
        <ele>25.6</ele>
        <time>2014-04-08T10:22:11.000Z</time>
      </trkpt>
      <trkpt lat="44.88991" lon="-0.41741">
        <ele>25</ele>
        <time>2014-04-08T10:21:56.000Z</time>
      </trkpt>
      <trkpt lat="44.8899" lon="-0.41735">
        <ele>25</ele>
        <time>2014-04-08T10:21:53.000Z</time>
      </trkpt>
      <trkpt lat="44.88991" lon="-0.41706">
        <ele>24.4</ele>
        <time>2014-04-08T10:21:38.000Z</time>
      </trkpt>
      <trkpt lat="44.88991" lon="-0.41686">
        <ele>23.9</ele>
        <time>2014-04-08T10:21:27.000Z</time>
      </trkpt>
      <trkpt lat="44.88992" lon="-0.41655">
        <ele>23.4</ele>
        <time>2014-04-08T10:21:10.000Z</time>
      </trkpt>
      <trkpt lat="44.88991" lon="-0.41645">
        <ele>23.1</ele>
        <time>2014-04-08T10:21:05.000Z</time>
      </trkpt>
      <trkpt lat="44.88989" lon="-0.41615">
        <ele>22.1</ele>
        <time>2014-04-08T10:20:49.000Z</time>
      </trkpt>
      <trkpt lat="44.88983" lon="-0.41605">
        <ele>21.9</ele>
        <time>2014-04-08T10:20:42.000Z</time>
      </trkpt>
      <trkpt lat="44.88969" lon="-0.41601">
        <ele>21.6</ele>
        <time>2014-04-08T10:20:31.000Z</time>
      </trkpt>
      <trkpt lat="44.88949" lon="-0.41594">
        <ele>21.4</ele>
        <time>2014-04-08T10:20:16.000Z</time>
      </trkpt>
      <trkpt lat="44.88925" lon="-0.41584">
        <ele>21</ele>
        <time>2014-04-08T10:19:57.000Z</time>
      </trkpt>
      <trkpt lat="44.88912" lon="-0.41576">
        <ele>20.9</ele>
        <time>2014-04-08T10:19:46.000Z</time>
      </trkpt>
      <trkpt lat="44.88908" lon="-0.41574">
        <ele>21</ele>
        <time>2014-04-08T10:19:43.000Z</time>
      </trkpt>
      <trkpt lat="44.88905" lon="-0.41565">
        <ele>20.8</ele>
        <time>2014-04-08T10:19:34.000Z</time>
      </trkpt>
      <trkpt lat="44.88907" lon="-0.41555">
        <ele>20.3</ele>
        <time>2014-04-08T10:19:24.000Z</time>
      </trkpt>
      <trkpt lat="44.88907" lon="-0.41532">
        <ele>20.1</ele>
        <time>2014-04-08T10:19:08.000Z</time>
      </trkpt>
      <trkpt lat="44.88907" lon="-0.41524">
        <ele>19.9</ele>
        <time>2014-04-08T10:19:04.000Z</time>
      </trkpt>
      <trkpt lat="44.88907" lon="-0.41511">
        <ele>19.6</ele>
        <time>2014-04-08T10:18:57.000Z</time>
      </trkpt>
      <trkpt lat="44.88907" lon="-0.4151">
        <ele>19.6</ele>
        <time>2014-04-08T10:18:56.000Z</time>
      </trkpt>
      <trkpt lat="44.88912" lon="-0.41485">
        <ele>18.6</ele>
        <time>2014-04-08T10:18:42.000Z</time>
      </trkpt>
      <trkpt lat="44.88915" lon="-0.41456">
        <ele>18.1</ele>
        <time>2014-04-08T10:18:26.000Z</time>
      </trkpt>
      <trkpt lat="44.88919" lon="-0.41428">
        <ele>18</ele>
        <time>2014-04-08T10:18:11.000Z</time>
      </trkpt>
      <trkpt lat="44.88921" lon="-0.41418">
        <ele>18</ele>
        <time>2014-04-08T10:18:04.000Z</time>
      </trkpt>
      <trkpt lat="44.88923" lon="-0.41417">
        <ele>18</ele>
        <time>2014-04-08T10:18:02.000Z</time>
      </trkpt>
      <trkpt lat="44.88922" lon="-0.41405">
        <ele>17.6</ele>
        <time>2014-04-08T10:17:51.000Z</time>
      </trkpt>
      <trkpt lat="44.88926" lon="-0.41382">
        <ele>16.8</ele>
        <time>2014-04-08T10:17:38.000Z</time>
      </trkpt>
      <trkpt lat="44.88926" lon="-0.41361">
        <ele>16.3</ele>
        <time>2014-04-08T10:17:26.000Z</time>
      </trkpt>
      <trkpt lat="44.88932" lon="-0.41337">
        <ele>16.1</ele>
        <time>2014-04-08T10:17:12.000Z</time>
      </trkpt>
      <trkpt lat="44.88938" lon="-0.41311">
        <ele>15.4</ele>
        <time>2014-04-08T10:16:57.000Z</time>
      </trkpt>
      <trkpt lat="44.88948" lon="-0.4129">
        <ele>15.1</ele>
        <time>2014-04-08T10:16:43.000Z</time>
      </trkpt>
      <trkpt lat="44.88958" lon="-0.4127">
        <ele>14.7</ele>
        <time>2014-04-08T10:16:29.000Z</time>
      </trkpt>
      <trkpt lat="44.88964" lon="-0.41255">
        <ele>14.2</ele>
        <time>2014-04-08T10:16:20.000Z</time>
      </trkpt>
      <trkpt lat="44.8897" lon="-0.41241">
        <ele>13.7</ele>
        <time>2014-04-08T10:16:12.000Z</time>
      </trkpt>
      <trkpt lat="44.88973" lon="-0.41223">
        <ele>13.1</ele>
        <time>2014-04-08T10:16:02.000Z</time>
      </trkpt>
      <trkpt lat="44.88976" lon="-0.41216">
        <ele>13.1</ele>
        <time>2014-04-08T10:15:58.000Z</time>
      </trkpt>
      <trkpt lat="44.88977" lon="-0.41211">
        <ele>13.1</ele>
        <time>2014-04-08T10:15:55.000Z</time>
      </trkpt>
      <trkpt lat="44.88984" lon="-0.41196">
        <ele>13</ele>
        <time>2014-04-08T10:15:46.000Z</time>
      </trkpt>
      <trkpt lat="44.88986" lon="-0.41188">
        <ele>13</ele>
        <time>2014-04-08T10:15:41.000Z</time>
      </trkpt>
      <trkpt lat="44.88988" lon="-0.41182">
        <ele>13</ele>
        <time>2014-04-08T10:15:37.000Z</time>
      </trkpt>
      <trkpt lat="44.88993" lon="-0.41159">
        <ele>12.7</ele>
        <time>2014-04-08T10:15:24.000Z</time>
      </trkpt>
      <trkpt lat="44.88994" lon="-0.4115">
        <ele>12.4</ele>
        <time>2014-04-08T10:15:14.000Z</time>
      </trkpt>
      <trkpt lat="44.88994" lon="-0.41145">
        <ele>12.2</ele>
        <time>2014-04-08T10:15:11.000Z</time>
      </trkpt>
      <trkpt lat="44.8899" lon="-0.41118">
        <ele>12</ele>
        <time>2014-04-08T10:14:54.000Z</time>
      </trkpt>
      <trkpt lat="44.88987" lon="-0.41111">
        <ele>12</ele>
        <time>2014-04-08T10:14:45.000Z</time>
      </trkpt>
      <trkpt lat="44.88983" lon="-0.411">
        <ele>12</ele>
        <time>2014-04-08T10:14:25.000Z</time>
      </trkpt>
      <trkpt lat="44.88982" lon="-0.41097">
        <ele>12</ele>
        <time>2014-04-08T10:14:09.000Z</time>
      </trkpt>
      <trkpt lat="44.88981" lon="-0.41093">
        <ele>12</ele>
        <time>2014-04-08T10:13:56.000Z</time>
      </trkpt>
      <trkpt lat="44.88981" lon="-0.41082">
        <ele>12</ele>
        <time>2014-04-08T10:13:44.000Z</time>
      </trkpt>
      <trkpt lat="44.88965" lon="-0.41079">
        <ele>12</ele>
        <time>2014-04-08T10:13:30.000Z</time>
      </trkpt>
      <trkpt lat="44.88964" lon="-0.41079">
        <ele>12</ele>
        <time>2014-04-08T10:13:29.000Z</time>
      </trkpt>
      <trkpt lat="44.88963" lon="-0.41079">
        <ele>12</ele>
        <time>2014-04-08T10:13:27.000Z</time>
      </trkpt>
      <trkpt lat="44.88955" lon="-0.41073">
        <ele>12</ele>
        <time>2014-04-08T10:13:19.000Z</time>
      </trkpt>
      <trkpt lat="44.8895" lon="-0.41059">
        <ele>12</ele>
        <time>2014-04-08T10:13:09.000Z</time>
      </trkpt>
      <trkpt lat="44.88943" lon="-0.41033">
        <ele>12.8</ele>
        <time>2014-04-08T10:12:55.000Z</time>
      </trkpt>
      <trkpt lat="44.88943" lon="-0.41027">
        <ele>13</ele>
        <time>2014-04-08T10:12:51.000Z</time>
      </trkpt>
      <trkpt lat="44.88946" lon="-0.41009">
        <ele>13.7</ele>
        <time>2014-04-08T10:12:38.000Z</time>
      </trkpt>
      <trkpt lat="44.88946" lon="-0.41009">
        <ele>13.7</ele>
        <time>2014-04-08T10:12:28.000Z</time>
      </trkpt>
      <trkpt lat="44.88936" lon="-0.41008">
        <ele>13.7</ele>
        <time>2014-04-08T10:12:19.000Z</time>
      </trkpt>
      <trkpt lat="44.88927" lon="-0.41021">
        <ele>13.3</ele>
        <time>2014-04-08T10:12:09.000Z</time>
      </trkpt>
      <trkpt lat="44.88922" lon="-0.41023">
        <ele>13.2</ele>
        <time>2014-04-08T10:12:06.000Z</time>
      </trkpt>
      <trkpt lat="44.88916" lon="-0.41021">
        <ele>13.3</ele>
        <time>2014-04-08T10:12:01.000Z</time>
      </trkpt>
      <trkpt lat="44.88898" lon="-0.41013">
        <ele>13.5</ele>
        <time>2014-04-08T10:11:48.000Z</time>
      </trkpt>
      <trkpt lat="44.88891" lon="-0.41012">
        <ele>13.6</ele>
        <time>2014-04-08T10:11:38.000Z</time>
      </trkpt>
      <trkpt lat="44.88885" lon="-0.41007">
        <ele>13.9</ele>
        <time>2014-04-08T10:11:32.000Z</time>
      </trkpt>
      <trkpt lat="44.8888" lon="-0.41004">
        <ele>14.2</ele>
        <time>2014-04-08T10:11:28.000Z</time>
      </trkpt>
      <trkpt lat="44.88877" lon="-0.40989">
        <ele>15</ele>
        <time>2014-04-08T10:11:20.000Z</time>
      </trkpt>
      <trkpt lat="44.88878" lon="-0.40977">
        <ele>15.7</ele>
        <time>2014-04-08T10:11:14.000Z</time>
      </trkpt>
      <trkpt lat="44.88879" lon="-0.4097">
        <ele>16.2</ele>
        <time>2014-04-08T10:11:10.000Z</time>
      </trkpt>
      <trkpt lat="44.88878" lon="-0.40958">
        <ele>17.3</ele>
        <time>2014-04-08T10:11:04.000Z</time>
      </trkpt>
      <trkpt lat="44.88875" lon="-0.4093">
        <ele>20.6</ele>
        <time>2014-04-08T10:10:51.000Z</time>
      </trkpt>
      <trkpt lat="44.88871" lon="-0.40921">
        <ele>22</ele>
        <time>2014-04-08T10:10:46.000Z</time>
      </trkpt>
      <trkpt lat="44.88858" lon="-0.40912">
        <ele>23.7</ele>
        <time>2014-04-08T10:10:34.000Z</time>
      </trkpt>
      <trkpt lat="44.88848" lon="-0.40905">
        <ele>25.2</ele>
        <time>2014-04-08T10:10:23.000Z</time>
      </trkpt>
      <trkpt lat="44.88847" lon="-0.40892">
        <ele>26.7</ele>
        <time>2014-04-08T10:10:14.000Z</time>
      </trkpt>
      <trkpt lat="44.88847" lon="-0.4089">
        <ele>26.9</ele>
        <time>2014-04-08T10:10:13.000Z</time>
      </trkpt>
      <trkpt lat="44.88848" lon="-0.40882">
        <ele>27.9</ele>
        <time>2014-04-08T10:10:08.000Z</time>
      </trkpt>
      <trkpt lat="44.88846" lon="-0.40874">
        <ele>29</ele>
        <time>2014-04-08T10:10:01.000Z</time>
      </trkpt>
      <trkpt lat="44.88838" lon="-0.40855">
        <ele>31.7</ele>
        <time>2014-04-08T10:09:48.000Z</time>
      </trkpt>
      <trkpt lat="44.88838" lon="-0.40849">
        <ele>32.5</ele>
        <time>2014-04-08T10:09:35.000Z</time>
      </trkpt>
      <trkpt lat="44.88839" lon="-0.40848">
        <ele>32.6</ele>
        <time>2014-04-08T10:09:26.000Z</time>
      </trkpt>
      <trkpt lat="44.88839" lon="-0.40847">
        <ele>32.7</ele>
        <time>2014-04-08T10:09:14.000Z</time>
      </trkpt>
      <trkpt lat="44.88839" lon="-0.40847">
        <ele>32.8</ele>
        <time>2014-04-08T10:08:54.000Z</time>
      </trkpt>
      <trkpt lat="44.88839" lon="-0.40847">
        <ele>32.8</ele>
        <time>2014-04-08T10:08:39.000Z</time>
      </trkpt>
      <trkpt lat="44.88839" lon="-0.40847">
        <ele>32.8</ele>
        <time>2014-04-08T10:08:38.000Z</time>
      </trkpt>
      <trkpt lat="44.88839" lon="-0.40847">
        <ele>32.8</ele>
        <time>2014-04-08T10:08:37.000Z</time>
      </trkpt>
      <trkpt lat="44.88844" lon="-0.40843">
        <ele>33</ele>
        <time>2013-06-23T10:17:00.000Z</time>
      </trkpt>
      <trkpt lat="44.88844" lon="-0.40843">
        <ele>33</ele>
        <time>2013-06-23T10:17:00.000Z</time>
      </trkpt>
      <trkpt lat="44.88844" lon="-0.40843">
        <ele>33</ele>
      </trkpt>
      <trkpt lat="44.88828" lon="-0.40843">
        <ele>33.7</ele>
      </trkpt>
      <trkpt lat="44.88812" lon="-0.40843">
        <ele>33.9</ele>
      </trkpt>
      <trkpt lat="44.88796" lon="-0.40843">
        <ele>33.8</ele>
      </trkpt>
      <trkpt lat="44.88781" lon="-0.40836">
        <ele>34</ele>
      </trkpt>
      <trkpt lat="44.88775" lon="-0.40814">
        <ele>34.6</ele>
      </trkpt>
      <trkpt lat="44.88772" lon="-0.40789">
        <ele>34.9</ele>
      </trkpt>
      <trkpt lat="44.8877" lon="-0.4077">
        <ele>35.1</ele>
      </trkpt>
      <trkpt lat="44.88767" lon="-0.40751">
        <ele>35.2</ele>
      </trkpt>
      <trkpt lat="44.88764" lon="-0.40731">
        <ele>35.3</ele>
      </trkpt>
      <trkpt lat="44.88762" lon="-0.40711">
        <ele>35.6</ele>
      </trkpt>
      <trkpt lat="44.88758" lon="-0.40692">
        <ele>36</ele>
      </trkpt>
      <trkpt lat="44.88755" lon="-0.40672">
        <ele>36</ele>
      </trkpt>
      <trkpt lat="44.88753" lon="-0.40653">
        <ele>36.1</ele>
      </trkpt>
      <trkpt lat="44.88753" lon="-0.40633">
        <ele>36.3</ele>
      </trkpt>
      <trkpt lat="44.88752" lon="-0.40599">
        <ele>37</ele>
      </trkpt>
      <trkpt lat="44.88752" lon="-0.40593">
        <ele>37</ele>
      </trkpt>
      <trkpt lat="44.88752" lon="-0.40573">
        <ele>37</ele>
      </trkpt>
      <trkpt lat="44.88752" lon="-0.40553">
        <ele>37.1</ele>
      </trkpt>
      <trkpt lat="44.88751" lon="-0.40532">
        <ele>37.9</ele>
      </trkpt>
      <trkpt lat="44.88748" lon="-0.4051">
        <ele>37.9</ele>
      </trkpt>
      <trkpt lat="44.8875" lon="-0.40489">
        <ele>38.4</ele>
      </trkpt>
      <trkpt lat="44.88747" lon="-0.40473">
        <ele>38.9</ele>
      </trkpt>
      <trkpt lat="44.88744" lon="-0.40452">
        <ele>38.9</ele>
      </trkpt>
      <trkpt lat="44.88739" lon="-0.4043">
        <ele>39.7</ele>
      </trkpt>
      <trkpt lat="44.88729" lon="-0.4041">
        <ele>41.2</ele>
      </trkpt>
      <trkpt lat="44.88714" lon="-0.40396">
        <ele>42.4</ele>
      </trkpt>
      <trkpt lat="44.88698" lon="-0.40387">
        <ele>43.1</ele>
      </trkpt>
      <trkpt lat="44.88682" lon="-0.40377">
        <ele>43.4</ele>
      </trkpt>
      <trkpt lat="44.88673" lon="-0.40366">
        <ele>43.8</ele>
      </trkpt>
      <trkpt lat="44.88665" lon="-0.4035">
        <ele>44.5</ele>
      </trkpt>
      <trkpt lat="44.88659" lon="-0.40329">
        <ele>45.4</ele>
      </trkpt>
      <trkpt lat="44.88654" lon="-0.40306">
        <ele>46</ele>
      </trkpt>
      <trkpt lat="44.88649" lon="-0.40284">
        <ele>47.1</ele>
      </trkpt>
      <trkpt lat="44.88643" lon="-0.40262">
        <ele>48.3</ele>
      </trkpt>
      <trkpt lat="44.88636" lon="-0.40241">
        <ele>49.7</ele>
      </trkpt>
      <trkpt lat="44.88628" lon="-0.40222">
        <ele>51.4</ele>
      </trkpt>
      <trkpt lat="44.8862" lon="-0.40205">
        <ele>52.7</ele>
      </trkpt>
      <trkpt lat="44.88614" lon="-0.40191">
        <ele>53.3</ele>
      </trkpt>
      <trkpt lat="44.88604" lon="-0.40171">
        <ele>54.9</ele>
      </trkpt>
      <trkpt lat="44.88586" lon="-0.40141">
        <ele>56.2</ele>
      </trkpt>
      <trkpt lat="44.88582" lon="-0.40136">
        <ele>56.4</ele>
      </trkpt>
      <trkpt lat="44.8857" lon="-0.40122">
        <ele>57.9</ele>
      </trkpt>
      <trkpt lat="44.8856" lon="-0.40109">
        <ele>58.3</ele>
      </trkpt>
      <trkpt lat="44.88551" lon="-0.40092">
        <ele>59.5</ele>
      </trkpt>
      <trkpt lat="44.88546" lon="-0.40069">
        <ele>60.5</ele>
      </trkpt>
      <trkpt lat="44.88532" lon="-0.40057">
        <ele>60.9</ele>
      </trkpt>
      <trkpt lat="44.88516" lon="-0.40055">
        <ele>61</ele>
      </trkpt>
      <trkpt lat="44.88502" lon="-0.40046">
        <ele>61.3</ele>
      </trkpt>
      <trkpt lat="44.88496" lon="-0.40026">
        <ele>61.9</ele>
      </trkpt>
      <trkpt lat="44.88489" lon="-0.40004">
        <ele>61.9</ele>
      </trkpt>
      <trkpt lat="44.88476" lon="-0.39992">
        <ele>62</ele>
      </trkpt>
      <trkpt lat="44.8846" lon="-0.39987">
        <ele>62</ele>
      </trkpt>
      <trkpt lat="44.88444" lon="-0.39985">
        <ele>62</ele>
      </trkpt>
      <trkpt lat="44.88415" lon="-0.39974">
        <ele>61.9</ele>
      </trkpt>
      <trkpt lat="44.88413" lon="-0.39972">
        <ele>62</ele>
      </trkpt>
      <trkpt lat="44.884" lon="-0.39954">
        <ele>62.3</ele>
      </trkpt>
      <trkpt lat="44.88387" lon="-0.39939">
        <ele>62.2</ele>
      </trkpt>
      <trkpt lat="44.8837" lon="-0.39938">
        <ele>62.1</ele>
      </trkpt>
      <trkpt lat="44.88353" lon="-0.39939">
        <ele>61.7</ele>
      </trkpt>
      <trkpt lat="44.88336" lon="-0.39938">
        <ele>61.1</ele>
      </trkpt>
      <trkpt lat="44.88319" lon="-0.39935">
        <ele>60.5</ele>
      </trkpt>
      <trkpt lat="44.88302" lon="-0.39933">
        <ele>59.9</ele>
      </trkpt>
      <trkpt lat="44.88286" lon="-0.3993">
        <ele>59.3</ele>
      </trkpt>
      <trkpt lat="44.88256" lon="-0.39926">
        <ele>57.4</ele>
      </trkpt>
      <trkpt lat="44.88253" lon="-0.39926">
        <ele>57.2</ele>
      </trkpt>
      <trkpt lat="44.88237" lon="-0.39928">
        <ele>56.1</ele>
      </trkpt>
      <trkpt lat="44.88222" lon="-0.39929">
        <ele>55</ele>
      </trkpt>
      <trkpt lat="44.88206" lon="-0.39933">
        <ele>54.4</ele>
      </trkpt>
      <trkpt lat="44.88191" lon="-0.39939">
        <ele>53.9</ele>
      </trkpt>
      <trkpt lat="44.88176" lon="-0.39947">
        <ele>53.2</ele>
      </trkpt>
      <trkpt lat="44.88161" lon="-0.39955">
        <ele>52.6</ele>
      </trkpt>
      <trkpt lat="44.88149" lon="-0.3997">
        <ele>52.1</ele>
      </trkpt>
      <trkpt lat="44.88154" lon="-0.39992">
        <ele>50.6</ele>
      </trkpt>
      <trkpt lat="44.88161" lon="-0.40033">
        <ele>48.6</ele>
      </trkpt>
      <trkpt lat="44.88162" lon="-0.40037">
        <ele>48.4</ele>
      </trkpt>
      <trkpt lat="44.88167" lon="-0.4006">
        <ele>46.9</ele>
      </trkpt>
      <trkpt lat="44.88172" lon="-0.40083">
        <ele>46</ele>
      </trkpt>
      <trkpt lat="44.88176" lon="-0.40107">
        <ele>44.6</ele>
      </trkpt>
      <trkpt lat="44.8818" lon="-0.40128">
        <ele>43.9</ele>
      </trkpt>
      <trkpt lat="44.88185" lon="-0.40151">
        <ele>43</ele>
      </trkpt>
      <trkpt lat="44.8819" lon="-0.40173">
        <ele>41.8</ele>
      </trkpt>
      <trkpt lat="44.88194" lon="-0.40197">
        <ele>40.9</ele>
      </trkpt>
      <trkpt lat="44.88199" lon="-0.40221">
        <ele>40.2</ele>
      </trkpt>
      <trkpt lat="44.88202" lon="-0.40243">
        <ele>40.1</ele>
      </trkpt>
      <trkpt lat="44.88206" lon="-0.40265">
        <ele>39.1</ele>
      </trkpt>
      <trkpt lat="44.88211" lon="-0.40305">
        <ele>37.6</ele>
      </trkpt>
      <trkpt lat="44.8821" lon="-0.40309">
        <ele>37.4</ele>
      </trkpt>
      <trkpt lat="44.88208" lon="-0.40333">
        <ele>36</ele>
      </trkpt>
      <trkpt lat="44.88203" lon="-0.40354">
        <ele>34.7</ele>
      </trkpt>
      <trkpt lat="44.88199" lon="-0.40376">
        <ele>33.6</ele>
      </trkpt>
      <trkpt lat="44.88189" lon="-0.40394">
        <ele>33</ele>
      </trkpt>
      <trkpt lat="44.88172" lon="-0.40385">
        <ele>34</ele>
      </trkpt>
      <trkpt lat="44.88155" lon="-0.40378">
        <ele>35.2</ele>
      </trkpt>
      <trkpt lat="44.88139" lon="-0.40373">
        <ele>36.5</ele>
      </trkpt>
      <trkpt lat="44.88126" lon="-0.40366">
        <ele>36.8</ele>
      </trkpt>
      <trkpt lat="44.88111" lon="-0.40352">
        <ele>37</ele>
      </trkpt>
      <trkpt lat="44.88096" lon="-0.4034">
        <ele>36.9</ele>
      </trkpt>
      <trkpt lat="44.8808" lon="-0.40331">
        <ele>37.1</ele>
      </trkpt>
      <trkpt lat="44.88052" lon="-0.4032">
        <ele>37.6</ele>
      </trkpt>
      <trkpt lat="44.88051" lon="-0.4032">
        <ele>37.7</ele>
      </trkpt>
      <trkpt lat="44.88033" lon="-0.40322">
        <ele>38.2</ele>
      </trkpt>
      <trkpt lat="44.88017" lon="-0.40323">
        <ele>38.8</ele>
      </trkpt>
      <trkpt lat="44.88" lon="-0.40324">
        <ele>39.3</ele>
      </trkpt>
      <trkpt lat="44.87986" lon="-0.40326">
        <ele>39.8</ele>
      </trkpt>
      <trkpt lat="44.87973" lon="-0.40327">
        <ele>40.2</ele>
      </trkpt>
      <trkpt lat="44.8796" lon="-0.40328">
        <ele>40.7</ele>
      </trkpt>
      <trkpt lat="44.87946" lon="-0.4033">
        <ele>41.2</ele>
      </trkpt>
      <trkpt lat="44.87932" lon="-0.40333">
        <ele>41.9</ele>
      </trkpt>
      <trkpt lat="44.87918" lon="-0.40336">
        <ele>42.8</ele>
      </trkpt>
      <trkpt lat="44.87904" lon="-0.40338">
        <ele>43.4</ele>
      </trkpt>
      <trkpt lat="44.87891" lon="-0.40336">
        <ele>43.9</ele>
      </trkpt>
      <trkpt lat="44.87878" lon="-0.40328">
        <ele>45.1</ele>
      </trkpt>
      <trkpt lat="44.87863" lon="-0.40322">
        <ele>46.3</ele>
      </trkpt>
      <trkpt lat="44.87848" lon="-0.40321">
        <ele>47.4</ele>
      </trkpt>
      <trkpt lat="44.87834" lon="-0.40322">
        <ele>48.4</ele>
      </trkpt>
      <trkpt lat="44.87821" lon="-0.40324">
        <ele>49.1</ele>
      </trkpt>
      <trkpt lat="44.87806" lon="-0.40329">
        <ele>50</ele>
      </trkpt>
      <trkpt lat="44.87792" lon="-0.40331">
        <ele>50</ele>
      </trkpt>
      <trkpt lat="44.87775" lon="-0.40326">
        <ele>50.3</ele>
      </trkpt>
      <trkpt lat="44.87762" lon="-0.40308">
        <ele>50.9</ele>
      </trkpt>
      <trkpt lat="44.8775" lon="-0.4028">
        <ele>51.9</ele>
      </trkpt>
      <trkpt lat="44.87748" lon="-0.40274">
        <ele>51.9</ele>
      </trkpt>
      <trkpt lat="44.87745" lon="-0.40252">
        <ele>51.6</ele>
      </trkpt>
      <trkpt lat="44.87744" lon="-0.4023">
        <ele>51.5</ele>
      </trkpt>
      <trkpt lat="44.87744" lon="-0.40205">
        <ele>51.7</ele>
      </trkpt>
      <trkpt lat="44.87745" lon="-0.40186">
        <ele>51.8</ele>
      </trkpt>
      <trkpt lat="44.87747" lon="-0.40165">
        <ele>51.9</ele>
      </trkpt>
      <trkpt lat="44.8775" lon="-0.40144">
        <ele>52</ele>
      </trkpt>
      <trkpt lat="44.87755" lon="-0.40124">
        <ele>52.7</ele>
      </trkpt>
      <trkpt lat="44.87762" lon="-0.40106">
        <ele>53.5</ele>
      </trkpt>
      <trkpt lat="44.87764" lon="-0.40086">
        <ele>53.9</ele>
      </trkpt>
      <trkpt lat="44.8776" lon="-0.40062">
        <ele>54</ele>
      </trkpt>
      <trkpt lat="44.8775" lon="-0.40048">
        <ele>54</ele>
      </trkpt>
      <trkpt lat="44.87735" lon="-0.40046">
        <ele>54.2</ele>
      </trkpt>
      <trkpt lat="44.87719" lon="-0.40048">
        <ele>54.2</ele>
      </trkpt>
      <trkpt lat="44.87701" lon="-0.40047">
        <ele>54.1</ele>
      </trkpt>
      <trkpt lat="44.87684" lon="-0.40043">
        <ele>53.6</ele>
      </trkpt>
      <trkpt lat="44.87667" lon="-0.40036">
        <ele>53</ele>
      </trkpt>
      <trkpt lat="44.87646" lon="-0.40023">
        <ele>53</ele>
      </trkpt>
      <trkpt lat="44.87643" lon="-0.4002">
        <ele>53</ele>
      </trkpt>
      <trkpt lat="44.87628" lon="-0.40007">
        <ele>52.3</ele>
      </trkpt>
      <trkpt lat="44.87616" lon="-0.39997">
        <ele>50.9</ele>
      </trkpt>
      <trkpt lat="44.87604" lon="-0.39985">
        <ele>51.7</ele>
      </trkpt>
      <trkpt lat="44.87591" lon="-0.39974">
        <ele>51</ele>
      </trkpt>
      <trkpt lat="44.87577" lon="-0.39962">
        <ele>51.2</ele>
      </trkpt>
      <trkpt lat="44.87566" lon="-0.39952">
        <ele>50.9</ele>
      </trkpt>
      <trkpt lat="44.87554" lon="-0.39942">
        <ele>49.6</ele>
      </trkpt>
      <trkpt lat="44.87543" lon="-0.39932">
        <ele>52.1</ele>
      </trkpt>
      <trkpt lat="44.87529" lon="-0.39917">
        <ele>52.1</ele>
      </trkpt>
      <trkpt lat="44.87519" lon="-0.39908">
        <ele>52.9</ele>
      </trkpt>
      <trkpt lat="44.87508" lon="-0.39899">
        <ele>53.2</ele>
      </trkpt>
      <trkpt lat="44.87497" lon="-0.3989">
        <ele>52.9</ele>
      </trkpt>
      <trkpt lat="44.87482" lon="-0.39876">
        <ele>53</ele>
      </trkpt>
      <trkpt lat="44.87468" lon="-0.39863">
        <ele>52.9</ele>
      </trkpt>
      <trkpt lat="44.87454" lon="-0.39851">
        <ele>53.4</ele>
      </trkpt>
      <trkpt lat="44.87442" lon="-0.39838">
        <ele>53.8</ele>
      </trkpt>
      <trkpt lat="44.87432" lon="-0.39823">
        <ele>54.2</ele>
      </trkpt>
      <trkpt lat="44.87425" lon="-0.39806">
        <ele>54.7</ele>
      </trkpt>
      <trkpt lat="44.87422" lon="-0.39787">
        <ele>54.8</ele>
      </trkpt>
      <trkpt lat="44.8742" lon="-0.39762">
        <ele>54.9</ele>
      </trkpt>
      <trkpt lat="44.87418" lon="-0.3973">
        <ele>55.7</ele>
      </trkpt>
      <trkpt lat="44.87418" lon="-0.39724">
        <ele>55.9</ele>
      </trkpt>
      <trkpt lat="44.8742" lon="-0.39704">
        <ele>55.9</ele>
      </trkpt>
      <trkpt lat="44.87425" lon="-0.39681">
        <ele>55.8</ele>
      </trkpt>
      <trkpt lat="44.87433" lon="-0.3966">
        <ele>55.9</ele>
      </trkpt>
      <trkpt lat="44.87442" lon="-0.39643">
        <ele>55.9</ele>
      </trkpt>
      <trkpt lat="44.87447" lon="-0.39619">
        <ele>56</ele>
      </trkpt>
      <trkpt lat="44.87446" lon="-0.39594">
        <ele>56</ele>
      </trkpt>
      <trkpt lat="44.87458" lon="-0.39577">
        <ele>55.4</ele>
      </trkpt>
      <trkpt lat="44.87474" lon="-0.3958">
        <ele>55</ele>
      </trkpt>
      <trkpt lat="44.8749" lon="-0.3958">
        <ele>55</ele>
      </trkpt>
      <trkpt lat="44.87506" lon="-0.39575">
        <ele>55.2</ele>
      </trkpt>
      <trkpt lat="44.87522" lon="-0.39567">
        <ele>55.3</ele>
      </trkpt>
      <trkpt lat="44.87536" lon="-0.39555">
        <ele>55.6</ele>
      </trkpt>
      <trkpt lat="44.87548" lon="-0.3954">
        <ele>55.6</ele>
      </trkpt>
      <trkpt lat="44.87563" lon="-0.39508">
        <ele>54.7</ele>
      </trkpt>
      <trkpt lat="44.87564" lon="-0.39503">
        <ele>54.7</ele>
      </trkpt>
      <trkpt lat="44.8757" lon="-0.39484">
        <ele>55.1</ele>
      </trkpt>
      <trkpt lat="44.87576" lon="-0.39465">
        <ele>55.1</ele>
      </trkpt>
      <trkpt lat="44.87582" lon="-0.39446">
        <ele>54.1</ele>
      </trkpt>
      <trkpt lat="44.87588" lon="-0.39426">
        <ele>53.6</ele>
      </trkpt>
      <trkpt lat="44.87593" lon="-0.39406">
        <ele>53.6</ele>
      </trkpt>
      <trkpt lat="44.87599" lon="-0.39387">
        <ele>53.5</ele>
      </trkpt>
      <trkpt lat="44.87605" lon="-0.39368">
        <ele>53.2</ele>
      </trkpt>
      <trkpt lat="44.87612" lon="-0.39344">
        <ele>52.4</ele>
      </trkpt>
      <trkpt lat="44.87618" lon="-0.39325">
        <ele>52.2</ele>
      </trkpt>
      <trkpt lat="44.87626" lon="-0.39303">
        <ele>51.9</ele>
      </trkpt>
      <trkpt lat="44.87633" lon="-0.39282">
        <ele>51.1</ele>
      </trkpt>
      <trkpt lat="44.8764" lon="-0.39259">
        <ele>50.4</ele>
      </trkpt>
      <trkpt lat="44.87652" lon="-0.39221">
        <ele>49.4</ele>
      </trkpt>
      <trkpt lat="44.87653" lon="-0.39217">
        <ele>49.3</ele>
      </trkpt>
      <trkpt lat="44.87659" lon="-0.39197">
        <ele>48.8</ele>
      </trkpt>
      <trkpt lat="44.87666" lon="-0.39177">
        <ele>48.3</ele>
      </trkpt>
      <trkpt lat="44.87672" lon="-0.39156">
        <ele>47.3</ele>
      </trkpt>
      <trkpt lat="44.87678" lon="-0.39135">
        <ele>46.2</ele>
      </trkpt>
      <trkpt lat="44.87685" lon="-0.39114">
        <ele>45.4</ele>
      </trkpt>
      <trkpt lat="44.87692" lon="-0.39093">
        <ele>45.1</ele>
      </trkpt>
      <trkpt lat="44.87698" lon="-0.39071">
        <ele>44.2</ele>
      </trkpt>
      <trkpt lat="44.87703" lon="-0.3905">
        <ele>43.2</ele>
      </trkpt>
      <trkpt lat="44.87708" lon="-0.39029">
        <ele>43</ele>
      </trkpt>
      <trkpt lat="44.87714" lon="-0.39006">
        <ele>41.8</ele>
      </trkpt>
      <trkpt lat="44.87723" lon="-0.38968">
        <ele>40.9</ele>
      </trkpt>
      <trkpt lat="44.87725" lon="-0.38963">
        <ele>40.8</ele>
      </trkpt>
      <trkpt lat="44.8773" lon="-0.38944">
        <ele>40.5</ele>
      </trkpt>
      <trkpt lat="44.87735" lon="-0.38924">
        <ele>39.8</ele>
      </trkpt>
      <trkpt lat="44.87741" lon="-0.38904">
        <ele>39.5</ele>
      </trkpt>
      <trkpt lat="44.87747" lon="-0.38885">
        <ele>39.5</ele>
      </trkpt>
      <trkpt lat="44.87752" lon="-0.38864">
        <ele>39.2</ele>
      </trkpt>
      <trkpt lat="44.87758" lon="-0.38842">
        <ele>39.3</ele>
      </trkpt>
      <trkpt lat="44.87765" lon="-0.38796">
        <ele>40</ele>
      </trkpt>
      <trkpt lat="44.87764" lon="-0.38796">
        <ele>40</ele>
      </trkpt>
      <trkpt lat="44.87741" lon="-0.38833">
        <ele>39</ele>
      </trkpt>
      <trkpt lat="44.87741" lon="-0.38833">
        <ele>39</ele>
      </trkpt>
      <trkpt lat="44.87723" lon="-0.38831">
        <ele>39.1</ele>
      </trkpt>
      <trkpt lat="44.87707" lon="-0.38822">
        <ele>39.4</ele>
      </trkpt>
      <trkpt lat="44.87697" lon="-0.38805">
        <ele>40</ele>
      </trkpt>
      <trkpt lat="44.87692" lon="-0.38786">
        <ele>40.9</ele>
      </trkpt>
      <trkpt lat="44.87683" lon="-0.38772">
        <ele>42</ele>
      </trkpt>
      <trkpt lat="44.87672" lon="-0.38761">
        <ele>42.8</ele>
      </trkpt>
      <trkpt lat="44.8766" lon="-0.38749">
        <ele>43.3</ele>
      </trkpt>
      <trkpt lat="44.87646" lon="-0.38738">
        <ele>44.3</ele>
      </trkpt>
      <trkpt lat="44.87621" lon="-0.38714">
        <ele>45.3</ele>
      </trkpt>
      <trkpt lat="44.87617" lon="-0.38711">
        <ele>45.4</ele>
      </trkpt>
      <trkpt lat="44.87602" lon="-0.38699">
        <ele>46.1</ele>
      </trkpt>
      <trkpt lat="44.87588" lon="-0.38689">
        <ele>47</ele>
      </trkpt>
      <trkpt lat="44.87574" lon="-0.38676">
        <ele>47.6</ele>
      </trkpt>
      <trkpt lat="44.87563" lon="-0.38665">
        <ele>48.1</ele>
      </trkpt>
      <trkpt lat="44.87547" lon="-0.3866">
        <ele>48.9</ele>
      </trkpt>
      <trkpt lat="44.87531" lon="-0.38652">
        <ele>50.3</ele>
      </trkpt>
      <trkpt lat="44.87519" lon="-0.38639">
        <ele>51.3</ele>
      </trkpt>
      <trkpt lat="44.87508" lon="-0.38627">
        <ele>51.7</ele>
      </trkpt>
      <trkpt lat="44.87492" lon="-0.3862">
        <ele>52.3</ele>
      </trkpt>
      <trkpt lat="44.87481" lon="-0.38601">
        <ele>52.8</ele>
      </trkpt>
      <trkpt lat="44.87466" lon="-0.38564">
        <ele>53.2</ele>
      </trkpt>
      <trkpt lat="44.87464" lon="-0.38561">
        <ele>53.3</ele>
      </trkpt>
      <trkpt lat="44.8745" lon="-0.38549">
        <ele>53.8</ele>
      </trkpt>
      <trkpt lat="44.87436" lon="-0.38536">
        <ele>54.3</ele>
      </trkpt>
      <trkpt lat="44.87422" lon="-0.38524">
        <ele>54.8</ele>
      </trkpt>
      <trkpt lat="44.87409" lon="-0.38511">
        <ele>55.3</ele>
      </trkpt>
      <trkpt lat="44.87396" lon="-0.38498">
        <ele>55.7</ele>
      </trkpt>
      <trkpt lat="44.87382" lon="-0.38461">
        <ele>55.9</ele>
      </trkpt>
      <trkpt lat="44.87382" lon="-0.38458">
        <ele>55.9</ele>
      </trkpt>
      <trkpt lat="44.87382" lon="-0.38434">
        <ele>55.4</ele>
      </trkpt>
      <trkpt lat="44.87385" lon="-0.38412">
        <ele>55.2</ele>
      </trkpt>
      <trkpt lat="44.87389" lon="-0.38389">
        <ele>55</ele>
      </trkpt>
      <trkpt lat="44.87393" lon="-0.38367">
        <ele>54.1</ele>
      </trkpt>
      <trkpt lat="44.87396" lon="-0.38343">
        <ele>53.7</ele>
      </trkpt>
      <trkpt lat="44.874" lon="-0.38321">
        <ele>53.6</ele>
      </trkpt>
      <trkpt lat="44.87397" lon="-0.38297">
        <ele>53.7</ele>
      </trkpt>
      <trkpt lat="44.87399" lon="-0.38272">
        <ele>53.5</ele>
      </trkpt>
      <trkpt lat="44.87393" lon="-0.38249">
        <ele>53</ele>
      </trkpt>
      <trkpt lat="44.87386" lon="-0.38231">
        <ele>52.4</ele>
      </trkpt>
      <trkpt lat="44.87378" lon="-0.38192">
        <ele>52.4</ele>
      </trkpt>
      <trkpt lat="44.87375" lon="-0.38189">
        <ele>52.5</ele>
      </trkpt>
      <trkpt lat="44.87367" lon="-0.38171">
        <ele>52.8</ele>
      </trkpt>
      <trkpt lat="44.87354" lon="-0.38157">
        <ele>53.2</ele>
      </trkpt>
      <trkpt lat="44.87341" lon="-0.3814">
        <ele>53.7</ele>
      </trkpt>
      <trkpt lat="44.87326" lon="-0.38127">
        <ele>54.9</ele>
      </trkpt>
      <trkpt lat="44.87312" lon="-0.38114">
        <ele>56.4</ele>
      </trkpt>
      <trkpt lat="44.87299" lon="-0.38099">
        <ele>57.2</ele>
      </trkpt>
      <trkpt lat="44.87285" lon="-0.38087">
        <ele>57.8</ele>
      </trkpt>
      <trkpt lat="44.8727" lon="-0.3808">
        <ele>58.4</ele>
      </trkpt>
      <trkpt lat="44.87252" lon="-0.38072">
        <ele>59.3</ele>
      </trkpt>
      <trkpt lat="44.87223" lon="-0.38069">
        <ele>60</ele>
      </trkpt>
      <trkpt lat="44.8722" lon="-0.38069">
        <ele>60.1</ele>
      </trkpt>
      <trkpt lat="44.87205" lon="-0.38066">
        <ele>60.6</ele>
      </trkpt>
      <trkpt lat="44.8719" lon="-0.38058">
        <ele>61.2</ele>
      </trkpt>
      <trkpt lat="44.87174" lon="-0.3805">
        <ele>61.7</ele>
      </trkpt>
      <trkpt lat="44.87164" lon="-0.38032">
        <ele>62.1</ele>
      </trkpt>
      <trkpt lat="44.87147" lon="-0.38026">
        <ele>62.7</ele>
      </trkpt>
      <trkpt lat="44.87131" lon="-0.3802">
        <ele>63.3</ele>
      </trkpt>
      <trkpt lat="44.87117" lon="-0.38016">
        <ele>63.8</ele>
      </trkpt>
      <trkpt lat="44.87104" lon="-0.38012">
        <ele>64.3</ele>
      </trkpt>
      <trkpt lat="44.87079" lon="-0.38003">
        <ele>65.2</ele>
      </trkpt>
      <trkpt lat="44.87074" lon="-0.38002">
        <ele>65.3</ele>
      </trkpt>
      <trkpt lat="44.87057" lon="-0.37995">
        <ele>65.8</ele>
      </trkpt>
      <trkpt lat="44.87042" lon="-0.37989">
        <ele>66.1</ele>
      </trkpt>
      <trkpt lat="44.87026" lon="-0.37983">
        <ele>66.4</ele>
      </trkpt>
      <trkpt lat="44.87009" lon="-0.3798">
        <ele>66.8</ele>
      </trkpt>
      <trkpt lat="44.86996" lon="-0.37978">
        <ele>67</ele>
      </trkpt>
      <trkpt lat="44.8698" lon="-0.37974">
        <ele>67</ele>
      </trkpt>
      <trkpt lat="44.86965" lon="-0.37969">
        <ele>67.2</ele>
      </trkpt>
      <trkpt lat="44.86951" lon="-0.37966">
        <ele>67.6</ele>
      </trkpt>
      <trkpt lat="44.86936" lon="-0.37959">
        <ele>67.7</ele>
      </trkpt>
      <trkpt lat="44.86921" lon="-0.37955">
        <ele>67.9</ele>
      </trkpt>
      <trkpt lat="44.86906" lon="-0.3795">
        <ele>68</ele>
      </trkpt>
      <trkpt lat="44.86892" lon="-0.37944">
        <ele>68</ele>
      </trkpt>
      <trkpt lat="44.86862" lon="-0.3793">
        <ele>68.5</ele>
      </trkpt>
      <trkpt lat="44.86859" lon="-0.3793">
        <ele>68.5</ele>
      </trkpt>
      <trkpt lat="44.86845" lon="-0.37926">
        <ele>68.7</ele>
      </trkpt>
      <trkpt lat="44.86828" lon="-0.37916">
        <ele>69.2</ele>
      </trkpt>
      <trkpt lat="44.86814" lon="-0.3791">
        <ele>69.7</ele>
      </trkpt>
      <trkpt lat="44.86797" lon="-0.37903">
        <ele>70.3</ele>
      </trkpt>
      <trkpt lat="44.86783" lon="-0.37895">
        <ele>70.8</ele>
      </trkpt>
      <trkpt lat="44.86769" lon="-0.37892">
        <ele>71</ele>
      </trkpt>
      <trkpt lat="44.86754" lon="-0.37888">
        <ele>71</ele>
      </trkpt>
      <trkpt lat="44.86738" lon="-0.37882">
        <ele>71.4</ele>
      </trkpt>
      <trkpt lat="44.86724" lon="-0.37875">
        <ele>72</ele>
      </trkpt>
      <trkpt lat="44.8671" lon="-0.37863">
        <ele>72.4</ele>
      </trkpt>
      <trkpt lat="44.86695" lon="-0.37854">
        <ele>72.7</ele>
      </trkpt>
      <trkpt lat="44.86666" lon="-0.37843">
        <ele>73.4</ele>
      </trkpt>
      <trkpt lat="44.86663" lon="-0.37841">
        <ele>73.4</ele>
      </trkpt>
      <trkpt lat="44.86647" lon="-0.37833">
        <ele>73.7</ele>
      </trkpt>
      <trkpt lat="44.8664" lon="-0.37856">
        <ele>74.8</ele>
      </trkpt>
      <trkpt lat="44.86638" lon="-0.3788">
        <ele>75</ele>
      </trkpt>
      <trkpt lat="44.86636" lon="-0.37903">
        <ele>75.1</ele>
      </trkpt>
      <trkpt lat="44.86637" lon="-0.37925">
        <ele>75.1</ele>
      </trkpt>
      <trkpt lat="44.86635" lon="-0.37947">
        <ele>75.1</ele>
      </trkpt>
      <trkpt lat="44.86619" lon="-0.37976">
        <ele>75</ele>
      </trkpt>
      <trkpt lat="44.86615" lon="-0.37976">
        <ele>75</ele>
      </trkpt>
      <trkpt lat="44.86601" lon="-0.37977">
        <ele>74.9</ele>
      </trkpt>
      <trkpt lat="44.86585" lon="-0.3798">
        <ele>74.7</ele>
      </trkpt>
      <trkpt lat="44.8657" lon="-0.37991">
        <ele>74</ele>
      </trkpt>
      <trkpt lat="44.86555" lon="-0.38002">
        <ele>72.9</ele>
      </trkpt>
      <trkpt lat="44.8654" lon="-0.38008">
        <ele>72.2</ele>
      </trkpt>
      <trkpt lat="44.86525" lon="-0.38012">
        <ele>71.6</ele>
      </trkpt>
      <trkpt lat="44.8651" lon="-0.38018">
        <ele>71.8</ele>
      </trkpt>
      <trkpt lat="44.86496" lon="-0.38023">
        <ele>72.2</ele>
      </trkpt>
      <trkpt lat="44.86479" lon="-0.38028">
        <ele>72.8</ele>
      </trkpt>
      <trkpt lat="44.86462" lon="-0.38034">
        <ele>73.4</ele>
      </trkpt>
      <trkpt lat="44.86447" lon="-0.38039">
        <ele>73.9</ele>
      </trkpt>
      <trkpt lat="44.86433" lon="-0.38044">
        <ele>74.9</ele>
      </trkpt>
      <trkpt lat="44.86416" lon="-0.3805">
        <ele>76</ele>
      </trkpt>
      <trkpt lat="44.864" lon="-0.38054">
        <ele>76.6</ele>
      </trkpt>
      <trkpt lat="44.86371" lon="-0.38064">
        <ele>78.3</ele>
      </trkpt>
      <trkpt lat="44.86368" lon="-0.38065">
        <ele>78.5</ele>
      </trkpt>
      <trkpt lat="44.86356" lon="-0.38038">
        <ele>79.2</ele>
      </trkpt>
      <trkpt lat="44.86356" lon="-0.38035">
        <ele>79.2</ele>
      </trkpt>
      <trkpt lat="44.86345" lon="-0.38015">
        <ele>79.6</ele>
      </trkpt>
      <trkpt lat="44.8633" lon="-0.38022">
        <ele>80.1</ele>
      </trkpt>
      <trkpt lat="44.86314" lon="-0.38033">
        <ele>80.7</ele>
      </trkpt>
      <trkpt lat="44.86299" lon="-0.38042">
        <ele>81</ele>
      </trkpt>
      <trkpt lat="44.86286" lon="-0.38051">
        <ele>81</ele>
      </trkpt>
      <trkpt lat="44.8627" lon="-0.38061">
        <ele>81.4</ele>
      </trkpt>
      <trkpt lat="44.86254" lon="-0.38069">
        <ele>81.9</ele>
      </trkpt>
      <trkpt lat="44.86236" lon="-0.38068">
        <ele>82.2</ele>
      </trkpt>
      <trkpt lat="44.86238" lon="-0.38086">
        <ele>87.5</ele>
        <time>2021-06-06T14:20:15Z</time>
      </trkpt>
      <trkpt lat="44.86236" lon="-0.3807">
        <ele>87.1</ele>
        <time>2021-06-06T14:20:11Z</time>
      </trkpt>
      <trkpt lat="44.86231" lon="-0.38059">
        <ele>86.8</ele>
        <time>2021-06-06T14:20:08Z</time>
      </trkpt>
      <trkpt lat="44.86225" lon="-0.3805">
        <ele>86.6</ele>
        <time>2021-06-06T14:20:05Z</time>
      </trkpt>
      <trkpt lat="44.86218" lon="-0.3804">
        <ele>86.3</ele>
        <time>2021-06-06T14:20:02Z</time>
      </trkpt>
      <trkpt lat="44.86212" lon="-0.38031">
        <ele>86.1</ele>
        <time>2021-06-06T14:19:59Z</time>
      </trkpt>
      <trkpt lat="44.86204" lon="-0.38019">
        <ele>85.8</ele>
        <time>2021-06-06T14:19:55Z</time>
      </trkpt>
      <trkpt lat="44.86197" lon="-0.38008">
        <ele>85.7</ele>
        <time>2021-06-06T14:19:51Z</time>
      </trkpt>
      <trkpt lat="44.8619" lon="-0.37998">
        <ele>85.4</ele>
        <time>2021-06-06T14:19:47Z</time>
      </trkpt>
      <trkpt lat="44.86182" lon="-0.37991">
        <ele>85.2</ele>
        <time>2021-06-06T14:19:43Z</time>
      </trkpt>
      <trkpt lat="44.86173" lon="-0.37986">
        <ele>84.9</ele>
        <time>2021-06-06T14:19:39Z</time>
      </trkpt>
      <trkpt lat="44.86164" lon="-0.37982">
        <ele>84.7</ele>
        <time>2021-06-06T14:19:35Z</time>
      </trkpt>
      <trkpt lat="44.86154" lon="-0.37978">
        <ele>84.5</ele>
        <time>2021-06-06T14:19:31Z</time>
      </trkpt>
      <trkpt lat="44.86145" lon="-0.37974">
        <ele>84.2</ele>
        <time>2021-06-06T14:19:27Z</time>
      </trkpt>
      <trkpt lat="44.86136" lon="-0.3797">
        <ele>84</ele>
        <time>2021-06-06T14:19:23Z</time>
      </trkpt>
      <trkpt lat="44.86127" lon="-0.37965">
        <ele>83.9</ele>
        <time>2021-06-06T14:19:18Z</time>
      </trkpt>
      <trkpt lat="44.86117" lon="-0.3796">
        <ele>83.8</ele>
        <time>2021-06-06T14:19:13Z</time>
      </trkpt>
      <trkpt lat="44.8611" lon="-0.3795">
        <ele>83.9</ele>
        <time>2021-06-06T14:19:07Z</time>
      </trkpt>
      <trkpt lat="44.86113" lon="-0.37935">
        <ele>84.3</ele>
        <time>2021-06-06T14:19:01Z</time>
      </trkpt>
      <trkpt lat="44.86117" lon="-0.37922">
        <ele>84.8</ele>
        <time>2021-06-06T14:18:56Z</time>
      </trkpt>
      <trkpt lat="44.86121" lon="-0.37909">
        <ele>85.5</ele>
        <time>2021-06-06T14:18:50Z</time>
      </trkpt>
      <trkpt lat="44.86126" lon="-0.37897">
        <ele>86</ele>
        <time>2021-06-06T14:18:46Z</time>
      </trkpt>
      <trkpt lat="44.86131" lon="-0.37884">
        <ele>86.4</ele>
        <time>2021-06-06T14:18:41Z</time>
      </trkpt>
      <trkpt lat="44.86134" lon="-0.37869">
        <ele>86.7</ele>
        <time>2021-06-06T14:18:35Z</time>
      </trkpt>
      <trkpt lat="44.86125" lon="-0.37866">
        <ele>86.9</ele>
        <time>2021-06-06T14:18:31Z</time>
      </trkpt>
      <trkpt lat="44.86116" lon="-0.37867">
        <ele>86.9</ele>
        <time>2021-06-06T14:18:27Z</time>
      </trkpt>
      <trkpt lat="44.86106" lon="-0.37867">
        <ele>86.9</ele>
        <time>2021-06-06T14:18:23Z</time>
      </trkpt>
      <trkpt lat="44.86096" lon="-0.37868">
        <ele>86.8</ele>
        <time>2021-06-06T14:18:19Z</time>
      </trkpt>
      <trkpt lat="44.86085" lon="-0.37869">
        <ele>86.6</ele>
        <time>2021-06-06T14:18:15Z</time>
      </trkpt>
      <trkpt lat="44.86075" lon="-0.3787">
        <ele>86.3</ele>
        <time>2021-06-06T14:18:11Z</time>
      </trkpt>
      <trkpt lat="44.86065" lon="-0.3787">
        <ele>85.7</ele>
        <time>2021-06-06T14:18:07Z</time>
      </trkpt>
      <trkpt lat="44.86055" lon="-0.37871">
        <ele>84.9</ele>
        <time>2021-06-06T14:18:03Z</time>
      </trkpt>
      <trkpt lat="44.86044" lon="-0.37871">
        <ele>84.1</ele>
        <time>2021-06-06T14:17:59Z</time>
      </trkpt>
      <trkpt lat="44.86032" lon="-0.37872">
        <ele>82.9</ele>
        <time>2021-06-06T14:17:54Z</time>
      </trkpt>
      <trkpt lat="44.86023" lon="-0.37873">
        <ele>82.1</ele>
        <time>2021-06-06T14:17:50Z</time>
      </trkpt>
      <trkpt lat="44.86012" lon="-0.37874">
        <ele>81.1</ele>
        <time>2021-06-06T14:17:44Z</time>
      </trkpt>
      <trkpt lat="44.86002" lon="-0.37876">
        <ele>80.8</ele>
        <time>2021-06-06T14:17:40Z</time>
      </trkpt>
      <trkpt lat="44.85993" lon="-0.37875">
        <ele>80.7</ele>
        <time>2021-06-06T14:17:37Z</time>
      </trkpt>
      <trkpt lat="44.85984" lon="-0.37878">
        <ele>80.7</ele>
        <time>2021-06-06T14:17:33Z</time>
      </trkpt>
      <trkpt lat="44.85975" lon="-0.37879">
        <ele>80.7</ele>
        <time>2021-06-06T14:17:30Z</time>
      </trkpt>
      <trkpt lat="44.85963" lon="-0.3788">
        <ele>80.7</ele>
        <time>2021-06-06T14:17:27Z</time>
      </trkpt>
      <trkpt lat="44.85951" lon="-0.37881">
        <ele>80.7</ele>
        <time>2021-06-06T14:17:24Z</time>
      </trkpt>
      <trkpt lat="44.8594" lon="-0.37883">
        <ele>80.7</ele>
        <time>2021-06-06T14:17:21Z</time>
      </trkpt>
      <trkpt lat="44.8593" lon="-0.37885">
        <ele>80.8</ele>
        <time>2021-06-06T14:17:18Z</time>
      </trkpt>
      <trkpt lat="44.85918" lon="-0.37886">
        <ele>80.7</ele>
        <time>2021-06-06T14:17:15Z</time>
      </trkpt>
      <trkpt lat="44.85908" lon="-0.37888">
        <ele>80.7</ele>
        <time>2021-06-06T14:17:12Z</time>
      </trkpt>
      <trkpt lat="44.85897" lon="-0.37881">
        <ele>80.4</ele>
        <time>2021-06-06T14:17:08Z</time>
      </trkpt>
      <trkpt lat="44.85894" lon="-0.37865">
        <ele>79.9</ele>
        <time>2021-06-06T14:17:03Z</time>
      </trkpt>
      <trkpt lat="44.8589" lon="-0.37852">
        <ele>79.5</ele>
        <time>2021-06-06T14:16:59Z</time>
      </trkpt>
      <trkpt lat="44.85885" lon="-0.37838">
        <ele>79</ele>
        <time>2021-06-06T14:16:55Z</time>
      </trkpt>
      <trkpt lat="44.85881" lon="-0.37823">
        <ele>78.8</ele>
        <time>2021-06-06T14:16:51Z</time>
      </trkpt>
      <trkpt lat="44.85877" lon="-0.37809">
        <ele>78.4</ele>
        <time>2021-06-06T14:16:47Z</time>
      </trkpt>
      <trkpt lat="44.85874" lon="-0.37795">
        <ele>78.3</ele>
        <time>2021-06-06T14:16:44Z</time>
      </trkpt>
      <trkpt lat="44.8587" lon="-0.3778">
        <ele>78.4</ele>
        <time>2021-06-06T14:16:41Z</time>
      </trkpt>
      <trkpt lat="44.85866" lon="-0.37764">
        <ele>78.4</ele>
        <time>2021-06-06T14:16:38Z</time>
      </trkpt>
      <trkpt lat="44.85861" lon="-0.37749">
        <ele>78.4</ele>
        <time>2021-06-06T14:16:35Z</time>
      </trkpt>
      <trkpt lat="44.85853" lon="-0.37737">
        <ele>78.3</ele>
        <time>2021-06-06T14:16:32Z</time>
      </trkpt>
      <trkpt lat="44.85845" lon="-0.37724">
        <ele>78</ele>
        <time>2021-06-06T14:16:29Z</time>
      </trkpt>
      <trkpt lat="44.85839" lon="-0.37709">
        <ele>77.7</ele>
        <time>2021-06-06T14:16:26Z</time>
      </trkpt>
      <trkpt lat="44.85835" lon="-0.37693">
        <ele>77.4</ele>
        <time>2021-06-06T14:16:23Z</time>
      </trkpt>
      <trkpt lat="44.85831" lon="-0.37679">
        <ele>77.2</ele>
        <time>2021-06-06T14:16:20Z</time>
      </trkpt>
      <trkpt lat="44.85828" lon="-0.37664">
        <ele>77.3</ele>
        <time>2021-06-06T14:16:17Z</time>
      </trkpt>
      <trkpt lat="44.85823" lon="-0.37647">
        <ele>77.4</ele>
        <time>2021-06-06T14:16:14Z</time>
      </trkpt>
      <trkpt lat="44.85815" lon="-0.37633">
        <ele>77.6</ele>
        <time>2021-06-06T14:16:11Z</time>
      </trkpt>
      <trkpt lat="44.85805" lon="-0.37627">
        <ele>77.8</ele>
        <time>2021-06-06T14:16:08Z</time>
      </trkpt>
      <trkpt lat="44.85794" lon="-0.37633">
        <ele>78</ele>
        <time>2021-06-06T14:16:05Z</time>
      </trkpt>
      <trkpt lat="44.85782" lon="-0.37638">
        <ele>78.1</ele>
        <time>2021-06-06T14:16:02Z</time>
      </trkpt>
      <trkpt lat="44.85771" lon="-0.37641">
        <ele>78.1</ele>
        <time>2021-06-06T14:15:59Z</time>
      </trkpt>
      <trkpt lat="44.85762" lon="-0.3764">
        <ele>78</ele>
        <time>2021-06-06T14:15:56Z</time>
      </trkpt>
      <trkpt lat="44.85755" lon="-0.37629">
        <ele>77.9</ele>
        <time>2021-06-06T14:15:53Z</time>
      </trkpt>
      <trkpt lat="44.85753" lon="-0.37616">
        <ele>77.7</ele>
        <time>2021-06-06T14:15:50Z</time>
      </trkpt>
      <trkpt lat="44.85751" lon="-0.37602">
        <ele>77.5</ele>
        <time>2021-06-06T14:15:47Z</time>
      </trkpt>
      <trkpt lat="44.85748" lon="-0.3759">
        <ele>77.3</ele>
        <time>2021-06-06T14:15:44Z</time>
      </trkpt>
      <trkpt lat="44.85744" lon="-0.37577">
        <ele>77.1</ele>
        <time>2021-06-06T14:15:41Z</time>
      </trkpt>
      <trkpt lat="44.85742" lon="-0.37562">
        <ele>76.8</ele>
        <time>2021-06-06T14:15:38Z</time>
      </trkpt>
      <trkpt lat="44.85738" lon="-0.37549">
        <ele>76.4</ele>
        <time>2021-06-06T14:15:35Z</time>
      </trkpt>
      <trkpt lat="44.85735" lon="-0.37537">
        <ele>76.3</ele>
        <time>2021-06-06T14:15:32Z</time>
      </trkpt>
      <trkpt lat="44.85731" lon="-0.37524">
        <ele>76.1</ele>
        <time>2021-06-06T14:15:29Z</time>
      </trkpt>
      <trkpt lat="44.85728" lon="-0.37511">
        <ele>75.9</ele>
        <time>2021-06-06T14:15:26Z</time>
      </trkpt>
      <trkpt lat="44.85724" lon="-0.37498">
        <ele>75.7</ele>
        <time>2021-06-06T14:15:23Z</time>
      </trkpt>
      <trkpt lat="44.8572" lon="-0.37483">
        <ele>75.5</ele>
        <time>2021-06-06T14:15:19Z</time>
      </trkpt>
      <trkpt lat="44.85717" lon="-0.37469">
        <ele>75.4</ele>
        <time>2021-06-06T14:15:15Z</time>
      </trkpt>
      <trkpt lat="44.85714" lon="-0.37457">
        <ele>75.2</ele>
        <time>2021-06-06T14:15:11Z</time>
      </trkpt>
      <trkpt lat="44.85709" lon="-0.37445">
        <ele>75.1</ele>
        <time>2021-06-06T14:15:07Z</time>
      </trkpt>
      <trkpt lat="44.85704" lon="-0.37432">
        <ele>75.1</ele>
        <time>2021-06-06T14:15:03Z</time>
      </trkpt>
      <trkpt lat="44.857" lon="-0.3742">
        <ele>75</ele>
        <time>2021-06-06T14:14:59Z</time>
      </trkpt>
      <trkpt lat="44.85696" lon="-0.37406">
        <ele>74.9</ele>
        <time>2021-06-06T14:14:55Z</time>
      </trkpt>
      <trkpt lat="44.8569" lon="-0.37393">
        <ele>74.7</ele>
        <time>2021-06-06T14:14:51Z</time>
      </trkpt>
      <trkpt lat="44.85682" lon="-0.37385">
        <ele>74.5</ele>
        <time>2021-06-06T14:14:47Z</time>
      </trkpt>
      <trkpt lat="44.85671" lon="-0.37387">
        <ele>74.3</ele>
        <time>2021-06-06T14:14:43Z</time>
      </trkpt>
      <trkpt lat="44.85662" lon="-0.37391">
        <ele>73.9</ele>
        <time>2021-06-06T14:14:39Z</time>
      </trkpt>
      <trkpt lat="44.85653" lon="-0.37394">
        <ele>73.5</ele>
        <time>2021-06-06T14:14:35Z</time>
      </trkpt>
      <trkpt lat="44.85643" lon="-0.37392">
        <ele>73.1</ele>
        <time>2021-06-06T14:14:31Z</time>
      </trkpt>
      <trkpt lat="44.85636" lon="-0.3738">
        <ele>72.4</ele>
        <time>2021-06-06T14:14:26Z</time>
      </trkpt>
      <trkpt lat="44.8563" lon="-0.37367">
        <ele>72</ele>
        <time>2021-06-06T14:14:22Z</time>
      </trkpt>
      <trkpt lat="44.85626" lon="-0.37355">
        <ele>71.6</ele>
        <time>2021-06-06T14:14:18Z</time>
      </trkpt>
      <trkpt lat="44.85621" lon="-0.37344">
        <ele>71.3</ele>
        <time>2021-06-06T14:14:14Z</time>
      </trkpt>
      <trkpt lat="44.85617" lon="-0.37332">
        <ele>71.1</ele>
        <time>2021-06-06T14:14:10Z</time>
      </trkpt>
      <trkpt lat="44.85612" lon="-0.3732">
        <ele>71.2</ele>
        <time>2021-06-06T14:14:06Z</time>
      </trkpt>
      <trkpt lat="44.85607" lon="-0.37307">
        <ele>71.3</ele>
        <time>2021-06-06T14:13:59Z</time>
      </trkpt>
      <trkpt lat="44.8561" lon="-0.37305">
        <ele>71.7</ele>
        <time>2021-06-06T14:13:50Z</time>
      </trkpt>
      <trkpt lat="44.85614" lon="-0.37303">
        <ele>72.3</ele>
        <time>2021-06-06T14:13:38Z</time>
      </trkpt>
      <trkpt lat="44.85621" lon="-0.37299">
        <ele>73</ele>
        <time>2021-06-06T14:13:28Z</time>
      </trkpt>
      <trkpt lat="44.85631" lon="-0.37309">
        <ele>73.2</ele>
        <time>2021-06-06T14:13:24Z</time>
      </trkpt>
      <trkpt lat="44.85637" lon="-0.37321">
        <ele>73.4</ele>
        <time>2021-06-06T14:13:20Z</time>
      </trkpt>
      <trkpt lat="44.85644" lon="-0.37331">
        <ele>73.3</ele>
        <time>2021-06-06T14:13:14Z</time>
      </trkpt>
      <trkpt lat="44.85653" lon="-0.37337">
        <ele>73</ele>
        <time>2021-06-06T14:13:08Z</time>
      </trkpt>
      <trkpt lat="44.85664" lon="-0.37334">
        <ele>72.7</ele>
        <time>2021-06-06T14:13:02Z</time>
      </trkpt>
      <trkpt lat="44.85668" lon="-0.37322">
        <ele>72.5</ele>
        <time>2021-06-06T14:12:54Z</time>
      </trkpt>
      <trkpt lat="44.85678" lon="-0.37324">
        <ele>71.5</ele>
        <time>2021-06-06T14:12:42Z</time>
      </trkpt>
      <trkpt lat="44.85687" lon="-0.37325">
        <ele>70.8</ele>
        <time>2021-06-06T14:12:35Z</time>
      </trkpt>
      <trkpt lat="44.85693" lon="-0.37315">
        <ele>70.1</ele>
        <time>2021-06-06T14:12:28Z</time>
      </trkpt>
      <trkpt lat="44.85703" lon="-0.37313">
        <ele>69.4</ele>
        <time>2021-06-06T14:12:22Z</time>
      </trkpt>
      <trkpt lat="44.8571" lon="-0.37301">
        <ele>68.4</ele>
        <time>2021-06-06T14:12:14Z</time>
      </trkpt>
      <trkpt lat="44.85717" lon="-0.37293">
        <ele>67.2</ele>
        <time>2021-06-06T14:12:04Z</time>
      </trkpt>
      <trkpt lat="44.85718" lon="-0.37293">
        <ele>66</ele>
        <time>2021-06-06T14:11:59Z</time>
      </trkpt>
      <trkpt lat="44.85726" lon="-0.37287">
        <ele>64.6</ele>
        <time>2021-06-06T14:11:44Z</time>
      </trkpt>
      <trkpt lat="44.85737" lon="-0.3728">
        <ele>62.5</ele>
        <time>2021-06-06T14:11:10Z</time>
      </trkpt>
      <trkpt lat="44.85734" lon="-0.37279">
        <ele>61.9</ele>
        <time>2021-06-06T14:11:01Z</time>
      </trkpt>
      <trkpt lat="44.85736" lon="-0.37279">
        <ele>61.3</ele>
        <time>2021-06-06T14:10:55Z</time>
      </trkpt>
      <trkpt lat="44.85744" lon="-0.37286">
        <ele>60.5</ele>
        <time>2021-06-06T14:10:38Z</time>
      </trkpt>
      <trkpt lat="44.85748" lon="-0.37287">
        <ele>60</ele>
        <time>2021-06-06T14:10:30Z</time>
      </trkpt>
      <trkpt lat="44.85756" lon="-0.37284">
        <ele>58.4</ele>
        <time>2021-06-06T14:10:00Z</time>
      </trkpt>
      <trkpt lat="44.85748" lon="-0.3729">
        <ele>60.2</ele>
        <time>2021-06-06T14:09:51Z</time>
      </trkpt>
      <trkpt lat="44.8574" lon="-0.37286">
        <ele>62.4</ele>
        <time>2021-06-06T14:09:29Z</time>
      </trkpt>
      <trkpt lat="44.85741" lon="-0.3729">
        <ele>63.3</ele>
        <time>2021-06-06T14:09:14Z</time>
      </trkpt>
      <trkpt lat="44.85741" lon="-0.37294">
        <ele>63.9</ele>
        <time>2021-06-06T14:09:07Z</time>
      </trkpt>
      <trkpt lat="44.85731" lon="-0.37292">
        <ele>65.9</ele>
        <time>2021-06-06T14:08:32Z</time>
      </trkpt>
      <trkpt lat="44.8573" lon="-0.37292">
        <ele>66.4</ele>
        <time>2021-06-06T14:08:30Z</time>
      </trkpt>
      <trkpt lat="44.85724" lon="-0.37301">
        <ele>67.7</ele>
        <time>2021-06-06T14:08:24Z</time>
      </trkpt>
      <trkpt lat="44.85718" lon="-0.37312">
        <ele>69.5</ele>
        <time>2021-06-06T14:08:17Z</time>
      </trkpt>
      <trkpt lat="44.85709" lon="-0.37318">
        <ele>71.1</ele>
        <time>2021-06-06T14:08:09Z</time>
      </trkpt>
      <trkpt lat="44.85702" lon="-0.37326">
        <ele>72.2</ele>
        <time>2021-06-06T14:08:02Z</time>
      </trkpt>
      <trkpt lat="44.85697" lon="-0.37336">
        <ele>73.1</ele>
        <time>2021-06-06T14:07:56Z</time>
      </trkpt>
      <trkpt lat="44.85688" lon="-0.37342">
        <ele>73.8</ele>
        <time>2021-06-06T14:07:51Z</time>
      </trkpt>
      <trkpt lat="44.8568" lon="-0.3735">
        <ele>74</ele>
        <time>2021-06-06T14:07:41Z</time>
      </trkpt>
      <trkpt lat="44.85687" lon="-0.37359">
        <ele>73</ele>
        <time>2021-06-06T14:07:30Z</time>
      </trkpt>
      <trkpt lat="44.85697" lon="-0.37358">
        <ele>72.7</ele>
        <time>2021-06-06T14:07:23Z</time>
      </trkpt>
      <trkpt lat="44.85706" lon="-0.37361">
        <ele>72.3</ele>
        <time>2021-06-06T14:05:33Z</time>
      </trkpt>
      <trkpt lat="44.8571" lon="-0.37359">
        <ele>72.3</ele>
        <time>2021-06-06T14:05:18Z</time>
      </trkpt>
      <trkpt lat="44.85712" lon="-0.37362">
        <ele>72</ele>
        <time>2021-06-06T14:05:09Z</time>
      </trkpt>
      <trkpt lat="44.8572" lon="-0.37369">
        <ele>71.8</ele>
        <time>2021-06-06T14:05:01Z</time>
      </trkpt>
      <trkpt lat="44.85717" lon="-0.37368">
        <ele>71.7</ele>
        <time>2021-06-06T14:04:30Z</time>
      </trkpt>
      <trkpt lat="44.85718" lon="-0.37374">
        <ele>71.7</ele>
        <time>2021-06-06T14:04:19Z</time>
      </trkpt>
      <trkpt lat="44.85718" lon="-0.37374">
        <ele>71.7</ele>
        <time>2021-06-06T14:04:16Z</time>
      </trkpt>
      <trkpt lat="44.85715" lon="-0.37387">
        <ele>71.1</ele>
        <time>2021-06-06T14:03:44Z</time>
      </trkpt>
      <trkpt lat="44.85712" lon="-0.37385">
        <ele>71.2</ele>
        <time>2021-06-06T14:03:36Z</time>
      </trkpt>
      <trkpt lat="44.8571" lon="-0.37367">
        <ele>71.5</ele>
        <time>2021-06-06T14:03:10Z</time>
      </trkpt>
      <trkpt lat="44.85709" lon="-0.37356">
        <ele>71.7</ele>
        <time>2021-06-06T14:02:44Z</time>
      </trkpt>
      <trkpt lat="44.85701" lon="-0.37352">
        <ele>71.5</ele>
        <time>2021-06-06T14:00:37Z</time>
      </trkpt>
      <trkpt lat="44.85701" lon="-0.37353">
        <ele>71.5</ele>
        <time>2021-06-06T14:00:36Z</time>
      </trkpt>
      <trkpt lat="44.85705" lon="-0.37364">
        <ele>71.6</ele>
        <time>2021-06-06T14:00:06Z</time>
      </trkpt>
      <trkpt lat="44.85703" lon="-0.37359">
        <ele>71.6</ele>
        <time>2021-06-06T13:59:53Z</time>
      </trkpt>
      <trkpt lat="44.85707" lon="-0.37358">
        <ele>71.5</ele>
        <time>2021-06-06T13:59:40Z</time>
      </trkpt>
      <trkpt lat="44.85703" lon="-0.37364">
        <ele>71.4</ele>
        <time>2021-06-06T13:59:15Z</time>
      </trkpt>
      <trkpt lat="44.85703" lon="-0.37365">
        <ele>71.5</ele>
        <time>2021-06-06T13:59:12Z</time>
      </trkpt>
      <trkpt lat="44.85712" lon="-0.37371">
        <ele>71.7</ele>
        <time>2021-06-06T13:58:05Z</time>
      </trkpt>
      <trkpt lat="44.85711" lon="-0.37366">
        <ele>71.8</ele>
        <time>2021-06-06T13:57:55Z</time>
      </trkpt>
      <trkpt lat="44.85712" lon="-0.37357">
        <ele>72.1</ele>
        <time>2021-06-06T13:55:38Z</time>
      </trkpt>
      <trkpt lat="44.85711" lon="-0.37356">
        <ele>72.2</ele>
        <time>2021-06-06T13:55:35Z</time>
      </trkpt>
      <trkpt lat="44.85715" lon="-0.37374">
        <ele>70.9</ele>
        <time>2021-06-06T13:47:56Z</time>
      </trkpt>
      <trkpt lat="44.85714" lon="-0.37369">
        <ele>71.2</ele>
        <time>2021-06-06T13:47:48Z</time>
      </trkpt>
      <trkpt lat="44.85705" lon="-0.37362">
        <ele>72.5</ele>
        <time>2021-06-06T13:47:04Z</time>
      </trkpt>
      <trkpt lat="44.85703" lon="-0.37356">
        <ele>73.4</ele>
        <time>2021-06-06T13:46:43Z</time>
      </trkpt>
      <trkpt lat="44.85705" lon="-0.37367">
        <ele>74</ele>
        <time>2021-06-06T13:46:32Z</time>
      </trkpt>
      <trkpt lat="44.85705" lon="-0.37367">
        <ele>74</ele>
        <time>2021-06-06T13:46:32Z</time>
      </trkpt>
      <trkpt lat="44.85705" lon="-0.37367">
        <ele>74</ele>
        <time>2021-06-06T13:46:32Z</time>
      </trkpt>
      <trkpt lat="44.85706" lon="-0.3738">
        <ele>74</ele>
        <time>2021-06-06T13:46:22Z</time>
      </trkpt>
      <trkpt lat="44.85709" lon="-0.37393">
        <ele>73.5</ele>
        <time>2021-06-06T13:46:16Z</time>
      </trkpt>
      <trkpt lat="44.85715" lon="-0.37404">
        <ele>71.9</ele>
        <time>2021-06-06T13:46:08Z</time>
      </trkpt>
      <trkpt lat="44.85724" lon="-0.37402">
        <ele>69.2</ele>
        <time>2021-06-06T13:45:58Z</time>
      </trkpt>
      <trkpt lat="44.85734" lon="-0.37399">
        <ele>68.4</ele>
        <time>2021-06-06T13:45:52Z</time>
      </trkpt>
      <trkpt lat="44.85743" lon="-0.37394">
        <ele>67.1</ele>
        <time>2021-06-06T13:45:43Z</time>
      </trkpt>
      <trkpt lat="44.85749" lon="-0.37405">
        <ele>65.5</ele>
        <time>2021-06-06T13:45:33Z</time>
      </trkpt>
      <trkpt lat="44.85755" lon="-0.37394">
        <ele>64.2</ele>
        <time>2021-06-06T13:45:26Z</time>
      </trkpt>
      <trkpt lat="44.85758" lon="-0.37381">
        <ele>62.9</ele>
        <time>2021-06-06T13:45:18Z</time>
      </trkpt>
      <trkpt lat="44.85755" lon="-0.37368">
        <ele>63</ele>
        <time>2021-06-06T13:45:13Z</time>
      </trkpt>
      <trkpt lat="44.85752" lon="-0.37355">
        <ele>64.2</ele>
        <time>2021-06-06T13:45:04Z</time>
      </trkpt>
      <trkpt lat="44.85745" lon="-0.37346">
        <ele>65.7</ele>
        <time>2021-06-06T13:44:59Z</time>
      </trkpt>
      <trkpt lat="44.85736" lon="-0.37348">
        <ele>67.5</ele>
        <time>2021-06-06T13:44:52Z</time>
      </trkpt>
      <trkpt lat="44.8573" lon="-0.37359">
        <ele>69</ele>
        <time>2021-06-06T13:44:44Z</time>
      </trkpt>
      <trkpt lat="44.85721" lon="-0.37363">
        <ele>69.2</ele>
        <time>2021-06-06T13:44:38Z</time>
      </trkpt>
      <trkpt lat="44.85716" lon="-0.37353">
        <ele>68.6</ele>
        <time>2021-06-06T13:44:30Z</time>
      </trkpt>
      <trkpt lat="44.85717" lon="-0.37337">
        <ele>69.1</ele>
        <time>2021-06-06T13:43:39Z</time>
      </trkpt>
      <trkpt lat="44.85719" lon="-0.37331">
        <ele>68.6</ele>
        <time>2021-06-06T13:43:21Z</time>
      </trkpt>
      <trkpt lat="44.8572" lon="-0.37331">
        <ele>67.4</ele>
        <time>2021-06-06T13:43:16Z</time>
      </trkpt>
      <trkpt lat="44.85726" lon="-0.37321">
        <ele>65.3</ele>
        <time>2021-06-06T13:43:07Z</time>
      </trkpt>
      <trkpt lat="44.85735" lon="-0.37319">
        <ele>64.5</ele>
        <time>2021-06-06T13:43:03Z</time>
      </trkpt>
      <trkpt lat="44.85744" lon="-0.37317">
        <ele>63.6</ele>
        <time>2021-06-06T13:42:55Z</time>
      </trkpt>
      <trkpt lat="44.8575" lon="-0.37315">
        <ele>60.8</ele>
        <time>2021-06-06T13:42:43Z</time>
      </trkpt>
      <trkpt lat="44.85758" lon="-0.37309">
        <ele>58.2</ele>
        <time>2021-06-06T13:42:35Z</time>
      </trkpt>
      <trkpt lat="44.85767" lon="-0.37308">
        <ele>56.8</ele>
        <time>2021-06-06T13:42:29Z</time>
      </trkpt>
      <trkpt lat="44.85777" lon="-0.37306">
        <ele>55.9</ele>
        <time>2021-06-06T13:42:20Z</time>
      </trkpt>
      <trkpt lat="44.85787" lon="-0.37304">
        <ele>56.1</ele>
        <time>2021-06-06T13:42:12Z</time>
      </trkpt>
      <trkpt lat="44.85797" lon="-0.37306">
        <ele>56.2</ele>
        <time>2021-06-06T13:42:07Z</time>
      </trkpt>
      <trkpt lat="44.85806" lon="-0.37307">
        <ele>56.4</ele>
        <time>2021-06-06T13:42:01Z</time>
      </trkpt>
      <trkpt lat="44.85806" lon="-0.37321">
        <ele>56.9</ele>
        <time>2021-06-06T13:41:57Z</time>
      </trkpt>
      <trkpt lat="44.8581" lon="-0.37334">
        <ele>57.2</ele>
        <time>2021-06-06T13:41:54Z</time>
      </trkpt>
      <trkpt lat="44.85814" lon="-0.37347">
        <ele>57.7</ele>
        <time>2021-06-06T13:41:50Z</time>
      </trkpt>
      <trkpt lat="44.85813" lon="-0.37362">
        <ele>58.3</ele>
        <time>2021-06-06T13:41:46Z</time>
      </trkpt>
      <trkpt lat="44.85811" lon="-0.37376">
        <ele>58.7</ele>
        <time>2021-06-06T13:41:41Z</time>
      </trkpt>
      <trkpt lat="44.85813" lon="-0.37389">
        <ele>59.3</ele>
        <time>2021-06-06T13:41:34Z</time>
      </trkpt>
      <trkpt lat="44.85808" lon="-0.37402">
        <ele>60.3</ele>
        <time>2021-06-06T13:41:27Z</time>
      </trkpt>
      <trkpt lat="44.858" lon="-0.3741">
        <ele>61.6</ele>
        <time>2021-06-06T13:41:20Z</time>
      </trkpt>
      <trkpt lat="44.85789" lon="-0.37412">
        <ele>62.4</ele>
        <time>2021-06-06T13:41:17Z</time>
      </trkpt>
      <trkpt lat="44.8578" lon="-0.37419">
        <ele>63.5</ele>
        <time>2021-06-06T13:41:13Z</time>
      </trkpt>
      <trkpt lat="44.85771" lon="-0.37422">
        <ele>65.3</ele>
        <time>2021-06-06T13:41:07Z</time>
      </trkpt>
      <trkpt lat="44.85761" lon="-0.37425">
        <ele>67.9</ele>
        <time>2021-06-06T13:40:59Z</time>
      </trkpt>
      <trkpt lat="44.85751" lon="-0.37427">
        <ele>69.4</ele>
        <time>2021-06-06T13:40:54Z</time>
      </trkpt>
      <trkpt lat="44.85741" lon="-0.37433">
        <ele>70.7</ele>
        <time>2021-06-06T13:40:47Z</time>
      </trkpt>
      <trkpt lat="44.85734" lon="-0.3744">
        <ele>71.3</ele>
        <time>2021-06-06T13:40:42Z</time>
      </trkpt>
      <trkpt lat="44.85726" lon="-0.37429">
        <ele>71.4</ele>
        <time>2021-06-06T13:40:37Z</time>
      </trkpt>
      <trkpt lat="44.85719" lon="-0.37421">
        <ele>72.9</ele>
        <time>2021-06-06T13:38:45Z</time>
      </trkpt>
      <trkpt lat="44.85718" lon="-0.37427">
        <ele>74.2</ele>
        <time>2021-06-06T13:37:53Z</time>
      </trkpt>
      <trkpt lat="44.85718" lon="-0.37432">
        <ele>74</ele>
        <time>2021-06-06T13:37:43Z</time>
      </trkpt>
      <trkpt lat="44.85726" lon="-0.37441">
        <ele>74.1</ele>
        <time>2021-06-06T13:37:31Z</time>
      </trkpt>
      <trkpt lat="44.85726" lon="-0.37454">
        <ele>74</ele>
        <time>2021-06-06T13:37:22Z</time>
      </trkpt>
      <trkpt lat="44.85729" lon="-0.3747">
        <ele>73.6</ele>
        <time>2021-06-06T13:37:16Z</time>
      </trkpt>
      <trkpt lat="44.85737" lon="-0.37477">
        <ele>71.9</ele>
        <time>2021-06-06T13:37:06Z</time>
      </trkpt>
      <trkpt lat="44.85746" lon="-0.37478">
        <ele>70.1</ele>
        <time>2021-06-06T13:36:52Z</time>
      </trkpt>
      <trkpt lat="44.85758" lon="-0.37479">
        <ele>68.7</ele>
        <time>2021-06-06T13:36:44Z</time>
      </trkpt>
      <trkpt lat="44.85767" lon="-0.37482">
        <ele>67.9</ele>
        <time>2021-06-06T13:36:37Z</time>
      </trkpt>
      <trkpt lat="44.85777" lon="-0.37482">
        <ele>67.1</ele>
        <time>2021-06-06T13:36:30Z</time>
      </trkpt>
      <trkpt lat="44.85787" lon="-0.37484">
        <ele>65.6</ele>
        <time>2021-06-06T13:36:21Z</time>
      </trkpt>
      <trkpt lat="44.85795" lon="-0.37479">
        <ele>65.5</ele>
        <time>2021-06-06T13:36:09Z</time>
      </trkpt>
      <trkpt lat="44.85804" lon="-0.37485">
        <ele>66.6</ele>
        <time>2021-06-06T13:36:02Z</time>
      </trkpt>
      <trkpt lat="44.85804" lon="-0.37499">
        <ele>67.3</ele>
        <time>2021-06-06T13:35:57Z</time>
      </trkpt>
      <trkpt lat="44.85806" lon="-0.37512">
        <ele>67.9</ele>
        <time>2021-06-06T13:35:52Z</time>
      </trkpt>
      <trkpt lat="44.85804" lon="-0.37526">
        <ele>68.2</ele>
        <time>2021-06-06T13:35:44Z</time>
      </trkpt>
      <trkpt lat="44.85801" lon="-0.3754">
        <ele>69.6</ele>
        <time>2021-06-06T13:35:26Z</time>
      </trkpt>
      <trkpt lat="44.858" lon="-0.37546">
        <ele>70.9</ele>
        <time>2021-06-06T13:35:19Z</time>
      </trkpt>
      <trkpt lat="44.85802" lon="-0.3756">
        <ele>72.9</ele>
        <time>2021-06-06T13:35:10Z</time>
      </trkpt>
      <trkpt lat="44.85801" lon="-0.37573">
        <ele>74.1</ele>
        <time>2021-06-06T13:35:05Z</time>
      </trkpt>
      <trkpt lat="44.85799" lon="-0.37588">
        <ele>74.8</ele>
        <time>2021-06-06T13:34:58Z</time>
      </trkpt>
      <trkpt lat="44.85806" lon="-0.37599">
        <ele>74.8</ele>
        <time>2021-06-06T13:34:50Z</time>
      </trkpt>
      <trkpt lat="44.85812" lon="-0.37589">
        <ele>72.7</ele>
        <time>2021-06-06T13:34:38Z</time>
      </trkpt>
      <trkpt lat="44.85816" lon="-0.37576">
        <ele>71.1</ele>
        <time>2021-06-06T13:34:31Z</time>
      </trkpt>
      <trkpt lat="44.85814" lon="-0.37562">
        <ele>69.6</ele>
        <time>2021-06-06T13:34:24Z</time>
      </trkpt>
      <trkpt lat="44.85815" lon="-0.37549">
        <ele>68.6</ele>
        <time>2021-06-06T13:34:19Z</time>
      </trkpt>
      <trkpt lat="44.8582" lon="-0.37538">
        <ele>68.1</ele>
        <time>2021-06-06T13:34:14Z</time>
      </trkpt>
      <trkpt lat="44.85825" lon="-0.37524">
        <ele>67.9</ele>
        <time>2021-06-06T13:34:06Z</time>
      </trkpt>
      <trkpt lat="44.85825" lon="-0.37511">
        <ele>67.1</ele>
        <time>2021-06-06T13:33:55Z</time>
      </trkpt>
      <trkpt lat="44.85832" lon="-0.37502">
        <ele>66.2</ele>
        <time>2021-06-06T13:33:47Z</time>
      </trkpt>
      <trkpt lat="44.85832" lon="-0.37488">
        <ele>65.7</ele>
        <time>2021-06-06T13:33:40Z</time>
      </trkpt>
      <trkpt lat="44.85831" lon="-0.37474">
        <ele>65.3</ele>
        <time>2021-06-06T13:33:33Z</time>
      </trkpt>
      <trkpt lat="44.85824" lon="-0.37466">
        <ele>64.2</ele>
        <time>2021-06-06T13:33:26Z</time>
      </trkpt>
      <trkpt lat="44.85824" lon="-0.37452">
        <ele>62.6</ele>
        <time>2021-06-06T13:33:18Z</time>
      </trkpt>
      <trkpt lat="44.85832" lon="-0.37447">
        <ele>62.2</ele>
        <time>2021-06-06T13:33:02Z</time>
      </trkpt>
      <trkpt lat="44.85838" lon="-0.37457">
        <ele>61.3</ele>
        <time>2021-06-06T13:32:54Z</time>
      </trkpt>
      <trkpt lat="44.85845" lon="-0.3745">
        <ele>60.4</ele>
        <time>2021-06-06T13:32:49Z</time>
      </trkpt>
      <trkpt lat="44.85851" lon="-0.37438">
        <ele>59.9</ele>
        <time>2021-06-06T13:32:43Z</time>
      </trkpt>
      <trkpt lat="44.85852" lon="-0.37425">
        <ele>60.2</ele>
        <time>2021-06-06T13:32:34Z</time>
      </trkpt>
      <trkpt lat="44.8586" lon="-0.37417">
        <ele>61.3</ele>
        <time>2021-06-06T13:32:27Z</time>
      </trkpt>
      <trkpt lat="44.85866" lon="-0.37408">
        <ele>62.5</ele>
        <time>2021-06-06T13:32:22Z</time>
      </trkpt>
      <trkpt lat="44.85872" lon="-0.37397">
        <ele>64.1</ele>
        <time>2021-06-06T13:32:17Z</time>
      </trkpt>
      <trkpt lat="44.85883" lon="-0.37403">
        <ele>65.8</ele>
        <time>2021-06-06T13:32:12Z</time>
      </trkpt>
      <trkpt lat="44.85889" lon="-0.37414">
        <ele>67.7</ele>
        <time>2021-06-06T13:32:07Z</time>
      </trkpt>
      <trkpt lat="44.85898" lon="-0.37422">
        <ele>69.8</ele>
        <time>2021-06-06T13:32:01Z</time>
      </trkpt>
      <trkpt lat="44.85904" lon="-0.37412">
        <ele>72</ele>
        <time>2021-06-06T13:31:53Z</time>
      </trkpt>
      <trkpt lat="44.85913" lon="-0.37414">
        <ele>73</ele>
        <time>2021-06-06T13:31:49Z</time>
      </trkpt>
      <trkpt lat="44.85922" lon="-0.37419">
        <ele>73.4</ele>
        <time>2021-06-06T13:31:45Z</time>
      </trkpt>
      <trkpt lat="44.85927" lon="-0.37433">
        <ele>73.6</ele>
        <time>2021-06-06T13:31:41Z</time>
      </trkpt>
      <trkpt lat="44.85928" lon="-0.37446">
        <ele>73.8</ele>
        <time>2021-06-06T13:31:38Z</time>
      </trkpt>
      <trkpt lat="44.85933" lon="-0.37461">
        <ele>74.1</ele>
        <time>2021-06-06T13:31:34Z</time>
      </trkpt>
      <trkpt lat="44.85936" lon="-0.37474">
        <ele>74.4</ele>
        <time>2021-06-06T13:31:29Z</time>
      </trkpt>
      <trkpt lat="44.85942" lon="-0.37486">
        <ele>74.7</ele>
        <time>2021-06-06T13:31:25Z</time>
      </trkpt>
      <trkpt lat="44.85945" lon="-0.37502">
        <ele>75</ele>
        <time>2021-06-06T13:31:20Z</time>
      </trkpt>
      <trkpt lat="44.85947" lon="-0.37516">
        <ele>75.3</ele>
        <time>2021-06-06T13:31:16Z</time>
      </trkpt>
      <trkpt lat="44.85951" lon="-0.37528">
        <ele>75.2</ele>
        <time>2021-06-06T13:30:00Z</time>
      </trkpt>
      <trkpt lat="44.8595" lon="-0.37529">
        <ele>74.2</ele>
        <time>2021-06-06T13:29:54Z</time>
      </trkpt>
      <trkpt lat="44.85941" lon="-0.37535">
        <ele>73.2</ele>
        <time>2021-06-06T13:29:49Z</time>
      </trkpt>
      <trkpt lat="44.85931" lon="-0.37537">
        <ele>71.2</ele>
        <time>2021-06-06T13:29:37Z</time>
      </trkpt>
      <trkpt lat="44.85923" lon="-0.37544">
        <ele>69</ele>
        <time>2021-06-06T13:29:25Z</time>
      </trkpt>
      <trkpt lat="44.85918" lon="-0.37533">
        <ele>67.7</ele>
        <time>2021-06-06T13:29:19Z</time>
      </trkpt>
      <trkpt lat="44.85911" lon="-0.37523">
        <ele>66.9</ele>
        <time>2021-06-06T13:29:13Z</time>
      </trkpt>
      <trkpt lat="44.85902" lon="-0.37527">
        <ele>65.6</ele>
        <time>2021-06-06T13:28:59Z</time>
      </trkpt>
      <trkpt lat="44.85893" lon="-0.37527">
        <ele>64.6</ele>
        <time>2021-06-06T13:28:51Z</time>
      </trkpt>
      <trkpt lat="44.85884" lon="-0.37528">
        <ele>63.2</ele>
        <time>2021-06-06T13:28:41Z</time>
      </trkpt>
      <trkpt lat="44.85875" lon="-0.37527">
        <ele>62.5</ele>
        <time>2021-06-06T13:28:34Z</time>
      </trkpt>
      <trkpt lat="44.85869" lon="-0.37516">
        <ele>61.6</ele>
        <time>2021-06-06T13:28:23Z</time>
      </trkpt>
      <trkpt lat="44.8586" lon="-0.37514">
        <ele>61.9</ele>
        <time>2021-06-06T13:28:14Z</time>
      </trkpt>
      <trkpt lat="44.85849" lon="-0.37511">
        <ele>62.6</ele>
        <time>2021-06-06T13:25:51Z</time>
      </trkpt>
      <trkpt lat="44.85847" lon="-0.37511">
        <ele>63.6</ele>
        <time>2021-06-06T13:25:07Z</time>
      </trkpt>
      <trkpt lat="44.85847" lon="-0.37512">
        <ele>64.4</ele>
        <time>2021-06-06T13:25:02Z</time>
      </trkpt>
      <trkpt lat="44.85838" lon="-0.37521">
        <ele>66.1</ele>
        <time>2021-06-06T13:24:51Z</time>
      </trkpt>
      <trkpt lat="44.85835" lon="-0.37534">
        <ele>67.3</ele>
        <time>2021-06-06T13:24:45Z</time>
      </trkpt>
      <trkpt lat="44.85832" lon="-0.37549">
        <ele>68.6</ele>
        <time>2021-06-06T13:24:39Z</time>
      </trkpt>
      <trkpt lat="44.85831" lon="-0.37562">
        <ele>69.7</ele>
        <time>2021-06-06T13:24:35Z</time>
      </trkpt>
      <trkpt lat="44.85827" lon="-0.37577">
        <ele>71.3</ele>
        <time>2021-06-06T13:24:28Z</time>
      </trkpt>
      <trkpt lat="44.85826" lon="-0.37591">
        <ele>71.8</ele>
        <time>2021-06-06T13:24:18Z</time>
      </trkpt>
      <trkpt lat="44.85835" lon="-0.37594">
        <ele>69.4</ele>
        <time>2021-06-06T13:23:58Z</time>
      </trkpt>
      <trkpt lat="44.85844" lon="-0.37591">
        <ele>70.3</ele>
        <time>2021-06-06T13:23:45Z</time>
      </trkpt>
      <trkpt lat="44.85842" lon="-0.37605">
        <ele>71.4</ele>
        <time>2021-06-06T13:23:36Z</time>
      </trkpt>
      <trkpt lat="44.85842" lon="-0.37619">
        <ele>72.2</ele>
        <time>2021-06-06T13:23:29Z</time>
      </trkpt>
      <trkpt lat="44.85837" lon="-0.37631">
        <ele>70.7</ele>
        <time>2021-06-06T13:23:14Z</time>
      </trkpt>
      <trkpt lat="44.85847" lon="-0.37625">
        <ele>69.2</ele>
        <time>2021-06-06T13:23:08Z</time>
      </trkpt>
      <trkpt lat="44.85854" lon="-0.37615">
        <ele>68.5</ele>
        <time>2021-06-06T13:23:02Z</time>
      </trkpt>
      <trkpt lat="44.8585" lon="-0.37604">
        <ele>68.1</ele>
        <time>2021-06-06T13:22:54Z</time>
      </trkpt>
      <trkpt lat="44.85853" lon="-0.37591">
        <ele>67.2</ele>
        <time>2021-06-06T13:22:39Z</time>
      </trkpt>
      <trkpt lat="44.85861" lon="-0.37592">
        <ele>66.2</ele>
        <time>2021-06-06T13:22:20Z</time>
      </trkpt>
      <trkpt lat="44.85864" lon="-0.37596">
        <ele>67</ele>
        <time>2021-06-06T13:22:09Z</time>
      </trkpt>
      <trkpt lat="44.85862" lon="-0.37609">
        <ele>67.8</ele>
        <time>2021-06-06T13:22:01Z</time>
      </trkpt>
      <trkpt lat="44.85861" lon="-0.37624">
        <ele>68.5</ele>
        <time>2021-06-06T13:21:56Z</time>
      </trkpt>
      <trkpt lat="44.85862" lon="-0.37638">
        <ele>69.6</ele>
        <time>2021-06-06T13:21:51Z</time>
      </trkpt>
      <trkpt lat="44.85864" lon="-0.37651">
        <ele>71.1</ele>
        <time>2021-06-06T13:21:46Z</time>
      </trkpt>
      <trkpt lat="44.85853" lon="-0.37652">
        <ele>72.7</ele>
        <time>2021-06-06T13:21:36Z</time>
      </trkpt>
      <trkpt lat="44.85845" lon="-0.37655">
        <ele>74.4</ele>
        <time>2021-06-06T13:21:19Z</time>
      </trkpt>
      <trkpt lat="44.85851" lon="-0.37664">
        <ele>71.5</ele>
        <time>2021-06-06T13:21:06Z</time>
      </trkpt>
      <trkpt lat="44.8586" lon="-0.3766">
        <ele>69.5</ele>
        <time>2021-06-06T13:20:59Z</time>
      </trkpt>
      <trkpt lat="44.85868" lon="-0.37653">
        <ele>68.2</ele>
        <time>2021-06-06T13:20:54Z</time>
      </trkpt>
      <trkpt lat="44.85877" lon="-0.37648">
        <ele>67.4</ele>
        <time>2021-06-06T13:20:49Z</time>
      </trkpt>
      <trkpt lat="44.85886" lon="-0.37645">
        <ele>67.8</ele>
        <time>2021-06-06T13:20:44Z</time>
      </trkpt>
      <trkpt lat="44.85897" lon="-0.37642">
        <ele>68.4</ele>
        <time>2021-06-06T13:20:41Z</time>
      </trkpt>
      <trkpt lat="44.85907" lon="-0.37641">
        <ele>69.2</ele>
        <time>2021-06-06T13:20:38Z</time>
      </trkpt>
      <trkpt lat="44.85916" lon="-0.37637">
        <ele>70.2</ele>
        <time>2021-06-06T13:20:35Z</time>
      </trkpt>
      <trkpt lat="44.85924" lon="-0.37626">
        <ele>71.9</ele>
        <time>2021-06-06T13:20:31Z</time>
      </trkpt>
      <trkpt lat="44.85932" lon="-0.37619">
        <ele>74.1</ele>
        <time>2021-06-06T13:20:26Z</time>
      </trkpt>
      <trkpt lat="44.85943" lon="-0.37614">
        <ele>75.6</ele>
        <time>2021-06-06T13:20:22Z</time>
      </trkpt>
      <trkpt lat="44.85955" lon="-0.37606">
        <ele>76.8</ele>
        <time>2021-06-06T13:20:17Z</time>
      </trkpt>
      <trkpt lat="44.85965" lon="-0.3761">
        <ele>79</ele>
        <time>2021-06-06T13:18:21Z</time>
      </trkpt>
      <trkpt lat="44.85972" lon="-0.37619">
        <ele>80.7</ele>
        <time>2021-06-06T13:18:12Z</time>
      </trkpt>
      <trkpt lat="44.85983" lon="-0.37622">
        <ele>81.3</ele>
        <time>2021-06-06T13:18:09Z</time>
      </trkpt>
      <trkpt lat="44.85992" lon="-0.37621">
        <ele>81.4</ele>
        <time>2021-06-06T13:18:07Z</time>
      </trkpt>
      <trkpt lat="44.86005" lon="-0.37621">
        <ele>81.2</ele>
        <time>2021-06-06T13:18:04Z</time>
      </trkpt>
      <trkpt lat="44.86017" lon="-0.37624">
        <ele>80.6</ele>
        <time>2021-06-06T13:18:00Z</time>
      </trkpt>
      <trkpt lat="44.86019" lon="-0.37636">
        <ele>80.2</ele>
        <time>2021-06-06T13:17:57Z</time>
      </trkpt>
      <trkpt lat="44.86025" lon="-0.37647">
        <ele>79.8</ele>
        <time>2021-06-06T13:17:54Z</time>
      </trkpt>
      <trkpt lat="44.86023" lon="-0.3766">
        <ele>79.7</ele>
        <time>2021-06-06T13:17:51Z</time>
      </trkpt>
      <trkpt lat="44.86017" lon="-0.37674">
        <ele>80.1</ele>
        <time>2021-06-06T13:17:47Z</time>
      </trkpt>
      <trkpt lat="44.86011" lon="-0.37687">
        <ele>80.9</ele>
        <time>2021-06-06T13:17:43Z</time>
      </trkpt>
      <trkpt lat="44.86009" lon="-0.37702">
        <ele>81.8</ele>
        <time>2021-06-06T13:17:40Z</time>
      </trkpt>
      <trkpt lat="44.8601" lon="-0.37718">
        <ele>82.4</ele>
        <time>2021-06-06T13:17:37Z</time>
      </trkpt>
      <trkpt lat="44.86014" lon="-0.37732">
        <ele>82.8</ele>
        <time>2021-06-06T13:17:34Z</time>
      </trkpt>
      <trkpt lat="44.86016" lon="-0.37746">
        <ele>83</ele>
        <time>2021-06-06T13:17:32Z</time>
      </trkpt>
      <trkpt lat="44.8602" lon="-0.37763">
        <ele>83.4</ele>
        <time>2021-06-06T13:17:29Z</time>
      </trkpt>
      <trkpt lat="44.86023" lon="-0.37776">
        <ele>83.6</ele>
        <time>2021-06-06T13:17:27Z</time>
      </trkpt>
      <trkpt lat="44.86023" lon="-0.37788">
        <ele>83.8</ele>
        <time>2021-06-06T13:17:25Z</time>
      </trkpt>
      <trkpt lat="44.86026" lon="-0.37805">
        <ele>83.9</ele>
        <time>2021-06-06T13:17:22Z</time>
      </trkpt>
      <trkpt lat="44.86034" lon="-0.37815">
        <ele>83.8</ele>
        <time>2021-06-06T13:17:18Z</time>
      </trkpt>
      <trkpt lat="44.86035" lon="-0.37828">
        <ele>83.4</ele>
        <time>2021-06-06T13:17:14Z</time>
      </trkpt>
      <trkpt lat="44.86037" lon="-0.37841">
        <ele>82.7</ele>
        <time>2021-06-06T13:17:10Z</time>
      </trkpt>
      <trkpt lat="44.86035" lon="-0.37853">
        <ele>81.5</ele>
        <time>2021-06-06T13:17:05Z</time>
      </trkpt>
      <trkpt lat="44.86025" lon="-0.3786">
        <ele>80.2</ele>
        <time>2021-06-06T13:16:59Z</time>
      </trkpt>
      <trkpt lat="44.86016" lon="-0.3786">
        <ele>79.6</ele>
        <time>2021-06-06T13:16:55Z</time>
      </trkpt>
      <trkpt lat="44.86004" lon="-0.37861">
        <ele>78.6</ele>
        <time>2021-06-06T13:16:49Z</time>
      </trkpt>
      <trkpt lat="44.85996" lon="-0.37868">
        <ele>77.7</ele>
        <time>2021-06-06T13:16:42Z</time>
      </trkpt>
      <trkpt lat="44.8599" lon="-0.3788">
        <ele>77.6</ele>
        <time>2021-06-06T13:16:34Z</time>
      </trkpt>
      <trkpt lat="44.8598" lon="-0.37882">
        <ele>77.5</ele>
        <time>2021-06-06T13:16:28Z</time>
      </trkpt>
      <trkpt lat="44.85968" lon="-0.37881">
        <ele>77.6</ele>
        <time>2021-06-06T13:16:24Z</time>
      </trkpt>
      <trkpt lat="44.85956" lon="-0.37882">
        <ele>77.8</ele>
        <time>2021-06-06T13:16:20Z</time>
      </trkpt>
      <trkpt lat="44.85942" lon="-0.37884">
        <ele>78.2</ele>
        <time>2021-06-06T13:16:15Z</time>
      </trkpt>
      <trkpt lat="44.85931" lon="-0.37885">
        <ele>78.4</ele>
        <time>2021-06-06T13:16:12Z</time>
      </trkpt>
      <trkpt lat="44.8592" lon="-0.37888">
        <ele>78.8</ele>
        <time>2021-06-06T13:16:09Z</time>
      </trkpt>
      <trkpt lat="44.85911" lon="-0.37889">
        <ele>79.1</ele>
        <time>2021-06-06T13:16:07Z</time>
      </trkpt>
      <trkpt lat="44.85898" lon="-0.37893">
        <ele>79.6</ele>
        <time>2021-06-06T13:16:04Z</time>
      </trkpt>
      <trkpt lat="44.85889" lon="-0.37894">
        <ele>80.1</ele>
        <time>2021-06-06T13:16:02Z</time>
      </trkpt>
      <trkpt lat="44.85879" lon="-0.37897">
        <ele>80.6</ele>
        <time>2021-06-06T13:16:00Z</time>
      </trkpt>
      <trkpt lat="44.85869" lon="-0.37899">
        <ele>81</ele>
        <time>2021-06-06T13:15:58Z</time>
      </trkpt>
      <trkpt lat="44.85855" lon="-0.37904">
        <ele>81.6</ele>
        <time>2021-06-06T13:15:55Z</time>
      </trkpt>
      <trkpt lat="44.85845" lon="-0.37907">
        <ele>81.9</ele>
        <time>2021-06-06T13:15:52Z</time>
      </trkpt>
      <trkpt lat="44.85837" lon="-0.37913">
        <ele>81.9</ele>
        <time>2021-06-06T13:15:48Z</time>
      </trkpt>
      <trkpt lat="44.85826" lon="-0.37918">
        <ele>81.6</ele>
        <time>2021-06-06T13:15:44Z</time>
      </trkpt>
      <trkpt lat="44.85816" lon="-0.37921">
        <ele>80.9</ele>
        <time>2021-06-06T13:15:40Z</time>
      </trkpt>
      <trkpt lat="44.85806" lon="-0.37926">
        <ele>80.2</ele>
        <time>2021-06-06T13:15:35Z</time>
      </trkpt>
      <trkpt lat="44.85795" lon="-0.3793">
        <ele>79.7</ele>
        <time>2021-06-06T13:15:31Z</time>
      </trkpt>
      <trkpt lat="44.85784" lon="-0.37934">
        <ele>79.3</ele>
        <time>2021-06-06T13:15:27Z</time>
      </trkpt>
      <trkpt lat="44.85775" lon="-0.37939">
        <ele>78.9</ele>
        <time>2021-06-06T13:15:23Z</time>
      </trkpt>
      <trkpt lat="44.85766" lon="-0.3794">
        <ele>78.7</ele>
        <time>2021-06-06T13:15:19Z</time>
      </trkpt>
      <trkpt lat="44.85756" lon="-0.37942">
        <ele>78.4</ele>
        <time>2021-06-06T13:15:15Z</time>
      </trkpt>
      <trkpt lat="44.85745" lon="-0.37944">
        <ele>77.6</ele>
        <time>2021-06-06T13:15:10Z</time>
      </trkpt>
      <trkpt lat="44.85735" lon="-0.37946">
        <ele>76.5</ele>
        <time>2021-06-06T13:15:05Z</time>
      </trkpt>
      <trkpt lat="44.85726" lon="-0.37954">
        <ele>75.3</ele>
        <time>2021-06-06T13:15:00Z</time>
      </trkpt>
      <trkpt lat="44.85719" lon="-0.37963">
        <ele>74.8</ele>
        <time>2021-06-06T13:14:56Z</time>
      </trkpt>
      <trkpt lat="44.85709" lon="-0.37969">
        <ele>74.4</ele>
        <time>2021-06-06T13:14:52Z</time>
      </trkpt>
      <trkpt lat="44.85699" lon="-0.37973">
        <ele>74</ele>
        <time>2021-06-06T13:14:48Z</time>
      </trkpt>
      <trkpt lat="44.8569" lon="-0.37973">
        <ele>73.5</ele>
        <time>2021-06-06T13:14:44Z</time>
      </trkpt>
      <trkpt lat="44.85682" lon="-0.37964">
        <ele>73.1</ele>
        <time>2021-06-06T13:14:40Z</time>
      </trkpt>
      <trkpt lat="44.85678" lon="-0.37953">
        <ele>72.3</ele>
        <time>2021-06-06T13:14:36Z</time>
      </trkpt>
      <trkpt lat="44.85673" lon="-0.3794">
        <ele>71.7</ele>
        <time>2021-06-06T13:14:32Z</time>
      </trkpt>
      <trkpt lat="44.85668" lon="-0.37927">
        <ele>71.2</ele>
        <time>2021-06-06T13:14:28Z</time>
      </trkpt>
      <trkpt lat="44.85662" lon="-0.37915">
        <ele>70.7</ele>
        <time>2021-06-06T13:14:24Z</time>
      </trkpt>
      <trkpt lat="44.85656" lon="-0.37902">
        <ele>70.3</ele>
        <time>2021-06-06T13:14:20Z</time>
      </trkpt>
      <trkpt lat="44.85649" lon="-0.37889">
        <ele>69.7</ele>
        <time>2021-06-06T13:14:16Z</time>
      </trkpt>
      <trkpt lat="44.85642" lon="-0.37878">
        <ele>69.1</ele>
        <time>2021-06-06T13:14:12Z</time>
      </trkpt>
      <trkpt lat="44.85635" lon="-0.37869">
        <ele>68.5</ele>
        <time>2021-06-06T13:14:08Z</time>
      </trkpt>
      <trkpt lat="44.85626" lon="-0.37873">
        <ele>67.8</ele>
        <time>2021-06-06T13:14:03Z</time>
      </trkpt>
      <trkpt lat="44.85617" lon="-0.37878">
        <ele>67.1</ele>
        <time>2021-06-06T13:13:59Z</time>
      </trkpt>
      <trkpt lat="44.85608" lon="-0.37884">
        <ele>66.6</ele>
        <time>2021-06-06T13:13:55Z</time>
      </trkpt>
      <trkpt lat="44.85598" lon="-0.37891">
        <ele>66.2</ele>
        <time>2021-06-06T13:13:51Z</time>
      </trkpt>
      <trkpt lat="44.8559" lon="-0.37898">
        <ele>66.2</ele>
        <time>2021-06-06T13:13:48Z</time>
      </trkpt>
      <trkpt lat="44.8558" lon="-0.37904">
        <ele>66.3</ele>
        <time>2021-06-06T13:13:45Z</time>
      </trkpt>
      <trkpt lat="44.85571" lon="-0.37911">
        <ele>66.6</ele>
        <time>2021-06-06T13:13:42Z</time>
      </trkpt>
      <trkpt lat="44.8556" lon="-0.37918">
        <ele>66.9</ele>
        <time>2021-06-06T13:13:39Z</time>
      </trkpt>
      <trkpt lat="44.8555" lon="-0.37926">
        <ele>67.3</ele>
        <time>2021-06-06T13:13:36Z</time>
      </trkpt>
      <trkpt lat="44.85539" lon="-0.37932">
        <ele>67.6</ele>
        <time>2021-06-06T13:13:33Z</time>
      </trkpt>
      <trkpt lat="44.85529" lon="-0.37938">
        <ele>68.1</ele>
        <time>2021-06-06T13:13:30Z</time>
      </trkpt>
      <trkpt lat="44.85519" lon="-0.37945">
        <ele>68.6</ele>
        <time>2021-06-06T13:13:27Z</time>
      </trkpt>
      <trkpt lat="44.85509" lon="-0.37952">
        <ele>69</ele>
        <time>2021-06-06T13:13:24Z</time>
      </trkpt>
      <trkpt lat="44.85501" lon="-0.37958">
        <ele>69.2</ele>
        <time>2021-06-06T13:13:21Z</time>
      </trkpt>
      <trkpt lat="44.85491" lon="-0.37963">
        <ele>69.1</ele>
        <time>2021-06-06T13:13:17Z</time>
      </trkpt>
      <trkpt lat="44.85482" lon="-0.37969">
        <ele>68.9</ele>
        <time>2021-06-06T13:13:13Z</time>
      </trkpt>
      <trkpt lat="44.85473" lon="-0.37977">
        <ele>68.7</ele>
        <time>2021-06-06T13:13:08Z</time>
      </trkpt>
      <trkpt lat="44.85464" lon="-0.37982">
        <ele>68.6</ele>
        <time>2021-06-06T13:13:03Z</time>
      </trkpt>
      <trkpt lat="44.85455" lon="-0.37988">
        <ele>68.6</ele>
        <time>2021-06-06T13:12:57Z</time>
      </trkpt>
      <trkpt lat="44.85445" lon="-0.37992">
        <ele>68.3</ele>
        <time>2021-06-06T13:11:01Z</time>
      </trkpt>
      <trkpt lat="44.85444" lon="-0.37992">
        <ele>68.4</ele>
        <time>2021-06-06T13:10:58Z</time>
      </trkpt>
      <trkpt lat="44.85437" lon="-0.38">
        <ele>67.4</ele>
        <time>2021-06-06T13:10:50Z</time>
      </trkpt>
      <trkpt lat="44.85427" lon="-0.38004">
        <ele>66.2</ele>
        <time>2021-06-06T13:10:41Z</time>
      </trkpt>
      <trkpt lat="44.85418" lon="-0.38008">
        <ele>64.5</ele>
        <time>2021-06-06T13:10:30Z</time>
      </trkpt>
      <trkpt lat="44.85409" lon="-0.38006">
        <ele>62.9</ele>
        <time>2021-06-06T13:10:19Z</time>
      </trkpt>
      <trkpt lat="44.85398" lon="-0.3801">
        <ele>59.6</ele>
        <time>2021-06-06T13:09:46Z</time>
      </trkpt>
      <trkpt lat="44.85396" lon="-0.38013">
        <ele>58.9</ele>
        <time>2021-06-06T13:09:38Z</time>
      </trkpt>
      <trkpt lat="44.85392" lon="-0.38017">
        <ele>59.5</ele>
        <time>2021-06-06T13:08:23Z</time>
      </trkpt>
      <trkpt lat="44.8539" lon="-0.38021">
        <ele>58</ele>
        <time>2021-06-06T13:08:15Z</time>
      </trkpt>
      <trkpt lat="44.85387" lon="-0.38033">
        <ele>56.8</ele>
        <time>2021-06-06T13:08:08Z</time>
      </trkpt>
      <trkpt lat="44.85383" lon="-0.38046">
        <ele>56</ele>
        <time>2021-06-06T13:08:03Z</time>
      </trkpt>
      <trkpt lat="44.85377" lon="-0.38058">
        <ele>54.6</ele>
        <time>2021-06-06T13:07:55Z</time>
      </trkpt>
      <trkpt lat="44.85371" lon="-0.3807">
        <ele>53.7</ele>
        <time>2021-06-06T13:07:50Z</time>
      </trkpt>
      <trkpt lat="44.85364" lon="-0.38079">
        <ele>51.5</ele>
        <time>2021-06-06T13:07:41Z</time>
      </trkpt>
      <trkpt lat="44.85355" lon="-0.38077">
        <ele>50</ele>
        <time>2021-06-06T13:07:33Z</time>
      </trkpt>
      <trkpt lat="44.85345" lon="-0.38074">
        <ele>49.2</ele>
        <time>2021-06-06T13:07:27Z</time>
      </trkpt>
      <trkpt lat="44.85336" lon="-0.3808">
        <ele>48.4</ele>
        <time>2021-06-06T13:07:18Z</time>
      </trkpt>
      <trkpt lat="44.85326" lon="-0.38078">
        <ele>47.7</ele>
        <time>2021-06-06T13:07:11Z</time>
      </trkpt>
      <trkpt lat="44.85317" lon="-0.38087">
        <ele>47.2</ele>
        <time>2021-06-06T13:07:04Z</time>
      </trkpt>
      <trkpt lat="44.85311" lon="-0.38098">
        <ele>46.8</ele>
        <time>2021-06-06T13:06:59Z</time>
      </trkpt>
      <trkpt lat="44.85302" lon="-0.38096">
        <ele>46.3</ele>
        <time>2021-06-06T13:06:53Z</time>
      </trkpt>
      <trkpt lat="44.85294" lon="-0.38088">
        <ele>45.7</ele>
        <time>2021-06-06T13:06:47Z</time>
      </trkpt>
      <trkpt lat="44.85284" lon="-0.38086">
        <ele>45.2</ele>
        <time>2021-06-06T13:06:42Z</time>
      </trkpt>
      <trkpt lat="44.85275" lon="-0.38086">
        <ele>44.7</ele>
        <time>2021-06-06T13:06:36Z</time>
      </trkpt>
      <trkpt lat="44.85266" lon="-0.38082">
        <ele>44.2</ele>
        <time>2021-06-06T13:06:31Z</time>
      </trkpt>
      <trkpt lat="44.85257" lon="-0.38082">
        <ele>43.9</ele>
        <time>2021-06-06T13:06:26Z</time>
      </trkpt>
      <trkpt lat="44.85247" lon="-0.38087">
        <ele>43.8</ele>
        <time>2021-06-06T13:06:18Z</time>
      </trkpt>
      <trkpt lat="44.8524" lon="-0.38096">
        <ele>43.8</ele>
        <time>2021-06-06T13:06:14Z</time>
      </trkpt>
      <trkpt lat="44.85231" lon="-0.38097">
        <ele>43.5</ele>
        <time>2021-06-06T13:06:06Z</time>
      </trkpt>
      <trkpt lat="44.85221" lon="-0.38094">
        <ele>43.2</ele>
        <time>2021-06-06T13:06:00Z</time>
      </trkpt>
      <trkpt lat="44.85211" lon="-0.38084">
        <ele>43.1</ele>
        <time>2021-06-06T13:05:54Z</time>
      </trkpt>
      <trkpt lat="44.85206" lon="-0.38074">
        <ele>43.2</ele>
        <time>2021-06-06T13:05:49Z</time>
      </trkpt>
      <trkpt lat="44.85197" lon="-0.38071">
        <ele>43.4</ele>
        <time>2021-06-06T13:05:46Z</time>
      </trkpt>
      <trkpt lat="44.85187" lon="-0.38069">
        <ele>43.6</ele>
        <time>2021-06-06T13:05:41Z</time>
      </trkpt>
      <trkpt lat="44.85178" lon="-0.38066">
        <ele>43.6</ele>
        <time>2021-06-06T13:05:37Z</time>
      </trkpt>
      <trkpt lat="44.85166" lon="-0.38066">
        <ele>43.4</ele>
        <time>2021-06-06T13:05:31Z</time>
      </trkpt>
      <trkpt lat="44.85157" lon="-0.38066">
        <ele>43.3</ele>
        <time>2021-06-06T13:05:27Z</time>
      </trkpt>
      <trkpt lat="44.85148" lon="-0.38065">
        <ele>42.9</ele>
        <time>2021-06-06T13:05:21Z</time>
      </trkpt>
      <trkpt lat="44.85139" lon="-0.3807">
        <ele>42.4</ele>
        <time>2021-06-06T13:05:14Z</time>
      </trkpt>
      <trkpt lat="44.8513" lon="-0.38064">
        <ele>42.5</ele>
        <time>2021-06-06T13:05:09Z</time>
      </trkpt>
      <trkpt lat="44.85123" lon="-0.38074">
        <ele>42.8</ele>
        <time>2021-06-06T13:05:04Z</time>
      </trkpt>
      <trkpt lat="44.85118" lon="-0.38086">
        <ele>43.2</ele>
        <time>2021-06-06T13:05:00Z</time>
      </trkpt>
      <trkpt lat="44.85117" lon="-0.38099">
        <ele>43.6</ele>
        <time>2021-06-06T13:04:56Z</time>
      </trkpt>
      <trkpt lat="44.85121" lon="-0.38111">
        <ele>43.8</ele>
        <time>2021-06-06T13:04:52Z</time>
      </trkpt>
      <trkpt lat="44.85126" lon="-0.38123">
        <ele>43.9</ele>
        <time>2021-06-06T13:04:47Z</time>
      </trkpt>
      <trkpt lat="44.8513" lon="-0.38137">
        <ele>43.6</ele>
        <time>2021-06-06T13:04:42Z</time>
      </trkpt>
      <trkpt lat="44.85132" lon="-0.38152">
        <ele>43.1</ele>
        <time>2021-06-06T13:04:37Z</time>
      </trkpt>
      <trkpt lat="44.85138" lon="-0.38166">
        <ele>42.3</ele>
        <time>2021-06-06T13:04:32Z</time>
      </trkpt>
      <trkpt lat="44.85137" lon="-0.38179">
        <ele>41.5</ele>
        <time>2021-06-06T13:04:28Z</time>
      </trkpt>
      <trkpt lat="44.85137" lon="-0.38193">
        <ele>40.8</ele>
        <time>2021-06-06T13:04:24Z</time>
      </trkpt>
      <trkpt lat="44.85132" lon="-0.38205">
        <ele>40.2</ele>
        <time>2021-06-06T13:04:19Z</time>
      </trkpt>
      <trkpt lat="44.85126" lon="-0.38218">
        <ele>40.3</ele>
        <time>2021-06-06T13:04:15Z</time>
      </trkpt>
      <trkpt lat="44.85117" lon="-0.38225">
        <ele>40.4</ele>
        <time>2021-06-06T13:04:02Z</time>
      </trkpt>
      <trkpt lat="44.85125" lon="-0.38234">
        <ele>40.5</ele>
        <time>2021-06-06T13:03:56Z</time>
      </trkpt>
      <trkpt lat="44.85135" lon="-0.38237">
        <ele>40.8</ele>
        <time>2021-06-06T13:03:51Z</time>
      </trkpt>
      <trkpt lat="44.85144" lon="-0.38233">
        <ele>41</ele>
        <time>2021-06-06T13:03:48Z</time>
      </trkpt>
      <trkpt lat="44.85153" lon="-0.38228">
        <ele>41.4</ele>
        <time>2021-06-06T13:03:44Z</time>
      </trkpt>
      <trkpt lat="44.85163" lon="-0.38226">
        <ele>41.9</ele>
        <time>2021-06-06T13:03:40Z</time>
      </trkpt>
      <trkpt lat="44.85173" lon="-0.38219">
        <ele>42.3</ele>
        <time>2021-06-06T13:03:37Z</time>
      </trkpt>
      <trkpt lat="44.85183" lon="-0.38209">
        <ele>43</ele>
        <time>2021-06-06T13:03:32Z</time>
      </trkpt>
      <trkpt lat="44.8518" lon="-0.38195">
        <ele>43.5</ele>
        <time>2021-06-06T13:03:28Z</time>
      </trkpt>
      <trkpt lat="44.85185" lon="-0.38179">
        <ele>43.8</ele>
        <time>2021-06-06T13:03:25Z</time>
      </trkpt>
      <trkpt lat="44.85188" lon="-0.38162">
        <ele>44</ele>
        <time>2021-06-06T13:03:22Z</time>
      </trkpt>
      <trkpt lat="44.8519" lon="-0.38149">
        <ele>44.3</ele>
        <time>2021-06-06T13:03:18Z</time>
      </trkpt>
      <trkpt lat="44.85196" lon="-0.38135">
        <ele>44.5</ele>
        <time>2021-06-06T13:03:11Z</time>
      </trkpt>
      <trkpt lat="44.85199" lon="-0.38123">
        <ele>44.8</ele>
        <time>2021-06-06T13:03:04Z</time>
      </trkpt>
      <trkpt lat="44.85209" lon="-0.38125">
        <ele>45</ele>
        <time>2021-06-06T13:02:59Z</time>
      </trkpt>
      <trkpt lat="44.85218" lon="-0.38126">
        <ele>45.3</ele>
        <time>2021-06-06T13:02:53Z</time>
      </trkpt>
      <trkpt lat="44.85226" lon="-0.38133">
        <ele>45</ele>
        <time>2021-06-06T13:02:43Z</time>
      </trkpt>
      <trkpt lat="44.85232" lon="-0.38144">
        <ele>45</ele>
        <time>2021-06-06T13:02:39Z</time>
      </trkpt>
      <trkpt lat="44.8524" lon="-0.38151">
        <ele>45</ele>
        <time>2021-06-06T13:02:35Z</time>
      </trkpt>
      <trkpt lat="44.85244" lon="-0.38165">
        <ele>44.9</ele>
        <time>2021-06-06T13:02:30Z</time>
      </trkpt>
      <trkpt lat="44.85245" lon="-0.38178">
        <ele>44.9</ele>
        <time>2021-06-06T13:02:23Z</time>
      </trkpt>
      <trkpt lat="44.85256" lon="-0.3818">
        <ele>45.3</ele>
        <time>2021-06-06T13:02:17Z</time>
      </trkpt>
      <trkpt lat="44.85266" lon="-0.38178">
        <ele>45.8</ele>
        <time>2021-06-06T13:02:12Z</time>
      </trkpt>
      <trkpt lat="44.85275" lon="-0.38178">
        <ele>46.1</ele>
        <time>2021-06-06T13:02:08Z</time>
      </trkpt>
      <trkpt lat="44.85284" lon="-0.38178">
        <ele>46.2</ele>
        <time>2021-06-06T13:02:03Z</time>
      </trkpt>
      <trkpt lat="44.85292" lon="-0.38171">
        <ele>46.3</ele>
        <time>2021-06-06T13:01:56Z</time>
      </trkpt>
      <trkpt lat="44.85294" lon="-0.38158">
        <ele>46.7</ele>
        <time>2021-06-06T13:01:49Z</time>
      </trkpt>
      <trkpt lat="44.85303" lon="-0.38156">
        <ele>47.4</ele>
        <time>2021-06-06T13:01:45Z</time>
      </trkpt>
      <trkpt lat="44.85314" lon="-0.38148">
        <ele>48.3</ele>
        <time>2021-06-06T13:01:41Z</time>
      </trkpt>
      <trkpt lat="44.85324" lon="-0.38141">
        <ele>49.4</ele>
        <time>2021-06-06T13:01:37Z</time>
      </trkpt>
      <trkpt lat="44.85334" lon="-0.38137">
        <ele>50.7</ele>
        <time>2021-06-06T13:01:33Z</time>
      </trkpt>
      <trkpt lat="44.85343" lon="-0.38142">
        <ele>51.7</ele>
        <time>2021-06-06T13:01:30Z</time>
      </trkpt>
      <trkpt lat="44.85353" lon="-0.38149">
        <ele>53.1</ele>
        <time>2021-06-06T13:01:26Z</time>
      </trkpt>
      <trkpt lat="44.85355" lon="-0.38163">
        <ele>54.1</ele>
        <time>2021-06-06T13:01:23Z</time>
      </trkpt>
      <trkpt lat="44.85359" lon="-0.38174">
        <ele>54.9</ele>
        <time>2021-06-06T13:01:19Z</time>
      </trkpt>
      <trkpt lat="44.8536" lon="-0.38188">
        <ele>56</ele>
        <time>2021-06-06T13:01:14Z</time>
      </trkpt>
      <trkpt lat="44.85361" lon="-0.38203">
        <ele>56.8</ele>
        <time>2021-06-06T13:01:09Z</time>
      </trkpt>
      <trkpt lat="44.85365" lon="-0.38214">
        <ele>56.5</ele>
        <time>2021-06-06T13:01:01Z</time>
      </trkpt>
      <trkpt lat="44.85362" lon="-0.38228">
        <ele>56.1</ele>
        <time>2021-06-06T13:00:55Z</time>
      </trkpt>
      <trkpt lat="44.85359" lon="-0.3824">
        <ele>55.7</ele>
        <time>2021-06-06T13:00:47Z</time>
      </trkpt>
      <trkpt lat="44.85359" lon="-0.3824">
        <ele>55.7</ele>
        <time>2021-06-06T13:00:47Z</time>
      </trkpt>
      <trkpt lat="44.85359" lon="-0.3824">
        <ele>55.6</ele>
        <time>2021-06-06T13:00:47Z</time>
      </trkpt>
      <trkpt lat="44.8535" lon="-0.38238">
        <ele>53.7</ele>
        <time>2021-06-06T13:00:22Z</time>
      </trkpt>
      <trkpt lat="44.85347" lon="-0.38242">
        <ele>52.5</ele>
        <time>2021-06-06T13:00:10Z</time>
      </trkpt>
      <trkpt lat="44.85341" lon="-0.38249">
        <ele>50.3</ele>
        <time>2021-06-06T12:59:58Z</time>
      </trkpt>
      <trkpt lat="44.85332" lon="-0.38256">
        <ele>48.7</ele>
        <time>2021-06-06T12:59:49Z</time>
      </trkpt>
      <trkpt lat="44.85322" lon="-0.38256">
        <ele>48.2</ele>
        <time>2021-06-06T12:59:41Z</time>
      </trkpt>
      <trkpt lat="44.85313" lon="-0.38258">
        <ele>49.8</ele>
        <time>2021-06-06T12:59:12Z</time>
      </trkpt>
      <trkpt lat="44.85316" lon="-0.38256">
        <ele>51.9</ele>
        <time>2021-06-06T12:59:05Z</time>
      </trkpt>
      <trkpt lat="44.85325" lon="-0.38253">
        <ele>54.1</ele>
        <time>2021-06-06T12:59:00Z</time>
      </trkpt>
      <trkpt lat="44.85335" lon="-0.38255">
        <ele>55.3</ele>
        <time>2021-06-06T12:58:57Z</time>
      </trkpt>
      <trkpt lat="44.85344" lon="-0.38251">
        <ele>56.6</ele>
        <time>2021-06-06T12:58:54Z</time>
      </trkpt>
      <trkpt lat="44.85352" lon="-0.38243">
        <ele>58</ele>
        <time>2021-06-06T12:58:50Z</time>
      </trkpt>
      <trkpt lat="44.85362" lon="-0.38249">
        <ele>59.4</ele>
        <time>2021-06-06T12:58:45Z</time>
      </trkpt>
      <trkpt lat="44.85361" lon="-0.38264">
        <ele>60.2</ele>
        <time>2021-06-06T12:58:41Z</time>
      </trkpt>
      <trkpt lat="44.85363" lon="-0.38277">
        <ele>60.8</ele>
        <time>2021-06-06T12:58:37Z</time>
      </trkpt>
      <trkpt lat="44.85362" lon="-0.38293">
        <ele>61.2</ele>
        <time>2021-06-06T12:58:33Z</time>
      </trkpt>
      <trkpt lat="44.8536" lon="-0.38306">
        <ele>61.2</ele>
        <time>2021-06-06T12:58:28Z</time>
      </trkpt>
      <trkpt lat="44.85358" lon="-0.38322">
        <ele>60</ele>
        <time>2021-06-06T12:55:10Z</time>
      </trkpt>
      <trkpt lat="44.85356" lon="-0.38323">
        <ele>60.3</ele>
        <time>2021-06-06T12:54:10Z</time>
      </trkpt>
      <trkpt lat="44.85355" lon="-0.38327">
        <ele>59.1</ele>
        <time>2021-06-06T12:54:01Z</time>
      </trkpt>
      <trkpt lat="44.85346" lon="-0.38328">
        <ele>56.8</ele>
        <time>2021-06-06T12:53:47Z</time>
      </trkpt>
      <trkpt lat="44.85337" lon="-0.38319">
        <ele>54.9</ele>
        <time>2021-06-06T12:53:23Z</time>
      </trkpt>
      <trkpt lat="44.85333" lon="-0.38317">
        <ele>53.1</ele>
        <time>2021-06-06T12:53:13Z</time>
      </trkpt>
      <trkpt lat="44.85326" lon="-0.38308">
        <ele>51.5</ele>
        <time>2021-06-06T12:53:04Z</time>
      </trkpt>
      <trkpt lat="44.85319" lon="-0.38297">
        <ele>50.2</ele>
        <time>2021-06-06T12:52:57Z</time>
      </trkpt>
      <trkpt lat="44.85315" lon="-0.38284">
        <ele>49.1</ele>
        <time>2021-06-06T12:52:52Z</time>
      </trkpt>
      <trkpt lat="44.85307" lon="-0.38275">
        <ele>47.9</ele>
        <time>2021-06-06T12:52:46Z</time>
      </trkpt>
      <trkpt lat="44.85297" lon="-0.38272">
        <ele>47</ele>
        <time>2021-06-06T12:52:40Z</time>
      </trkpt>
      <trkpt lat="44.85288" lon="-0.38275">
        <ele>46.6</ele>
        <time>2021-06-06T12:52:36Z</time>
      </trkpt>
      <trkpt lat="44.8528" lon="-0.38285">
        <ele>46.4</ele>
        <time>2021-06-06T12:52:31Z</time>
      </trkpt>
      <trkpt lat="44.85272" lon="-0.38293">
        <ele>46</ele>
        <time>2021-06-06T12:52:21Z</time>
      </trkpt>
      <trkpt lat="44.85265" lon="-0.38301">
        <ele>45.8</ele>
        <time>2021-06-06T12:52:09Z</time>
      </trkpt>
      <trkpt lat="44.85261" lon="-0.38296">
        <ele>44.5</ele>
        <time>2021-06-06T12:51:59Z</time>
      </trkpt>
      <trkpt lat="44.85252" lon="-0.38291">
        <ele>43.9</ele>
        <time>2021-06-06T12:51:55Z</time>
      </trkpt>
      <trkpt lat="44.85243" lon="-0.38286">
        <ele>43.4</ele>
        <time>2021-06-06T12:51:51Z</time>
      </trkpt>
      <trkpt lat="44.85232" lon="-0.38287">
        <ele>43.3</ele>
        <time>2021-06-06T12:51:45Z</time>
      </trkpt>
      <trkpt lat="44.85227" lon="-0.383">
        <ele>43.4</ele>
        <time>2021-06-06T12:51:41Z</time>
      </trkpt>
      <trkpt lat="44.85225" lon="-0.38314">
        <ele>43.6</ele>
        <time>2021-06-06T12:51:37Z</time>
      </trkpt>
      <trkpt lat="44.85228" lon="-0.38329">
        <ele>43.9</ele>
        <time>2021-06-06T12:51:32Z</time>
      </trkpt>
      <trkpt lat="44.85223" lon="-0.3834">
        <ele>44.4</ele>
        <time>2021-06-06T12:51:28Z</time>
      </trkpt>
      <trkpt lat="44.85224" lon="-0.38355">
        <ele>45.6</ele>
        <time>2021-06-06T12:51:22Z</time>
      </trkpt>
      <trkpt lat="44.85227" lon="-0.38369">
        <ele>47</ele>
        <time>2021-06-06T12:51:17Z</time>
      </trkpt>
      <trkpt lat="44.85236" lon="-0.38375">
        <ele>49.1</ele>
        <time>2021-06-06T12:51:12Z</time>
      </trkpt>
      <trkpt lat="44.85247" lon="-0.38374">
        <ele>50.9</ele>
        <time>2021-06-06T12:51:09Z</time>
      </trkpt>
      <trkpt lat="44.85256" lon="-0.38374">
        <ele>52.2</ele>
        <time>2021-06-06T12:51:07Z</time>
      </trkpt>
      <trkpt lat="44.8527" lon="-0.38373">
        <ele>54</ele>
        <time>2021-06-06T12:51:04Z</time>
      </trkpt>
      <trkpt lat="44.85281" lon="-0.38371">
        <ele>55.5</ele>
        <time>2021-06-06T12:51:01Z</time>
      </trkpt>
      <trkpt lat="44.8529" lon="-0.38379">
        <ele>56.8</ele>
        <time>2021-06-06T12:50:58Z</time>
      </trkpt>
      <trkpt lat="44.853" lon="-0.38383">
        <ele>58.1</ele>
        <time>2021-06-06T12:50:54Z</time>
      </trkpt>
      <trkpt lat="44.8531" lon="-0.38386">
        <ele>58.9</ele>
        <time>2021-06-06T12:50:49Z</time>
      </trkpt>
      <trkpt lat="44.8532" lon="-0.3839">
        <ele>58.9</ele>
        <time>2021-06-06T12:50:38Z</time>
      </trkpt>
      <trkpt lat="44.85328" lon="-0.38382">
        <ele>59.2</ele>
        <time>2021-06-06T12:50:27Z</time>
      </trkpt>
      <trkpt lat="44.85336" lon="-0.3838">
        <ele>60.2</ele>
        <time>2021-06-06T12:50:19Z</time>
      </trkpt>
      <trkpt lat="44.85344" lon="-0.38374">
        <ele>60.8</ele>
        <time>2021-06-06T12:50:15Z</time>
      </trkpt>
      <trkpt lat="44.85353" lon="-0.38379">
        <ele>60.9</ele>
        <time>2021-06-06T12:50:00Z</time>
      </trkpt>
      <trkpt lat="44.85356" lon="-0.38386">
        <ele>62.1</ele>
        <time>2021-06-06T12:49:50Z</time>
      </trkpt>
      <trkpt lat="44.85366" lon="-0.3839">
        <ele>62.3</ele>
        <time>2021-06-06T12:49:46Z</time>
      </trkpt>
      <trkpt lat="44.85368" lon="-0.38405">
        <ele>62.3</ele>
        <time>2021-06-06T12:49:42Z</time>
      </trkpt>
      <trkpt lat="44.85368" lon="-0.38421">
        <ele>61.9</ele>
        <time>2021-06-06T12:49:37Z</time>
      </trkpt>
      <trkpt lat="44.85369" lon="-0.38436">
        <ele>61</ele>
        <time>2021-06-06T12:49:31Z</time>
      </trkpt>
      <trkpt lat="44.85369" lon="-0.38449">
        <ele>60.1</ele>
        <time>2021-06-06T12:49:26Z</time>
      </trkpt>
      <trkpt lat="44.85369" lon="-0.38462">
        <ele>59.1</ele>
        <time>2021-06-06T12:49:21Z</time>
      </trkpt>
      <trkpt lat="44.8537" lon="-0.38478">
        <ele>58</ele>
        <time>2021-06-06T12:49:16Z</time>
      </trkpt>
      <trkpt lat="44.85371" lon="-0.38493">
        <ele>57.4</ele>
        <time>2021-06-06T12:49:11Z</time>
      </trkpt>
      <trkpt lat="44.85372" lon="-0.38507">
        <ele>56.7</ele>
        <time>2021-06-06T12:48:38Z</time>
      </trkpt>
      <trkpt lat="44.85373" lon="-0.38511">
        <ele>54.6</ele>
        <time>2021-06-06T12:48:30Z</time>
      </trkpt>
      <trkpt lat="44.85377" lon="-0.38524">
        <ele>53.2</ele>
        <time>2021-06-06T12:48:25Z</time>
      </trkpt>
      <trkpt lat="44.85384" lon="-0.38534">
        <ele>51.9</ele>
        <time>2021-06-06T12:48:20Z</time>
      </trkpt>
      <trkpt lat="44.85392" lon="-0.38543">
        <ele>51.4</ele>
        <time>2021-06-06T12:48:16Z</time>
      </trkpt>
      <trkpt lat="44.85402" lon="-0.38552">
        <ele>51.3</ele>
        <time>2021-06-06T12:48:12Z</time>
      </trkpt>
      <trkpt lat="44.85409" lon="-0.38562">
        <ele>51.5</ele>
        <time>2021-06-06T12:48:09Z</time>
      </trkpt>
      <trkpt lat="44.85417" lon="-0.38575">
        <ele>52.1</ele>
        <time>2021-06-06T12:48:06Z</time>
      </trkpt>
      <trkpt lat="44.85422" lon="-0.38587">
        <ele>52.5</ele>
        <time>2021-06-06T12:48:04Z</time>
      </trkpt>
      <trkpt lat="44.85425" lon="-0.38603">
        <ele>53.1</ele>
        <time>2021-06-06T12:48:01Z</time>
      </trkpt>
      <trkpt lat="44.85429" lon="-0.3862">
        <ele>53.8</ele>
        <time>2021-06-06T12:47:58Z</time>
      </trkpt>
      <trkpt lat="44.85433" lon="-0.38636">
        <ele>54.6</ele>
        <time>2021-06-06T12:47:55Z</time>
      </trkpt>
      <trkpt lat="44.85437" lon="-0.38653">
        <ele>55.6</ele>
        <time>2021-06-06T12:47:52Z</time>
      </trkpt>
      <trkpt lat="44.85443" lon="-0.38663">
        <ele>56.1</ele>
        <time>2021-06-06T12:47:50Z</time>
      </trkpt>
      <trkpt lat="44.85453" lon="-0.38669">
        <ele>56.7</ele>
        <time>2021-06-06T12:47:48Z</time>
      </trkpt>
      <trkpt lat="44.85465" lon="-0.38669">
        <ele>57</ele>
        <time>2021-06-06T12:47:46Z</time>
      </trkpt>
      <trkpt lat="44.85475" lon="-0.38667">
        <ele>57.2</ele>
        <time>2021-06-06T12:47:44Z</time>
      </trkpt>
      <trkpt lat="44.85486" lon="-0.38667">
        <ele>57.2</ele>
        <time>2021-06-06T12:47:41Z</time>
      </trkpt>
      <trkpt lat="44.85489" lon="-0.38682">
        <ele>57.1</ele>
        <time>2021-06-06T12:47:36Z</time>
      </trkpt>
      <trkpt lat="44.85491" lon="-0.38695">
        <ele>57.2</ele>
        <time>2021-06-06T12:47:32Z</time>
      </trkpt>
      <trkpt lat="44.85493" lon="-0.38709">
        <ele>57.3</ele>
        <time>2021-06-06T12:47:28Z</time>
      </trkpt>
      <trkpt lat="44.85496" lon="-0.38725">
        <ele>57.5</ele>
        <time>2021-06-06T12:47:24Z</time>
      </trkpt>
      <trkpt lat="44.85498" lon="-0.38741">
        <ele>57.9</ele>
        <time>2021-06-06T12:47:20Z</time>
      </trkpt>
      <trkpt lat="44.855" lon="-0.38756">
        <ele>58.3</ele>
        <time>2021-06-06T12:47:17Z</time>
      </trkpt>
      <trkpt lat="44.85503" lon="-0.38769">
        <ele>58.7</ele>
        <time>2021-06-06T12:47:14Z</time>
      </trkpt>
      <trkpt lat="44.85512" lon="-0.3878">
        <ele>59.1</ele>
        <time>2021-06-06T12:47:10Z</time>
      </trkpt>
      <trkpt lat="44.85521" lon="-0.38784">
        <ele>59.4</ele>
        <time>2021-06-06T12:47:07Z</time>
      </trkpt>
      <trkpt lat="44.8553" lon="-0.38787">
        <ele>59.6</ele>
        <time>2021-06-06T12:47:04Z</time>
      </trkpt>
      <trkpt lat="44.85536" lon="-0.38799">
        <ele>60</ele>
        <time>2021-06-06T12:47:00Z</time>
      </trkpt>
      <trkpt lat="44.85538" lon="-0.38812">
        <ele>60.4</ele>
        <time>2021-06-06T12:46:55Z</time>
      </trkpt>
      <trkpt lat="44.85539" lon="-0.38825">
        <ele>60.5</ele>
        <time>2021-06-06T12:46:51Z</time>
      </trkpt>
      <trkpt lat="44.85539" lon="-0.3884">
        <ele>61.7</ele>
        <time>2021-06-06T12:45:24Z</time>
      </trkpt>
      <trkpt lat="44.85538" lon="-0.38842">
        <ele>62.4</ele>
        <time>2021-06-06T12:45:19Z</time>
      </trkpt>
      <trkpt lat="44.85542" lon="-0.38853">
        <ele>63.2</ele>
        <time>2021-06-06T12:45:13Z</time>
      </trkpt>
      <trkpt lat="44.85551" lon="-0.38852">
        <ele>63.6</ele>
        <time>2021-06-06T12:45:10Z</time>
      </trkpt>
      <trkpt lat="44.85563" lon="-0.38849">
        <ele>63.9</ele>
        <time>2021-06-06T12:45:06Z</time>
      </trkpt>
      <trkpt lat="44.85571" lon="-0.38856">
        <ele>64.7</ele>
        <time>2021-06-06T12:44:58Z</time>
      </trkpt>
      <trkpt lat="44.8558" lon="-0.3886">
        <ele>65.1</ele>
        <time>2021-06-06T12:44:54Z</time>
      </trkpt>
      <trkpt lat="44.85587" lon="-0.38868">
        <ele>65.5</ele>
        <time>2021-06-06T12:44:50Z</time>
      </trkpt>
      <trkpt lat="44.85588" lon="-0.38881">
        <ele>65.5</ele>
        <time>2021-06-06T12:44:41Z</time>
      </trkpt>
      <trkpt lat="44.85578" lon="-0.38877">
        <ele>64.9</ele>
        <time>2021-06-06T12:44:31Z</time>
      </trkpt>
      <trkpt lat="44.85568" lon="-0.38877">
        <ele>64.2</ele>
        <time>2021-06-06T12:44:24Z</time>
      </trkpt>
      <trkpt lat="44.85559" lon="-0.3887">
        <ele>64.1</ele>
        <time>2021-06-06T12:44:18Z</time>
      </trkpt>
      <trkpt lat="44.85544" lon="-0.38866">
        <ele>63.8</ele>
        <time>2021-06-06T12:43:09Z</time>
      </trkpt>
      <trkpt lat="44.85541" lon="-0.38865">
        <ele>65.3</ele>
        <time>2021-06-06T12:43:03Z</time>
      </trkpt>
      <trkpt lat="44.85531" lon="-0.38869">
        <ele>65.3</ele>
        <time>2021-06-06T12:42:56Z</time>
      </trkpt>
      <trkpt lat="44.85522" lon="-0.38877">
        <ele>65.2</ele>
        <time>2021-06-06T12:42:52Z</time>
      </trkpt>
      <trkpt lat="44.85511" lon="-0.38879">
        <ele>64.7</ele>
        <time>2021-06-06T12:42:47Z</time>
      </trkpt>
      <trkpt lat="44.85501" lon="-0.38879">
        <ele>64.4</ele>
        <time>2021-06-06T12:42:43Z</time>
      </trkpt>
      <trkpt lat="44.8549" lon="-0.3888">
        <ele>64.3</ele>
        <time>2021-06-06T12:42:39Z</time>
      </trkpt>
      <trkpt lat="44.8548" lon="-0.38883">
        <ele>64.3</ele>
        <time>2021-06-06T12:42:35Z</time>
      </trkpt>
      <trkpt lat="44.8547" lon="-0.3888">
        <ele>64.2</ele>
        <time>2021-06-06T12:42:30Z</time>
      </trkpt>
      <trkpt lat="44.85459" lon="-0.38881">
        <ele>64.2</ele>
        <time>2021-06-06T12:42:26Z</time>
      </trkpt>
      <trkpt lat="44.8545" lon="-0.38884">
        <ele>64</ele>
        <time>2021-06-06T12:42:21Z</time>
      </trkpt>
      <trkpt lat="44.85442" lon="-0.38877">
        <ele>63.3</ele>
        <time>2021-06-06T12:42:15Z</time>
      </trkpt>
      <trkpt lat="44.85433" lon="-0.3887">
        <ele>62.5</ele>
        <time>2021-06-06T12:42:09Z</time>
      </trkpt>
      <trkpt lat="44.85429" lon="-0.38857">
        <ele>62.3</ele>
        <time>2021-06-06T12:42:02Z</time>
      </trkpt>
      <trkpt lat="44.85421" lon="-0.38847">
        <ele>62.6</ele>
        <time>2021-06-06T12:41:58Z</time>
      </trkpt>
      <trkpt lat="44.85412" lon="-0.38841">
        <ele>63.1</ele>
        <time>2021-06-06T12:41:55Z</time>
      </trkpt>
      <trkpt lat="44.85402" lon="-0.38833">
        <ele>64</ele>
        <time>2021-06-06T12:41:50Z</time>
      </trkpt>
      <trkpt lat="44.85393" lon="-0.38837">
        <ele>64</ele>
        <time>2021-06-06T12:41:45Z</time>
      </trkpt>
      <trkpt lat="44.85388" lon="-0.38848">
        <ele>63.8</ele>
        <time>2021-06-06T12:41:41Z</time>
      </trkpt>
      <trkpt lat="44.85378" lon="-0.38852">
        <ele>63.2</ele>
        <time>2021-06-06T12:41:36Z</time>
      </trkpt>
      <trkpt lat="44.85368" lon="-0.38851">
        <ele>62.7</ele>
        <time>2021-06-06T12:41:32Z</time>
      </trkpt>
      <trkpt lat="44.85358" lon="-0.38853">
        <ele>62.2</ele>
        <time>2021-06-06T12:41:28Z</time>
      </trkpt>
      <trkpt lat="44.85349" lon="-0.38852">
        <ele>61.3</ele>
        <time>2021-06-06T12:41:23Z</time>
      </trkpt>
      <trkpt lat="44.8534" lon="-0.38847">
        <ele>60.6</ele>
        <time>2021-06-06T12:41:19Z</time>
      </trkpt>
      <trkpt lat="44.85336" lon="-0.38834">
        <ele>60.1</ele>
        <time>2021-06-06T12:41:15Z</time>
      </trkpt>
      <trkpt lat="44.85326" lon="-0.3883">
        <ele>59.7</ele>
        <time>2021-06-06T12:39:50Z</time>
      </trkpt>
      <trkpt lat="44.85327" lon="-0.38833">
        <ele>61.6</ele>
        <time>2021-06-06T12:39:44Z</time>
      </trkpt>
      <trkpt lat="44.85333" lon="-0.38842">
        <ele>62.1</ele>
        <time>2021-06-06T12:39:24Z</time>
      </trkpt>
      <trkpt lat="44.85332" lon="-0.38839">
        <ele>60.2</ele>
        <time>2021-06-06T12:39:15Z</time>
      </trkpt>
      <trkpt lat="44.8533" lon="-0.38827">
        <ele>59.8</ele>
        <time>2021-06-06T12:39:04Z</time>
      </trkpt>
      <trkpt lat="44.85321" lon="-0.38822">
        <ele>59</ele>
        <time>2021-06-06T12:38:59Z</time>
      </trkpt>
      <trkpt lat="44.8531" lon="-0.38817">
        <ele>58.4</ele>
        <time>2021-06-06T12:38:54Z</time>
      </trkpt>
      <trkpt lat="44.85303" lon="-0.38809">
        <ele>58.2</ele>
        <time>2021-06-06T12:38:49Z</time>
      </trkpt>
      <trkpt lat="44.85293" lon="-0.3881">
        <ele>58.2</ele>
        <time>2021-06-06T12:38:44Z</time>
      </trkpt>
      <trkpt lat="44.85286" lon="-0.38819">
        <ele>58.2</ele>
        <time>2021-06-06T12:38:37Z</time>
      </trkpt>
      <trkpt lat="44.85279" lon="-0.3883">
        <ele>58.5</ele>
        <time>2021-06-06T12:38:27Z</time>
      </trkpt>
      <trkpt lat="44.85273" lon="-0.38842">
        <ele>57.4</ele>
        <time>2021-06-06T12:38:06Z</time>
      </trkpt>
      <trkpt lat="44.85267" lon="-0.38844">
        <ele>56.9</ele>
        <time>2021-06-06T12:37:35Z</time>
      </trkpt>
      <trkpt lat="44.85264" lon="-0.38845">
        <ele>56.1</ele>
        <time>2021-06-06T12:37:29Z</time>
      </trkpt>
      <trkpt lat="44.85255" lon="-0.38851">
        <ele>54.9</ele>
        <time>2021-06-06T12:37:20Z</time>
      </trkpt>
      <trkpt lat="44.85247" lon="-0.38845">
        <ele>53.9</ele>
        <time>2021-06-06T12:37:02Z</time>
      </trkpt>
      <trkpt lat="44.85249" lon="-0.38846">
        <ele>53.8</ele>
        <time>2021-06-06T12:36:57Z</time>
      </trkpt>
      <trkpt lat="44.85252" lon="-0.38859">
        <ele>54.1</ele>
        <time>2021-06-06T12:36:39Z</time>
      </trkpt>
      <trkpt lat="44.85252" lon="-0.3886">
        <ele>54.2</ele>
        <time>2021-06-06T12:36:38Z</time>
      </trkpt>
      <trkpt lat="44.85255" lon="-0.38872">
        <ele>54.9</ele>
        <time>2021-06-06T12:36:29Z</time>
      </trkpt>
      <trkpt lat="44.85248" lon="-0.38881">
        <ele>55.3</ele>
        <time>2021-06-06T12:36:25Z</time>
      </trkpt>
      <trkpt lat="44.85243" lon="-0.38892">
        <ele>55.3</ele>
        <time>2021-06-06T12:36:21Z</time>
      </trkpt>
      <trkpt lat="44.85246" lon="-0.38907">
        <ele>54.9</ele>
        <time>2021-06-06T12:36:16Z</time>
      </trkpt>
      <trkpt lat="44.85244" lon="-0.38919">
        <ele>55.2</ele>
        <time>2021-06-06T12:36:11Z</time>
      </trkpt>
      <trkpt lat="44.85248" lon="-0.38934">
        <ele>56.1</ele>
        <time>2021-06-06T12:36:05Z</time>
      </trkpt>
      <trkpt lat="44.85258" lon="-0.38933">
        <ele>56.8</ele>
        <time>2021-06-06T12:36:01Z</time>
      </trkpt>
      <trkpt lat="44.85268" lon="-0.38934">
        <ele>57.4</ele>
        <time>2021-06-06T12:35:56Z</time>
      </trkpt>
      <trkpt lat="44.85275" lon="-0.38926">
        <ele>57.9</ele>
        <time>2021-06-06T12:35:50Z</time>
      </trkpt>
      <trkpt lat="44.85277" lon="-0.38913">
        <ele>58.8</ele>
        <time>2021-06-06T12:35:43Z</time>
      </trkpt>
      <trkpt lat="44.85286" lon="-0.38908">
        <ele>60</ele>
        <time>2021-06-06T12:35:32Z</time>
      </trkpt>
      <trkpt lat="44.85287" lon="-0.3891">
        <ele>60.3</ele>
        <time>2021-06-06T12:35:27Z</time>
      </trkpt>
      <trkpt lat="44.85299" lon="-0.38924">
        <ele>61.3</ele>
        <time>2021-06-06T12:34:15Z</time>
      </trkpt>
      <trkpt lat="44.85306" lon="-0.38926">
        <ele>62.2</ele>
        <time>2021-06-06T12:34:08Z</time>
      </trkpt>
      <trkpt lat="44.85312" lon="-0.38937">
        <ele>63.1</ele>
        <time>2021-06-06T12:34:02Z</time>
      </trkpt>
      <trkpt lat="44.85324" lon="-0.38941">
        <ele>63.4</ele>
        <time>2021-06-06T12:33:36Z</time>
      </trkpt>
      <trkpt lat="44.85332" lon="-0.38948">
        <ele>66.1</ele>
        <time>2021-06-06T12:32:55Z</time>
      </trkpt>
      <trkpt lat="44.85332" lon="-0.38949">
        <ele>66.1</ele>
        <time>2021-06-06T12:32:54Z</time>
      </trkpt>
      <trkpt lat="44.85339" lon="-0.38957">
        <ele>67.1</ele>
        <time>2021-06-06T12:32:43Z</time>
      </trkpt>
      <trkpt lat="44.85348" lon="-0.38962">
        <ele>67.6</ele>
        <time>2021-06-06T12:32:39Z</time>
      </trkpt>
      <trkpt lat="44.85356" lon="-0.3897">
        <ele>68</ele>
        <time>2021-06-06T12:32:35Z</time>
      </trkpt>
      <trkpt lat="44.85365" lon="-0.3898">
        <ele>68.4</ele>
        <time>2021-06-06T12:32:31Z</time>
      </trkpt>
      <trkpt lat="44.85371" lon="-0.38993">
        <ele>69</ele>
        <time>2021-06-06T12:32:27Z</time>
      </trkpt>
      <trkpt lat="44.85375" lon="-0.39006">
        <ele>69.7</ele>
        <time>2021-06-06T12:32:23Z</time>
      </trkpt>
      <trkpt lat="44.85385" lon="-0.39004">
        <ele>70.2</ele>
        <time>2021-06-06T12:32:20Z</time>
      </trkpt>
      <trkpt lat="44.85397" lon="-0.39006">
        <ele>71.1</ele>
        <time>2021-06-06T12:32:16Z</time>
      </trkpt>
      <trkpt lat="44.85402" lon="-0.39018">
        <ele>71.7</ele>
        <time>2021-06-06T12:32:13Z</time>
      </trkpt>
      <trkpt lat="44.8541" lon="-0.39028">
        <ele>72.2</ele>
        <time>2021-06-06T12:32:10Z</time>
      </trkpt>
      <trkpt lat="44.85422" lon="-0.39033">
        <ele>72.8</ele>
        <time>2021-06-06T12:32:06Z</time>
      </trkpt>
      <trkpt lat="44.8543" lon="-0.39042">
        <ele>73.5</ele>
        <time>2021-06-06T12:32:02Z</time>
      </trkpt>
      <trkpt lat="44.85435" lon="-0.39054">
        <ele>74</ele>
        <time>2021-06-06T12:31:58Z</time>
      </trkpt>
      <trkpt lat="44.85437" lon="-0.39068">
        <ele>74.4</ele>
        <time>2021-06-06T12:31:54Z</time>
      </trkpt>
      <trkpt lat="44.85444" lon="-0.39078">
        <ele>74.6</ele>
        <time>2021-06-06T12:31:50Z</time>
      </trkpt>
      <trkpt lat="44.85452" lon="-0.39084">
        <ele>74.9</ele>
        <time>2021-06-06T12:31:45Z</time>
      </trkpt>
      <trkpt lat="44.85461" lon="-0.39086">
        <ele>75.2</ele>
        <time>2021-06-06T12:31:42Z</time>
      </trkpt>
      <trkpt lat="44.85471" lon="-0.39088">
        <ele>75.3</ele>
        <time>2021-06-06T12:31:39Z</time>
      </trkpt>
      <trkpt lat="44.8548" lon="-0.39089">
        <ele>75.5</ele>
        <time>2021-06-06T12:31:34Z</time>
      </trkpt>
      <trkpt lat="44.85491" lon="-0.39095">
        <ele>75.7</ele>
        <time>2021-06-06T12:31:30Z</time>
      </trkpt>
      <trkpt lat="44.85499" lon="-0.39104">
        <ele>75.7</ele>
        <time>2021-06-06T12:31:26Z</time>
      </trkpt>
      <trkpt lat="44.85507" lon="-0.39112">
        <ele>75.8</ele>
        <time>2021-06-06T12:31:22Z</time>
      </trkpt>
      <trkpt lat="44.85517" lon="-0.39115">
        <ele>76</ele>
        <time>2021-06-06T12:31:18Z</time>
      </trkpt>
      <trkpt lat="44.85524" lon="-0.39125">
        <ele>76.6</ele>
        <time>2021-06-06T12:31:13Z</time>
      </trkpt>
      <trkpt lat="44.85535" lon="-0.39124">
        <ele>77.2</ele>
        <time>2021-06-06T12:31:08Z</time>
      </trkpt>
      <trkpt lat="44.85542" lon="-0.39114">
        <ele>77.4</ele>
        <time>2021-06-06T12:31:04Z</time>
      </trkpt>
      <trkpt lat="44.85554" lon="-0.3911">
        <ele>77.7</ele>
        <time>2021-06-06T12:31:00Z</time>
      </trkpt>
      <trkpt lat="44.85565" lon="-0.39105">
        <ele>77.7</ele>
        <time>2021-06-06T12:30:57Z</time>
      </trkpt>
      <trkpt lat="44.85573" lon="-0.391">
        <ele>77.6</ele>
        <time>2021-06-06T12:30:53Z</time>
      </trkpt>
      <trkpt lat="44.85584" lon="-0.39089">
        <ele>76.9</ele>
        <time>2021-06-06T12:30:47Z</time>
      </trkpt>
      <trkpt lat="44.85588" lon="-0.39076">
        <ele>75.9</ele>
        <time>2021-06-06T12:30:41Z</time>
      </trkpt>
      <trkpt lat="44.8559" lon="-0.39063">
        <ele>75</ele>
        <time>2021-06-06T12:30:35Z</time>
      </trkpt>
      <trkpt lat="44.85594" lon="-0.39051">
        <ele>74</ele>
        <time>2021-06-06T12:30:28Z</time>
      </trkpt>
      <trkpt lat="44.85601" lon="-0.39043">
        <ele>73.6</ele>
        <time>2021-06-06T12:30:24Z</time>
      </trkpt>
      <trkpt lat="44.85612" lon="-0.39038">
        <ele>73.2</ele>
        <time>2021-06-06T12:30:18Z</time>
      </trkpt>
      <trkpt lat="44.85622" lon="-0.39036">
        <ele>73.1</ele>
        <time>2021-06-06T12:30:14Z</time>
      </trkpt>
      <trkpt lat="44.85633" lon="-0.39037">
        <ele>73.6</ele>
        <time>2021-06-06T12:30:03Z</time>
      </trkpt>
      <trkpt lat="44.85643" lon="-0.39043">
        <ele>75.5</ele>
        <time>2021-06-06T12:29:31Z</time>
      </trkpt>
      <trkpt lat="44.85643" lon="-0.39048">
        <ele>76.3</ele>
        <time>2021-06-06T12:29:23Z</time>
      </trkpt>
      <trkpt lat="44.85649" lon="-0.39061">
        <ele>76.9</ele>
        <time>2021-06-06T12:29:17Z</time>
      </trkpt>
      <trkpt lat="44.85651" lon="-0.39076">
        <ele>77.1</ele>
        <time>2021-06-06T12:29:12Z</time>
      </trkpt>
      <trkpt lat="44.85658" lon="-0.39087">
        <ele>76.9</ele>
        <time>2021-06-06T12:29:04Z</time>
      </trkpt>
      <trkpt lat="44.85663" lon="-0.39101">
        <ele>77.2</ele>
        <time>2021-06-06T12:28:58Z</time>
      </trkpt>
      <trkpt lat="44.85663" lon="-0.39104">
        <ele>77.6</ele>
        <time>2021-06-06T12:28:53Z</time>
      </trkpt>
      <trkpt lat="44.85668" lon="-0.39116">
        <ele>78.3</ele>
        <time>2021-06-06T12:28:46Z</time>
      </trkpt>
      <trkpt lat="44.85669" lon="-0.39129">
        <ele>78.7</ele>
        <time>2021-06-06T12:28:39Z</time>
      </trkpt>
      <trkpt lat="44.85663" lon="-0.3914">
        <ele>78.5</ele>
        <time>2021-06-06T12:28:34Z</time>
      </trkpt>
      <trkpt lat="44.85653" lon="-0.39145">
        <ele>78.1</ele>
        <time>2021-06-06T12:28:27Z</time>
      </trkpt>
      <trkpt lat="44.85644" lon="-0.3914">
        <ele>77.5</ele>
        <time>2021-06-06T12:28:20Z</time>
      </trkpt>
      <trkpt lat="44.85635" lon="-0.39141">
        <ele>77.3</ele>
        <time>2021-06-06T12:28:16Z</time>
      </trkpt>
      <trkpt lat="44.85625" lon="-0.3914">
        <ele>77.2</ele>
        <time>2021-06-06T12:28:12Z</time>
      </trkpt>
      <trkpt lat="44.85616" lon="-0.3914">
        <ele>77.2</ele>
        <time>2021-06-06T12:28:07Z</time>
      </trkpt>
      <trkpt lat="44.85612" lon="-0.39151">
        <ele>76.9</ele>
        <time>2021-06-06T12:28:00Z</time>
      </trkpt>
      <trkpt lat="44.85601" lon="-0.39152">
        <ele>76.9</ele>
        <time>2021-06-06T12:27:51Z</time>
      </trkpt>
      <trkpt lat="44.85597" lon="-0.39164">
        <ele>76.9</ele>
        <time>2021-06-06T12:27:44Z</time>
      </trkpt>
      <trkpt lat="44.85598" lon="-0.39167">
        <ele>78</ele>
        <time>2021-06-06T12:26:54Z</time>
      </trkpt>
      <trkpt lat="44.85595" lon="-0.39174">
        <ele>77.1</ele>
        <time>2021-06-06T12:26:44Z</time>
      </trkpt>
      <trkpt lat="44.85588" lon="-0.39183">
        <ele>76.6</ele>
        <time>2021-06-06T12:26:36Z</time>
      </trkpt>
      <trkpt lat="44.85584" lon="-0.39196">
        <ele>76.2</ele>
        <time>2021-06-06T12:26:29Z</time>
      </trkpt>
      <trkpt lat="44.85585" lon="-0.39211">
        <ele>76</ele>
        <time>2021-06-06T12:26:23Z</time>
      </trkpt>
      <trkpt lat="44.85587" lon="-0.39223">
        <ele>75.9</ele>
        <time>2021-06-06T12:26:18Z</time>
      </trkpt>
      <trkpt lat="44.8559" lon="-0.39236">
        <ele>75.6</ele>
        <time>2021-06-06T12:26:13Z</time>
      </trkpt>
      <trkpt lat="44.85591" lon="-0.39251">
        <ele>75.3</ele>
        <time>2021-06-06T12:26:06Z</time>
      </trkpt>
      <trkpt lat="44.85589" lon="-0.39265">
        <ele>74.9</ele>
        <time>2021-06-06T12:25:59Z</time>
      </trkpt>
      <trkpt lat="44.85582" lon="-0.39274">
        <ele>74.3</ele>
        <time>2021-06-06T12:25:52Z</time>
      </trkpt>
      <trkpt lat="44.85577" lon="-0.39286">
        <ele>73.8</ele>
        <time>2021-06-06T12:25:46Z</time>
      </trkpt>
      <trkpt lat="44.85569" lon="-0.39293">
        <ele>73.1</ele>
        <time>2021-06-06T12:25:40Z</time>
      </trkpt>
      <trkpt lat="44.85562" lon="-0.39302">
        <ele>72.6</ele>
        <time>2021-06-06T12:25:36Z</time>
      </trkpt>
      <trkpt lat="44.85553" lon="-0.39303">
        <ele>71.8</ele>
        <time>2021-06-06T12:25:30Z</time>
      </trkpt>
      <trkpt lat="44.85543" lon="-0.39298">
        <ele>70.8</ele>
        <time>2021-06-06T12:25:25Z</time>
      </trkpt>
      <trkpt lat="44.85533" lon="-0.39297">
        <ele>70.1</ele>
        <time>2021-06-06T12:25:21Z</time>
      </trkpt>
      <trkpt lat="44.85523" lon="-0.39301">
        <ele>69.2</ele>
        <time>2021-06-06T12:25:16Z</time>
      </trkpt>
      <trkpt lat="44.85514" lon="-0.39295">
        <ele>68.5</ele>
        <time>2021-06-06T12:25:12Z</time>
      </trkpt>
      <trkpt lat="44.85504" lon="-0.39294">
        <ele>67.7</ele>
        <time>2021-06-06T12:25:07Z</time>
      </trkpt>
      <trkpt lat="44.85494" lon="-0.39293">
        <ele>67.2</ele>
        <time>2021-06-06T12:25:03Z</time>
      </trkpt>
      <trkpt lat="44.85486" lon="-0.39295">
        <ele>67.2</ele>
        <time>2021-06-06T12:25:00Z</time>
      </trkpt>
      <trkpt lat="44.85475" lon="-0.39291">
        <ele>67.6</ele>
        <time>2021-06-06T12:24:55Z</time>
      </trkpt>
      <trkpt lat="44.85472" lon="-0.39279">
        <ele>67.9</ele>
        <time>2021-06-06T12:24:52Z</time>
      </trkpt>
      <trkpt lat="44.85463" lon="-0.39273">
        <ele>68.2</ele>
        <time>2021-06-06T12:24:49Z</time>
      </trkpt>
      <trkpt lat="44.85454" lon="-0.39264">
        <ele>68.4</ele>
        <time>2021-06-06T12:24:45Z</time>
      </trkpt>
      <trkpt lat="44.85447" lon="-0.39257">
        <ele>68.9</ele>
        <time>2021-06-06T12:24:40Z</time>
      </trkpt>
      <trkpt lat="44.85439" lon="-0.3925">
        <ele>69.3</ele>
        <time>2021-06-06T12:24:36Z</time>
      </trkpt>
      <trkpt lat="44.85429" lon="-0.39243">
        <ele>70</ele>
        <time>2021-06-06T12:24:32Z</time>
      </trkpt>
      <trkpt lat="44.85424" lon="-0.3923">
        <ele>70.8</ele>
        <time>2021-06-06T12:24:28Z</time>
      </trkpt>
      <trkpt lat="44.85417" lon="-0.39217">
        <ele>71.4</ele>
        <time>2021-06-06T12:24:24Z</time>
      </trkpt>
      <trkpt lat="44.85412" lon="-0.39204">
        <ele>72.2</ele>
        <time>2021-06-06T12:24:18Z</time>
      </trkpt>
      <trkpt lat="44.85403" lon="-0.39203">
        <ele>72.6</ele>
        <time>2021-06-06T12:24:14Z</time>
      </trkpt>
      <trkpt lat="44.85393" lon="-0.39198">
        <ele>72.7</ele>
        <time>2021-06-06T12:24:09Z</time>
      </trkpt>
      <trkpt lat="44.85383" lon="-0.392">
        <ele>72.4</ele>
        <time>2021-06-06T12:24:03Z</time>
      </trkpt>
      <trkpt lat="44.85375" lon="-0.39209">
        <ele>72.1</ele>
        <time>2021-06-06T12:23:57Z</time>
      </trkpt>
      <trkpt lat="44.85371" lon="-0.39222">
        <ele>71.3</ele>
        <time>2021-06-06T12:23:50Z</time>
      </trkpt>
      <trkpt lat="44.85368" lon="-0.39234">
        <ele>70.4</ele>
        <time>2021-06-06T12:23:44Z</time>
      </trkpt>
      <trkpt lat="44.8536" lon="-0.39245">
        <ele>69.7</ele>
        <time>2021-06-06T12:23:38Z</time>
      </trkpt>
      <trkpt lat="44.85351" lon="-0.3925">
        <ele>69.1</ele>
        <time>2021-06-06T12:23:33Z</time>
      </trkpt>
      <trkpt lat="44.85342" lon="-0.39252">
        <ele>69.1</ele>
        <time>2021-06-06T12:23:27Z</time>
      </trkpt>
      <trkpt lat="44.85331" lon="-0.39246">
        <ele>69.2</ele>
        <time>2021-06-06T12:23:22Z</time>
      </trkpt>
      <trkpt lat="44.85323" lon="-0.39238">
        <ele>68.9</ele>
        <time>2021-06-06T12:23:16Z</time>
      </trkpt>
      <trkpt lat="44.85314" lon="-0.39232">
        <ele>68.5</ele>
        <time>2021-06-06T12:23:09Z</time>
      </trkpt>
      <trkpt lat="44.85304" lon="-0.39233">
        <ele>68</ele>
        <time>2021-06-06T12:23:02Z</time>
      </trkpt>
      <trkpt lat="44.85296" lon="-0.39239">
        <ele>67.6</ele>
        <time>2021-06-06T12:22:58Z</time>
      </trkpt>
      <trkpt lat="44.85289" lon="-0.39248">
        <ele>67</ele>
        <time>2021-06-06T12:22:52Z</time>
      </trkpt>
      <trkpt lat="44.85281" lon="-0.39242">
        <ele>66.2</ele>
        <time>2021-06-06T12:22:46Z</time>
      </trkpt>
      <trkpt lat="44.85274" lon="-0.39233">
        <ele>65.4</ele>
        <time>2021-06-06T12:22:39Z</time>
      </trkpt>
      <trkpt lat="44.85272" lon="-0.39219">
        <ele>64</ele>
        <time>2021-06-06T12:22:33Z</time>
      </trkpt>
      <trkpt lat="44.85267" lon="-0.39206">
        <ele>63.8</ele>
        <time>2021-06-06T12:22:25Z</time>
      </trkpt>
      <trkpt lat="44.85266" lon="-0.39193">
        <ele>62.7</ele>
        <time>2021-06-06T12:22:17Z</time>
      </trkpt>
      <trkpt lat="44.85261" lon="-0.39182">
        <ele>61.8</ele>
        <time>2021-06-06T12:22:10Z</time>
      </trkpt>
      <trkpt lat="44.85257" lon="-0.39168">
        <ele>61.4</ele>
        <time>2021-06-06T12:22:05Z</time>
      </trkpt>
      <trkpt lat="44.85258" lon="-0.39154">
        <ele>61.3</ele>
        <time>2021-06-06T12:22:00Z</time>
      </trkpt>
      <trkpt lat="44.85263" lon="-0.39143">
        <ele>61</ele>
        <time>2021-06-06T12:21:56Z</time>
      </trkpt>
      <trkpt lat="44.85261" lon="-0.39128">
        <ele>61</ele>
        <time>2021-06-06T12:21:51Z</time>
      </trkpt>
      <trkpt lat="44.85264" lon="-0.39113">
        <ele>61.3</ele>
        <time>2021-06-06T12:21:46Z</time>
      </trkpt>
      <trkpt lat="44.8527" lon="-0.39102">
        <ele>61.6</ele>
        <time>2021-06-06T12:21:43Z</time>
      </trkpt>
      <trkpt lat="44.85276" lon="-0.39091">
        <ele>62</ele>
        <time>2021-06-06T12:21:39Z</time>
      </trkpt>
      <trkpt lat="44.85284" lon="-0.39081">
        <ele>62.3</ele>
        <time>2021-06-06T12:21:35Z</time>
      </trkpt>
      <trkpt lat="44.85293" lon="-0.39076">
        <ele>62.3</ele>
        <time>2021-06-06T12:21:30Z</time>
      </trkpt>
      <trkpt lat="44.853" lon="-0.39068">
        <ele>62.1</ele>
        <time>2021-06-06T12:21:26Z</time>
      </trkpt>
      <trkpt lat="44.85302" lon="-0.39054">
        <ele>61.5</ele>
        <time>2021-06-06T12:21:19Z</time>
      </trkpt>
      <trkpt lat="44.85296" lon="-0.39044">
        <ele>60.7</ele>
        <time>2021-06-06T12:21:13Z</time>
      </trkpt>
      <trkpt lat="44.85295" lon="-0.3903">
        <ele>59.9</ele>
        <time>2021-06-06T12:21:02Z</time>
      </trkpt>
      <trkpt lat="44.85291" lon="-0.39018">
        <ele>59.3</ele>
        <time>2021-06-06T12:20:55Z</time>
      </trkpt>
      <trkpt lat="44.85284" lon="-0.39008">
        <ele>58.1</ele>
        <time>2021-06-06T12:20:48Z</time>
      </trkpt>
      <trkpt lat="44.85274" lon="-0.39006">
        <ele>56.6</ele>
        <time>2021-06-06T12:20:41Z</time>
      </trkpt>
      <trkpt lat="44.85264" lon="-0.39007">
        <ele>55.3</ele>
        <time>2021-06-06T12:20:34Z</time>
      </trkpt>
      <trkpt lat="44.85257" lon="-0.39015">
        <ele>53.7</ele>
        <time>2021-06-06T12:20:27Z</time>
      </trkpt>
      <trkpt lat="44.85252" lon="-0.39026">
        <ele>52.4</ele>
        <time>2021-06-06T12:20:21Z</time>
      </trkpt>
      <trkpt lat="44.85243" lon="-0.39028">
        <ele>49.8</ele>
        <time>2021-06-06T12:20:10Z</time>
      </trkpt>
      <trkpt lat="44.85233" lon="-0.39029">
        <ele>48.8</ele>
        <time>2021-06-06T12:20:04Z</time>
      </trkpt>
      <trkpt lat="44.85224" lon="-0.39029">
        <ele>48.7</ele>
        <time>2021-06-06T12:19:54Z</time>
      </trkpt>
      <trkpt lat="44.85223" lon="-0.39025">
        <ele>48.6</ele>
        <time>2021-06-06T12:19:45Z</time>
      </trkpt>
      <trkpt lat="44.85219" lon="-0.39013">
        <ele>48.9</ele>
        <time>2021-06-06T12:19:27Z</time>
      </trkpt>
      <trkpt lat="44.85219" lon="-0.39002">
        <ele>49.1</ele>
        <time>2021-06-06T12:19:18Z</time>
      </trkpt>
      <trkpt lat="44.85222" lon="-0.38988">
        <ele>49.5</ele>
        <time>2021-06-06T12:19:10Z</time>
      </trkpt>
      <trkpt lat="44.85221" lon="-0.38974">
        <ele>48.7</ele>
        <time>2021-06-06T12:18:31Z</time>
      </trkpt>
      <trkpt lat="44.85217" lon="-0.38973">
        <ele>48.6</ele>
        <time>2021-06-06T12:17:50Z</time>
      </trkpt>
      <trkpt lat="44.85212" lon="-0.38973">
        <ele>45.6</ele>
        <time>2021-06-06T12:17:33Z</time>
      </trkpt>
      <trkpt lat="44.85204" lon="-0.38966">
        <ele>45.3</ele>
        <time>2021-06-06T12:17:22Z</time>
      </trkpt>
      <trkpt lat="44.852" lon="-0.3896">
        <ele>45.8</ele>
        <time>2021-06-06T12:17:12Z</time>
      </trkpt>
      <trkpt lat="44.85203" lon="-0.38949">
        <ele>46.6</ele>
        <time>2021-06-06T12:17:00Z</time>
      </trkpt>
      <trkpt lat="44.85206" lon="-0.38937">
        <ele>47</ele>
        <time>2021-06-06T12:16:54Z</time>
      </trkpt>
      <trkpt lat="44.85211" lon="-0.38921">
        <ele>47.8</ele>
        <time>2021-06-06T12:16:18Z</time>
      </trkpt>
      <trkpt lat="44.85212" lon="-0.38914">
        <ele>47.9</ele>
        <time>2021-06-06T12:16:08Z</time>
      </trkpt>
      <trkpt lat="44.85212" lon="-0.38912">
        <ele>47.8</ele>
        <time>2021-06-06T12:16:06Z</time>
      </trkpt>
      <trkpt lat="44.85213" lon="-0.38899">
        <ele>47.5</ele>
        <time>2021-06-06T12:15:57Z</time>
      </trkpt>
      <trkpt lat="44.8521" lon="-0.38886">
        <ele>47</ele>
        <time>2021-06-06T12:15:50Z</time>
      </trkpt>
      <trkpt lat="44.85208" lon="-0.38872">
        <ele>46.2</ele>
        <time>2021-06-06T12:15:44Z</time>
      </trkpt>
      <trkpt lat="44.85205" lon="-0.38859">
        <ele>44.8</ele>
        <time>2021-06-06T12:15:37Z</time>
      </trkpt>
      <trkpt lat="44.85196" lon="-0.38853">
        <ele>44.3</ele>
        <time>2021-06-06T12:15:32Z</time>
      </trkpt>
      <trkpt lat="44.85186" lon="-0.3884">
        <ele>42.6</ele>
        <time>2021-06-06T12:15:16Z</time>
      </trkpt>
      <trkpt lat="44.85184" lon="-0.38851">
        <ele>42.2</ele>
        <time>2021-06-06T12:14:49Z</time>
      </trkpt>
      <trkpt lat="44.85181" lon="-0.3886">
        <ele>41.1</ele>
        <time>2021-06-06T12:14:40Z</time>
      </trkpt>
      <trkpt lat="44.85177" lon="-0.38873">
        <ele>40.8</ele>
        <time>2021-06-06T12:14:36Z</time>
      </trkpt>
      <trkpt lat="44.85177" lon="-0.38886">
        <ele>40.4</ele>
        <time>2021-06-06T12:14:32Z</time>
      </trkpt>
      <trkpt lat="44.85183" lon="-0.38896">
        <ele>39.5</ele>
        <time>2021-06-06T12:14:27Z</time>
      </trkpt>
      <trkpt lat="44.8518" lon="-0.38908">
        <ele>38.7</ele>
        <time>2021-06-06T12:14:22Z</time>
      </trkpt>
      <trkpt lat="44.85176" lon="-0.38921">
        <ele>38.3</ele>
        <time>2021-06-06T12:14:13Z</time>
      </trkpt>
      <trkpt lat="44.85178" lon="-0.38935">
        <ele>38.1</ele>
        <time>2021-06-06T12:14:08Z</time>
      </trkpt>
      <trkpt lat="44.85181" lon="-0.3895">
        <ele>37.9</ele>
        <time>2021-06-06T12:14:03Z</time>
      </trkpt>
      <trkpt lat="44.85181" lon="-0.38965">
        <ele>37.6</ele>
        <time>2021-06-06T12:13:58Z</time>
      </trkpt>
      <trkpt lat="44.85174" lon="-0.38975">
        <ele>37.4</ele>
        <time>2021-06-06T12:13:53Z</time>
      </trkpt>
      <trkpt lat="44.85165" lon="-0.38978">
        <ele>37.5</ele>
        <time>2021-06-06T12:13:49Z</time>
      </trkpt>
      <trkpt lat="44.85155" lon="-0.38979">
        <ele>37.5</ele>
        <time>2021-06-06T12:13:44Z</time>
      </trkpt>
      <trkpt lat="44.85146" lon="-0.3898">
        <ele>37.5</ele>
        <time>2021-06-06T12:13:39Z</time>
      </trkpt>
      <trkpt lat="44.85136" lon="-0.38982">
        <ele>37.4</ele>
        <time>2021-06-06T12:13:34Z</time>
      </trkpt>
      <trkpt lat="44.85126" lon="-0.38984">
        <ele>37.4</ele>
        <time>2021-06-06T12:13:27Z</time>
      </trkpt>
      <trkpt lat="44.85117" lon="-0.38986">
        <ele>37.6</ele>
        <time>2021-06-06T12:13:22Z</time>
      </trkpt>
      <trkpt lat="44.85107" lon="-0.38989">
        <ele>38.2</ele>
        <time>2021-06-06T12:13:17Z</time>
      </trkpt>
      <trkpt lat="44.85096" lon="-0.38992">
        <ele>38.7</ele>
        <time>2021-06-06T12:13:13Z</time>
      </trkpt>
      <trkpt lat="44.85088" lon="-0.38984">
        <ele>39.6</ele>
        <time>2021-06-06T12:13:08Z</time>
      </trkpt>
      <trkpt lat="44.85086" lon="-0.3897">
        <ele>40.5</ele>
        <time>2021-06-06T12:13:03Z</time>
      </trkpt>
      <trkpt lat="44.85085" lon="-0.38955">
        <ele>41.7</ele>
        <time>2021-06-06T12:12:59Z</time>
      </trkpt>
      <trkpt lat="44.85084" lon="-0.3894">
        <ele>42.6</ele>
        <time>2021-06-06T12:12:56Z</time>
      </trkpt>
      <trkpt lat="44.85083" lon="-0.38922">
        <ele>43.8</ele>
        <time>2021-06-06T12:12:53Z</time>
      </trkpt>
      <trkpt lat="44.85077" lon="-0.38909">
        <ele>44.9</ele>
        <time>2021-06-06T12:12:50Z</time>
      </trkpt>
      <trkpt lat="44.85067" lon="-0.38904">
        <ele>45.9</ele>
        <time>2021-06-06T12:12:46Z</time>
      </trkpt>
      <trkpt lat="44.85055" lon="-0.38898">
        <ele>46.9</ele>
        <time>2021-06-06T12:12:43Z</time>
      </trkpt>
      <trkpt lat="44.85045" lon="-0.38898">
        <ele>47.6</ele>
        <time>2021-06-06T12:12:41Z</time>
      </trkpt>
      <trkpt lat="44.85034" lon="-0.38899">
        <ele>48.3</ele>
        <time>2021-06-06T12:12:39Z</time>
      </trkpt>
      <trkpt lat="44.85022" lon="-0.38899">
        <ele>48.9</ele>
        <time>2021-06-06T12:12:37Z</time>
      </trkpt>
      <trkpt lat="44.8501" lon="-0.389">
        <ele>49.4</ele>
        <time>2021-06-06T12:12:35Z</time>
      </trkpt>
      <trkpt lat="44.85" lon="-0.389">
        <ele>49.8</ele>
        <time>2021-06-06T12:12:33Z</time>
      </trkpt>
      <trkpt lat="44.8499" lon="-0.389">
        <ele>50.2</ele>
        <time>2021-06-06T12:12:31Z</time>
      </trkpt>
      <trkpt lat="44.8498" lon="-0.38901">
        <ele>50.6</ele>
        <time>2021-06-06T12:12:29Z</time>
      </trkpt>
      <trkpt lat="44.8497" lon="-0.38901">
        <ele>51</ele>
        <time>2021-06-06T12:12:27Z</time>
      </trkpt>
      <trkpt lat="44.84956" lon="-0.38901">
        <ele>51.5</ele>
        <time>2021-06-06T12:12:24Z</time>
      </trkpt>
      <trkpt lat="44.84947" lon="-0.38901">
        <ele>51.9</ele>
        <time>2021-06-06T12:12:22Z</time>
      </trkpt>
      <trkpt lat="44.84936" lon="-0.38902">
        <ele>52.2</ele>
        <time>2021-06-06T12:12:20Z</time>
      </trkpt>
      <trkpt lat="44.84926" lon="-0.38902">
        <ele>52.7</ele>
        <time>2021-06-06T12:12:18Z</time>
      </trkpt>
      <trkpt lat="44.84916" lon="-0.38902">
        <ele>53</ele>
        <time>2021-06-06T12:12:16Z</time>
      </trkpt>
      <trkpt lat="44.84906" lon="-0.38902">
        <ele>53.4</ele>
        <time>2021-06-06T12:12:14Z</time>
      </trkpt>
      <trkpt lat="44.84894" lon="-0.38902">
        <ele>53.9</ele>
        <time>2021-06-06T12:12:11Z</time>
      </trkpt>
      <trkpt lat="44.84881" lon="-0.38902">
        <ele>54.5</ele>
        <time>2021-06-06T12:12:08Z</time>
      </trkpt>
      <trkpt lat="44.84868" lon="-0.38902">
        <ele>55.2</ele>
        <time>2021-06-06T12:12:05Z</time>
      </trkpt>
      <trkpt lat="44.84856" lon="-0.38901">
        <ele>56.1</ele>
        <time>2021-06-06T12:12:02Z</time>
      </trkpt>
      <trkpt lat="44.84846" lon="-0.3891">
        <ele>57.8</ele>
        <time>2021-06-06T12:11:57Z</time>
      </trkpt>
      <trkpt lat="44.84846" lon="-0.38923">
        <ele>58.5</ele>
        <time>2021-06-06T12:11:55Z</time>
      </trkpt>
      <trkpt lat="44.84846" lon="-0.3894">
        <ele>59.2</ele>
        <time>2021-06-06T12:11:53Z</time>
      </trkpt>
      <trkpt lat="44.84846" lon="-0.38957">
        <ele>59.8</ele>
        <time>2021-06-06T12:11:51Z</time>
      </trkpt>
      <trkpt lat="44.84847" lon="-0.38974">
        <ele>60.3</ele>
        <time>2021-06-06T12:11:49Z</time>
      </trkpt>
      <trkpt lat="44.84847" lon="-0.38991">
        <ele>60.8</ele>
        <time>2021-06-06T12:11:47Z</time>
      </trkpt>
      <trkpt lat="44.84848" lon="-0.39007">
        <ele>61.2</ele>
        <time>2021-06-06T12:11:45Z</time>
      </trkpt>
      <trkpt lat="44.84849" lon="-0.39022">
        <ele>61.6</ele>
        <time>2021-06-06T12:11:43Z</time>
      </trkpt>
      <trkpt lat="44.84849" lon="-0.39037">
        <ele>62.1</ele>
        <time>2021-06-06T12:11:41Z</time>
      </trkpt>
      <trkpt lat="44.84845" lon="-0.39055">
        <ele>62.6</ele>
        <time>2021-06-06T12:11:38Z</time>
      </trkpt>
      <trkpt lat="44.84833" lon="-0.39061">
        <ele>63</ele>
        <time>2021-06-06T12:11:35Z</time>
      </trkpt>
      <trkpt lat="44.84824" lon="-0.39062">
        <ele>63.2</ele>
        <time>2021-06-06T12:11:33Z</time>
      </trkpt>
      <trkpt lat="44.84814" lon="-0.39064">
        <ele>63.5</ele>
        <time>2021-06-06T12:11:31Z</time>
      </trkpt>
      <trkpt lat="44.84803" lon="-0.39067">
        <ele>63.9</ele>
        <time>2021-06-06T12:11:29Z</time>
      </trkpt>
      <trkpt lat="44.84791" lon="-0.3907">
        <ele>64.3</ele>
        <time>2021-06-06T12:11:27Z</time>
      </trkpt>
      <trkpt lat="44.84778" lon="-0.39073">
        <ele>64.9</ele>
        <time>2021-06-06T12:11:25Z</time>
      </trkpt>
      <trkpt lat="44.84765" lon="-0.39078">
        <ele>65.6</ele>
        <time>2021-06-06T12:11:23Z</time>
      </trkpt>
      <trkpt lat="44.84751" lon="-0.39085">
        <ele>66.3</ele>
        <time>2021-06-06T12:11:21Z</time>
      </trkpt>
      <trkpt lat="44.84738" lon="-0.3909">
        <ele>67</ele>
        <time>2021-06-06T12:11:19Z</time>
      </trkpt>
      <trkpt lat="44.84727" lon="-0.39095">
        <ele>67.6</ele>
        <time>2021-06-06T12:11:17Z</time>
      </trkpt>
      <trkpt lat="44.84715" lon="-0.391">
        <ele>68.1</ele>
        <time>2021-06-06T12:11:14Z</time>
      </trkpt>
      <trkpt lat="44.84708" lon="-0.3911">
        <ele>68.3</ele>
        <time>2021-06-06T12:11:11Z</time>
      </trkpt>
      <trkpt lat="44.84708" lon="-0.39124">
        <ele>68.2</ele>
        <time>2021-06-06T12:11:08Z</time>
      </trkpt>
      <trkpt lat="44.84708" lon="-0.39138">
        <ele>68</ele>
        <time>2021-06-06T12:11:05Z</time>
      </trkpt>
      <trkpt lat="44.84709" lon="-0.39152">
        <ele>68</ele>
        <time>2021-06-06T12:11:02Z</time>
      </trkpt>
      <trkpt lat="44.84709" lon="-0.39166">
        <ele>68.1</ele>
        <time>2021-06-06T12:10:59Z</time>
      </trkpt>
      <trkpt lat="44.84709" lon="-0.3918">
        <ele>68.3</ele>
        <time>2021-06-06T12:10:56Z</time>
      </trkpt>
      <trkpt lat="44.8471" lon="-0.39195">
        <ele>68.7</ele>
        <time>2021-06-06T12:10:53Z</time>
      </trkpt>
      <trkpt lat="44.8471" lon="-0.39209">
        <ele>69.1</ele>
        <time>2021-06-06T12:10:50Z</time>
      </trkpt>
      <trkpt lat="44.84711" lon="-0.39223">
        <ele>69.4</ele>
        <time>2021-06-06T12:10:47Z</time>
      </trkpt>
      <trkpt lat="44.84711" lon="-0.39237">
        <ele>69.8</ele>
        <time>2021-06-06T12:10:44Z</time>
      </trkpt>
      <trkpt lat="44.84712" lon="-0.39251">
        <ele>70</ele>
        <time>2021-06-06T12:10:41Z</time>
      </trkpt>
      <trkpt lat="44.84707" lon="-0.39263">
        <ele>70.5</ele>
        <time>2021-06-06T12:10:37Z</time>
      </trkpt>
      <trkpt lat="44.84695" lon="-0.39261">
        <ele>70.7</ele>
        <time>2021-06-06T12:10:34Z</time>
      </trkpt>
      <trkpt lat="44.84684" lon="-0.39261">
        <ele>70.7</ele>
        <time>2021-06-06T12:10:32Z</time>
      </trkpt>
      <trkpt lat="44.84674" lon="-0.39259">
        <ele>70.7</ele>
        <time>2021-06-06T12:10:30Z</time>
      </trkpt>
      <trkpt lat="44.84663" lon="-0.39259">
        <ele>70.7</ele>
        <time>2021-06-06T12:10:28Z</time>
      </trkpt>
      <trkpt lat="44.84653" lon="-0.39258">
        <ele>70.8</ele>
        <time>2021-06-06T12:10:26Z</time>
      </trkpt>
      <trkpt lat="44.84643" lon="-0.39257">
        <ele>70.8</ele>
        <time>2021-06-06T12:10:24Z</time>
      </trkpt>
      <trkpt lat="44.84634" lon="-0.39256">
        <ele>70.7</ele>
        <time>2021-06-06T12:10:22Z</time>
      </trkpt>
      <trkpt lat="44.84624" lon="-0.39255">
        <ele>70.7</ele>
        <time>2021-06-06T12:10:20Z</time>
      </trkpt>
      <trkpt lat="44.84615" lon="-0.39254">
        <ele>70.6</ele>
        <time>2021-06-06T12:10:18Z</time>
      </trkpt>
      <trkpt lat="44.84602" lon="-0.39252">
        <ele>70.5</ele>
        <time>2021-06-06T12:10:15Z</time>
      </trkpt>
      <trkpt lat="44.84589" lon="-0.39251">
        <ele>70.6</ele>
        <time>2021-06-06T12:10:12Z</time>
      </trkpt>
      <trkpt lat="44.84576" lon="-0.3925">
        <ele>70.7</ele>
        <time>2021-06-06T12:10:09Z</time>
      </trkpt>
      <trkpt lat="44.84564" lon="-0.39248">
        <ele>70.8</ele>
        <time>2021-06-06T12:10:06Z</time>
      </trkpt>
      <trkpt lat="44.84553" lon="-0.39247">
        <ele>71</ele>
        <time>2021-06-06T12:10:03Z</time>
      </trkpt>
      <trkpt lat="44.84543" lon="-0.39246">
        <ele>71.2</ele>
        <time>2021-06-06T12:10:00Z</time>
      </trkpt>
      <trkpt lat="44.84533" lon="-0.39245">
        <ele>71.3</ele>
        <time>2021-06-06T12:09:57Z</time>
      </trkpt>
      <trkpt lat="44.84523" lon="-0.39244">
        <ele>72.9</ele>
        <time>2021-06-06T12:07:13Z</time>
      </trkpt>
      <trkpt lat="44.84521" lon="-0.39243">
        <ele>73.2</ele>
        <time>2021-06-06T12:07:07Z</time>
      </trkpt>
      <trkpt lat="44.84509" lon="-0.39241">
        <ele>73.5</ele>
        <time>2021-06-06T12:07:04Z</time>
      </trkpt>
      <trkpt lat="44.84496" lon="-0.3924">
        <ele>73.9</ele>
        <time>2021-06-06T12:07:01Z</time>
      </trkpt>
      <trkpt lat="44.84483" lon="-0.39239">
        <ele>74.3</ele>
        <time>2021-06-06T12:06:58Z</time>
      </trkpt>
      <trkpt lat="44.84471" lon="-0.39237">
        <ele>74.3</ele>
        <time>2021-06-06T12:06:55Z</time>
      </trkpt>
      <trkpt lat="44.84462" lon="-0.39246">
        <ele>74.3</ele>
        <time>2021-06-06T12:06:51Z</time>
      </trkpt>
      <trkpt lat="44.8446" lon="-0.39262">
        <ele>74.2</ele>
        <time>2021-06-06T12:06:47Z</time>
      </trkpt>
      <trkpt lat="44.84451" lon="-0.39271">
        <ele>74.4</ele>
        <time>2021-06-06T12:06:43Z</time>
      </trkpt>
      <trkpt lat="44.84442" lon="-0.39271">
        <ele>74.6</ele>
        <time>2021-06-06T12:06:40Z</time>
      </trkpt>
      <trkpt lat="44.84431" lon="-0.39274">
        <ele>74.7</ele>
        <time>2021-06-06T12:06:37Z</time>
      </trkpt>
      <trkpt lat="44.84426" lon="-0.39286">
        <ele>75</ele>
        <time>2021-06-06T12:06:34Z</time>
      </trkpt>
      <trkpt lat="44.84426" lon="-0.39302">
        <ele>75.4</ele>
        <time>2021-06-06T12:06:31Z</time>
      </trkpt>
      <trkpt lat="44.84426" lon="-0.39317">
        <ele>75.8</ele>
        <time>2021-06-06T12:06:28Z</time>
      </trkpt>
      <trkpt lat="44.84424" lon="-0.39334">
        <ele>76.2</ele>
        <time>2021-06-06T12:06:24Z</time>
      </trkpt>
      <trkpt lat="44.84423" lon="-0.39348">
        <ele>76.5</ele>
        <time>2021-06-06T12:06:20Z</time>
      </trkpt>
      <trkpt lat="44.84423" lon="-0.39362">
        <ele>75</ele>
        <time>2021-06-06T12:06:07Z</time>
      </trkpt>
      <trkpt lat="44.84412" lon="-0.39363">
        <ele>74.2</ele>
        <time>2021-06-06T12:06:02Z</time>
      </trkpt>
      <trkpt lat="44.84403" lon="-0.39363">
        <ele>73.6</ele>
        <time>2021-06-06T12:05:58Z</time>
      </trkpt>
      <trkpt lat="44.84393" lon="-0.39364">
        <ele>72.7</ele>
        <time>2021-06-06T12:05:54Z</time>
      </trkpt>
      <trkpt lat="44.84382" lon="-0.39365">
        <ele>71.8</ele>
        <time>2021-06-06T12:05:50Z</time>
      </trkpt>
      <trkpt lat="44.84372" lon="-0.39366">
        <ele>71</ele>
        <time>2021-06-06T12:05:46Z</time>
      </trkpt>
      <trkpt lat="44.84362" lon="-0.39366">
        <ele>70.2</ele>
        <time>2021-06-06T12:05:42Z</time>
      </trkpt>
      <trkpt lat="44.84352" lon="-0.39366">
        <ele>69.4</ele>
        <time>2021-06-06T12:05:38Z</time>
      </trkpt>
      <trkpt lat="44.84342" lon="-0.39366">
        <ele>68.6</ele>
        <time>2021-06-06T12:05:34Z</time>
      </trkpt>
      <trkpt lat="44.84332" lon="-0.39365">
        <ele>68</ele>
        <time>2021-06-06T12:05:30Z</time>
      </trkpt>
      <trkpt lat="44.84323" lon="-0.39364">
        <ele>67.4</ele>
        <time>2021-06-06T12:05:26Z</time>
      </trkpt>
      <trkpt lat="44.84314" lon="-0.39363">
        <ele>66.8</ele>
        <time>2021-06-06T12:05:22Z</time>
      </trkpt>
      <trkpt lat="44.84303" lon="-0.39362">
        <ele>66.3</ele>
        <time>2021-06-06T12:05:17Z</time>
      </trkpt>
      <trkpt lat="44.84294" lon="-0.39361">
        <ele>66</ele>
        <time>2021-06-06T12:05:12Z</time>
      </trkpt>
      <trkpt lat="44.84288" lon="-0.3937">
        <ele>65.7</ele>
        <time>2021-06-06T12:05:05Z</time>
      </trkpt>
      <trkpt lat="44.84285" lon="-0.39383">
        <ele>65.5</ele>
        <time>2021-06-06T12:04:59Z</time>
      </trkpt>
      <trkpt lat="44.8428" lon="-0.39383">
        <ele>65.2</ele>
        <time>2021-06-06T12:04:44Z</time>
      </trkpt>
      <trkpt lat="44.84275" lon="-0.39382">
        <ele>65.7</ele>
        <time>2021-06-06T12:04:34Z</time>
      </trkpt>
      <trkpt lat="44.84265" lon="-0.39383">
        <ele>66.2</ele>
        <time>2021-06-06T12:04:25Z</time>
      </trkpt>
      <trkpt lat="44.8426" lon="-0.39393">
        <ele>69.1</ele>
        <time>2021-06-06T11:53:03Z</time>
      </trkpt>
      <trkpt lat="44.84255" lon="-0.39398">
        <ele>68.6</ele>
        <time>2021-06-06T11:52:56Z</time>
      </trkpt>
      <trkpt lat="44.84241" lon="-0.39411">
        <ele>60</ele>
        <time>2021-06-06T11:52:41Z</time>
      </trkpt>
      <trkpt lat="44.84245" lon="-0.39406">
        <ele>11.2</ele>
        <time>2021-06-06T11:52:31Z</time>
      </trkpt>
    </trkseg>
  </trk>
</gpx>